[[{"header":{"parameterUnit":"m.s-1","parameterCategory":1,"la1":30.6,"la2":29.2853,"lo1":-89.7004,"lo2":-87.6739,"dy":0.0162,"dx":0.0183,"nx":112,"ny":82,"refTime":"2023-04-22T06:00:00:Z","depth":0,"parameterNumber":2,"parameterNumberName":"U-component_of_WINDS"},"data":[0.0,0.0,0.0,0.0,0.0,0.0,0.0,0.0,0.0,0.0,0.0,0.0,0.0,0.0,0.0,0.0,0.0,0.0,0.0,0.0,0.0,0.0,0.0,0.0,0.0,0.0,0.0,0.0,0.0,0.0,0.0,0.0,0.0,0.0,0.0,0.0,0.0,0.0,0.0,0.0,0.0,0.0,0.0,0.0,0.0,0.0,0.0,0.0,0.0,0.0,0.0,0.0,0.0,0.0,0.0,0.0,0.0,0.0,0.0,0.0,0.0,0.0,0.0,0.0,0.0,0.0,0.0,0.0,0.0,0.0,0.0,0.0,0.0,0.0,0.0,0.0,0.0,0.0,0.0,0.0,0.0,0.0,0.0,0.0,0.0,0.0,0.0,0.0,0.0,0.0,0.0,3.6163,3.9986,4.2063,4.1407,3.9229,3.6975,3.481,0.0,0.0,0.0,0.0,0.0,0.0,0.0,0.0,0.0,0.0,0.0,0.0,0.0,0.0,0.0,0.0,0.0,0.0,0.0,0.0,0.0,0.0,0.0,0.0,0.0,0.0,0.0,0.0,0.0,0.0,0.0,0.0,0.0,0.0,0.0,0.0,0.0,0.0,0.0,0.0,0.0,0.0,0.0,0.0,0.0,0.0,0.0,0.0,0.0,0.0,0.0,0.0,0.0,0.0,0.0,0.0,0.0,0.0,0.0,0.0,0.0,0.0,0.0,0.0,0.0,0.0,0.0,0.0,0.0,0.0,0.0,0.0,0.0,0.0,0.0,0.0,0.0,0.0,0.0,0.0,0.0,0.0,0.0,0.0,0.0,0.0,0.0,0.0,0.0,0.0,0.0,0.0,0.0,0.0,0.0,0.0,0.0,0.0,0.0,0.0,0.0,0.0,0.0,0.0,3.6146,3.9935,4.1508,4.2252,4.213,3.9546,3.72,3.5543,0.0,0.0,0.0,0.0,0.0,0.0,0.0,0.0,0.0,0.0,0.0,0.0,0.0,0.0,0.0,0.0,0.0,0.0,0.0,0.0,0.0,0.0,0.0,0.0,0.0,0.0,0.0,0.0,0.0,0.0,0.0,0.0,0.0,0.0,0.0,0.0,0.0,0.0,0.0,0.0,0.0,0.0,0.0,0.0,0.0,0.0,0.0,0.0,0.0,0.0,0.0,0.0,0.0,0.0,0.0,0.0,0.0,0.0,0.0,0.0,0.0,0.0,0.0,0.0,0.0,0.0,0.0,0.0,0.0,0.0,0.0,0.0,0.0,0.0,0.0,0.0,0.0,0.0,0.0,0.0,0.0,0.0,0.0,0.0,0.0,0.0,0.0,0.0,0.0,0.0,0.0,0.0,0.0,0.0,0.0,0.0,0.0,0.0,0.0,0.0,0.0,0.0,0.0,3.5053,3.7558,4.1399,4.2097,4.23,4.23,3.922,3.6806,3.5667,3.3535,0.0,0.0,0.0,0.0,0.0,0.0,0.0,0.0,0.0,0.0,0.0,0.0,0.0,0.0,0.0,0.0,0.0,0.0,0.0,0.0,0.0,0.0,0.0,0.0,0.0,0.0,0.0,0.0,0.0,0.0,0.0,0.0,0.0,0.0,0.0,0.0,0.0,0.0,0.0,0.0,0.0,0.0,0.0,0.0,0.0,0.0,0.0,0.0,0.0,0.0,0.0,0.0,0.0,0.0,0.0,0.0,0.0,0.0,0.0,0.0,0.0,0.0,0.0,0.0,0.0,0.0,0.0,0.0,0.0,0.0,0.0,0.0,0.0,0.0,0.0,0.0,0.0,0.0,0.0,0.0,0.0,0.0,0.0,0.0,0.0,0.0,0.0,0.0,0.0,0.0,0.0,0.0,0.0,0.0,0.0,0.0,0.0,0.0,0.0,0.0,0.0,0.0,3.6705,3.8543,4.169,4.2198,4.2232,4.2049,3.8645,3.6332,3.5915,3.3467,0.0,0.0,0.0,0.0,0.0,0.0,0.0,0.0,0.0,0.0,0.0,0.0,0.0,0.0,0.0,0.0,0.0,0.0,0.0,0.0,0.0,0.0,0.0,0.0,0.0,0.0,0.0,0.0,0.0,0.0,0.0,0.0,0.0,0.0,0.0,0.0,0.0,0.0,0.0,0.0,0.0,0.0,0.0,0.0,0.0,0.0,0.0,0.0,0.0,0.0,0.0,0.0,0.0,0.0,0.0,0.0,0.0,0.0,0.0,0.0,0.0,0.0,0.0,0.0,0.0,0.0,0.0,0.0,0.0,0.0,0.0,0.0,0.0,0.0,0.0,0.0,0.0,0.0,0.0,0.0,0.0,0.0,0.0,0.0,0.0,0.0,0.0,0.0,0.0,0.0,0.0,0.0,0.0,0.0,0.0,0.0,0.0,0.0,0.0,0.0,0.0,0.0,3.7968,3.9478,4.1102,4.188,4.2016,4.1339,3.7843,3.5983,3.6682,3.3298,0.0,0.0,0.0,0.0,0.0,0.0,0.0,0.0,0.0,0.0,0.0,0.0,0.0,0.0,0.0,0.0,0.0,0.0,0.0,0.0,0.0,0.0,0.0,0.0,0.0,0.0,0.0,0.0,0.0,0.0,0.0,0.0,0.0,0.0,0.0,0.0,0.0,0.0,0.0,0.0,0.0,0.0,0.0,0.0,0.0,0.0,0.0,0.0,0.0,0.0,0.0,0.0,0.0,0.0,0.0,0.0,0.0,0.0,0.0,0.0,0.0,0.0,0.0,0.0,0.0,0.0,0.0,0.0,0.0,0.0,0.0,0.0,0.0,0.0,0.0,0.0,0.0,0.0,0.0,0.0,0.0,0.0,0.0,0.0,0.0,0.0,0.0,0.0,0.0,0.0,0.0,0.0,0.0,0.0,0.0,0.0,0.0,0.0,0.0,0.0,0.0,0.0,3.8497,4.0257,0.0,4.2117,4.1982,4.1271,3.8227,3.6479,3.6795,0.0,0.0,0.0,0.0,0.0,0.0,0.0,0.0,0.0,0.0,0.0,0.0,0.0,0.0,0.0,0.0,0.0,0.0,0.0,0.0,0.0,0.0,0.0,0.0,0.0,0.0,0.0,0.0,0.0,0.0,0.0,0.0,0.0,0.0,0.0,0.0,0.0,0.0,0.0,0.0,0.0,0.0,0.0,0.0,0.0,0.0,0.0,0.0,0.0,0.0,0.0,0.0,0.0,0.0,0.0,0.0,0.0,0.0,0.0,0.0,0.0,0.0,0.0,0.0,0.0,0.0,0.0,0.0,0.0,0.0,0.0,0.0,0.0,0.0,0.0,0.0,0.0,0.0,0.0,0.0,0.0,0.0,0.0,0.0,0.0,0.0,0.0,0.0,0.0,0.0,0.0,0.0,0.0,0.0,0.0,0.0,0.0,0.0,0.0,0.0,0.0,0.0,3.7156,3.9005,4.0595,0.0,4.1948,4.1542,4.0595,3.7799,3.6276,3.6761,0.0,0.0,0.0,0.0,0.0,0.0,0.0,0.0,0.0,0.0,0.0,0.0,0.0,0.0,0.0,0.0,0.0,0.0,0.0,0.0,0.0,0.0,0.0,0.0,0.0,0.0,0.0,0.0,0.0,0.0,0.0,0.0,0.0,0.0,0.0,0.0,0.0,0.0,0.0,0.0,0.0,0.0,0.0,0.0,0.0,0.0,0.0,0.0,0.0,0.0,0.0,0.0,0.0,0.0,0.0,0.0,0.0,0.0,0.0,0.0,0.0,0.0,0.0,0.0,0.0,0.0,0.0,0.0,0.0,0.0,0.0,0.0,0.0,0.0,0.0,0.0,0.0,0.0,0.0,0.0,0.0,0.0,0.0,0.0,0.0,0.0,0.0,0.0,0.0,0.0,0.0,0.0,0.0,0.0,0.0,0.0,0.0,0.0,0.0,0.0,0.0,0.0,3.8599,3.966,4.0405,4.1136,4.1191,4.0595,3.9119,3.6242,3.5159,0.0,0.0,0.0,0.0,0.0,0.0,0.0,0.0,0.0,0.0,0.0,0.0,0.0,0.0,0.0,0.0,0.0,0.0,0.0,0.0,0.0,0.0,0.0,0.0,0.0,0.0,0.0,0.0,0.0,0.0,0.0,0.0,0.0,0.0,0.0,0.0,0.0,0.0,0.0,0.0,0.0,0.0,0.0,0.0,0.0,0.0,0.0,0.0,0.0,0.0,0.0,0.0,0.0,0.0,0.0,0.0,0.0,0.0,0.0,0.0,0.0,0.0,0.0,0.0,0.0,0.0,0.0,0.0,0.0,0.0,0.0,0.0,0.0,0.0,0.0,0.0,0.0,0.0,0.0,0.0,0.0,0.0,0.0,0.0,0.0,0.0,0.0,0.0,0.0,0.0,0.0,0.0,0.0,0.0,0.0,0.0,0.0,0.0,0.0,0.0,0.0,0.0,0.0,3.8667,4.0087,4.117,4.188,4.1995,4.117,3.9186,3.6242,3.5159,3.6694,0.0,0.0,0.0,0.0,0.0,0.0,0.0,0.0,0.0,0.0,0.0,0.0,0.0,0.0,0.0,0.0,0.0,0.0,0.0,0.0,0.0,0.0,0.0,0.0,0.0,0.0,0.0,0.0,0.0,0.0,0.0,0.0,0.0,0.0,0.0,0.0,0.0,0.0,0.0,0.0,0.0,0.0,0.0,0.0,0.0,0.0,0.0,0.0,0.0,0.0,0.0,0.0,0.0,0.0,0.0,0.0,0.0,0.0,0.0,0.0,0.0,0.0,0.0,0.0,0.0,0.0,0.0,0.0,0.0,0.0,0.0,0.0,0.0,0.0,0.0,0.0,0.0,0.0,0.0,0.0,0.0,0.0,0.0,0.0,0.0,0.0,0.0,0.0,0.0,0.0,0.0,0.0,0.0,0.0,0.0,0.0,0.0,0.0,0.0,0.0,0.0,0.0,3.9153,4.0202,4.1035,4.1779,4.1589,4.0641,3.8734,3.6332,3.5081,3.543,0.0,0.0,0.0,0.0,0.0,0.0,0.0,0.0,0.0,0.0,0.0,0.0,0.0,0.0,0.0,0.0,0.0,0.0,0.0,0.0,0.0,0.0,0.0,0.0,0.0,0.0,0.0,0.0,0.0,0.0,0.0,0.0,0.0,0.0,0.0,0.0,0.0,0.0,0.0,0.0,0.0,0.0,0.0,0.0,0.0,0.0,0.0,0.0,0.0,0.0,0.0,0.0,0.0,0.0,0.0,0.0,0.0,0.0,0.0,0.0,0.0,0.0,0.0,0.0,0.0,0.0,0.0,0.0,0.0,0.0,0.0,0.0,0.0,0.0,0.0,0.0,0.0,0.0,0.0,0.0,0.0,0.0,0.0,0.0,0.0,0.0,0.0,0.0,0.0,0.0,0.0,0.0,0.0,0.0,0.0,0.0,0.0,0.0,0.0,0.0,0.0,0.0,3.9842,4.018,4.0472,4.1136,4.0608,3.9592,3.8024,3.6422,3.4934,3.3582,0.0,0.0,0.0,0.0,0.0,0.0,0.0,0.0,0.0,0.0,0.0,0.0,0.0,0.0,0.0,0.0,0.0,0.0,0.0,0.0,0.0,0.0,0.0,0.0,0.0,0.0,0.0,0.0,0.0,0.0,0.0,0.0,0.0,0.0,0.0,0.0,0.0,0.0,0.0,0.0,0.0,0.0,0.0,0.0,0.0,0.0,0.0,0.0,0.0,0.0,0.0,0.0,0.0,0.0,0.0,0.0,0.0,0.0,0.0,0.0,2.865,0.0,0.0,0.0,0.0,0.0,0.0,0.0,0.0,0.0,0.0,0.0,0.0,0.0,0.0,0.0,0.0,0.0,0.0,0.0,0.0,0.0,0.0,0.0,0.0,0.0,0.0,0.0,0.0,0.0,0.0,0.0,0.0,0.0,0.0,0.0,0.0,0.0,0.0,0.0,0.0,0.0,3.9973,4.0595,4.1035,4.117,4.1068,4.0121,3.8079,3.596,3.4607,3.428,0.0,0.0,0.0,0.0,0.0,0.0,0.0,0.0,0.0,0.0,0.0,0.0,0.0,0.0,0.0,0.0,0.0,0.0,0.0,0.0,0.0,0.0,0.0,0.0,0.0,0.0,0.0,0.0,0.0,0.0,0.0,0.0,0.0,0.0,0.0,0.0,0.0,0.0,0.0,0.0,0.0,0.0,0.0,0.0,0.0,0.0,0.0,0.0,0.0,0.0,0.0,0.0,0.0,0.0,0.0,0.0,0.0,0.0,0.0,0.0,0.0,2.9864,0.0,0.0,0.0,0.0,0.0,0.0,0.0,0.0,0.0,0.0,0.0,0.0,0.0,0.0,0.0,0.0,0.0,0.0,0.0,0.0,0.0,0.0,0.0,0.0,0.0,0.0,0.0,0.0,0.0,0.0,0.0,0.0,0.0,0.0,0.0,0.0,0.0,0.0,0.0,0.0,4.002,4.0426,4.0675,4.0675,4.0675,4.0054,3.8565,3.6671,3.5126,3.4032,3.2882,0.0,0.0,0.0,0.0,0.0,0.0,0.0,0.0,0.0,0.0,0.0,0.0,0.0,0.0,0.0,0.0,0.0,0.0,0.0,0.0,0.0,0.0,0.0,0.0,0.0,0.0,0.0,0.0,0.0,0.0,0.0,0.0,0.0,0.0,0.0,0.0,0.0,0.0,0.0,0.0,0.0,0.0,0.0,0.0,0.0,0.0,0.0,0.0,0.0,0.0,0.0,0.0,0.0,0.0,0.0,3.4667,3.4667,3.4128,3.311,3.1898,3.0642,2.9594,0.0,0.0,0.0,0.0,0.0,0.0,0.0,0.0,0.0,0.0,0.0,0.0,0.0,0.0,0.0,0.0,0.0,0.0,0.0,0.0,0.0,0.0,0.0,0.0,0.0,3.6189,3.6222,0.0,0.0,0.0,0.0,0.0,0.0,0.0,0.0,0.0,0.0,0.0,0.0,3.9842,4.0011,4.0113,4.0113,4.0113,3.9795,3.9051,3.763,3.5938,3.392,3.3548,3.2973,0.0,0.0,0.0,0.0,0.0,0.0,0.0,0.0,0.0,0.0,0.0,0.0,0.0,0.0,0.0,0.0,0.0,0.0,0.0,0.0,0.0,0.0,0.0,0.0,0.0,0.0,0.0,0.0,0.0,0.0,0.0,0.0,2.6617,2.675,0.0,0.0,0.0,0.0,0.0,0.0,0.0,0.0,0.0,0.0,0.0,0.0,0.0,0.0,3.646,3.6148,3.6267,3.6866,3.5848,3.537,3.537,3.537,3.5579,3.5925,3.516,0.0,3.2736,3.133,0.0,0.0,0.0,0.0,0.0,0.0,0.0,0.0,0.0,0.0,0.0,0.0,0.0,0.0,0.0,0.0,0.0,0.0,0.0,0.0,0.0,0.0,3.365,3.3179,3.4059,3.51,0.0,3.7292,3.8784,3.8959,0.0,0.0,0.0,0.0,0.0,0.0,0.0,0.0,3.922,3.9694,4.0113,4.0113,4.0113,3.9795,3.9051,3.763,3.6378,3.5363,3.4123,3.3886,3.4968,3.4506,0.0,0.0,0.0,0.0,0.0,0.0,0.0,0.0,0.0,0.0,0.0,0.0,0.0,0.0,0.0,0.0,0.0,0.0,0.0,0.0,0.0,0.0,0.0,0.0,0.0,0.0,0.0,0.0,0.0,2.7451,2.844,2.8504,3.0111,3.1199,0.0,0.0,0.0,0.0,0.0,0.0,0.0,0.0,0.0,3.4622,3.5878,3.6836,3.7387,3.7883,3.8452,3.908,3.9278,3.896,3.8272,3.8631,3.8571,3.8123,3.7806,3.7135,3.6088,3.4113,3.3335,3.3335,0.0,0.0,0.0,0.0,0.0,3.4734,3.5181,0.0,0.0,0.0,0.0,0.0,0.0,0.0,0.0,0.0,0.0,0.0,0.0,0.0,0.0,3.4901,3.5842,3.7125,3.7885,3.851,3.8892,0.0,3.8734,3.8734,3.9491,0.0,0.0,0.0,0.0,0.0,3.9592,3.991,4.0113,4.0113,4.0113,3.9977,3.966,3.8645,3.7528,3.6332,3.5239,3.4562,3.4359,3.4438,3.4979,0.0,0.0,0.0,0.0,0.0,0.0,0.0,0.0,0.0,0.0,0.0,0.0,0.0,0.0,0.0,0.0,0.0,0.0,0.0,0.0,0.0,0.0,0.0,0.0,0.0,0.0,0.0,0.0,2.7872,2.8978,2.895,3.0725,3.191,0.0,0.0,0.0,0.0,0.0,0.0,3.4442,3.5938,3.6746,3.6746,3.8003,3.8751,3.8931,3.99,4.0827,4.1654,4.2481,4.2451,4.1654,4.1983,4.1594,4.0647,4.0307,3.9798,3.9008,3.6686,3.4981,3.3768,3.3933,3.4203,0.0,3.5003,3.5431,3.5861,3.6246,3.6374,3.6224,3.5104,0.0,3.5099,3.5484,0.0,0.0,0.0,0.0,3.6719,3.6585,0.0,3.7221,3.6824,3.7698,3.8773,3.9439,3.9468,3.936,0.0,3.8971,3.8949,3.9694,0.0,0.0,0.0,0.0,3.919,3.9749,3.9813,3.9876,4.0087,4.0113,4.0113,4.0113,3.9423,3.8543,3.7427,3.6625,3.5611,3.4336,3.4787,3.5092,3.5092,0.0,0.0,0.0,0.0,0.0,0.0,0.0,0.0,0.0,0.0,0.0,0.0,0.0,0.0,0.0,0.0,0.0,0.0,0.0,0.0,0.0,0.0,0.0,0.0,0.0,0.0,0.0,0.0,0.0,2.5893,2.9196,0.0,0.0,0.0,0.0,3.4275,3.5535,3.6537,3.7165,3.908,4.0157,4.0157,4.1433,4.2451,4.309,4.31,4.3758,4.5035,4.4496,4.4496,4.5035,4.4436,4.4137,4.3988,4.278,4.1871,4.1014,3.7781,3.6716,3.7028,3.5878,3.6148,3.7135,3.6603,3.644,3.638,3.5783,3.5543,3.5543,3.5464,3.59,3.6383,3.5763,3.6607,0.0,0.0,3.6599,3.6585,3.6534,3.653,3.6693,3.7225,3.7986,3.8595,3.8643,3.9853,4.0729,0.0,3.8925,3.8193,3.8949,0.0,3.8983,3.9051,3.8954,3.8937,3.9032,3.9007,3.9262,4.0003,4.0113,4.0113,4.0113,3.9423,3.8983,3.887,3.8193,3.7449,3.666,3.666,3.6694,3.6694,3.5261,0.0,0.0,0.0,0.0,0.0,0.0,0.0,0.0,0.0,0.0,0.0,0.0,0.0,0.0,0.0,0.0,0.0,0.0,0.0,0.0,0.0,0.0,0.0,0.0,0.0,0.0,0.0,0.0,3.0606,3.3022,0.0,3.4335,3.5648,3.6662,3.6969,3.7093,3.7611,3.8684,3.9062,3.9984,4.1634,4.214,4.3322,4.5254,4.5254,4.5672,4.6591,4.6352,4.6121,4.5942,4.5702,4.5343,4.4885,4.4018,4.324,4.2502,4.0954,3.9667,3.8554,3.7238,3.7507,3.8554,3.7494,3.7644,3.8332,3.8075,3.7734,3.7225,3.6417,3.6332,3.6394,3.5728,3.6207,3.6901,3.6613,3.6546,3.6723,3.752,3.7721,3.7883,3.8524,3.8903,3.9273,3.9826,4.0033,4.0196,4.0567,3.99,3.9703,4.0899,3.9931,3.9282,4.016,3.9875,3.9546,3.9536,3.9505,3.9617,3.9925,3.9973,4.0007,4.0096,3.9863,3.9525,3.9039,3.8734,3.8261,3.755,3.7054,3.6795,3.6795,3.5295,3.5261,0.0,0.0,0.0,0.0,0.0,0.0,0.0,0.0,0.0,0.0,0.0,0.0,0.0,0.0,0.0,0.0,0.0,0.0,0.0,0.0,0.0,0.0,0.0,0.0,0.0,0.0,3.1175,3.3483,3.5379,3.6477,3.65,3.7491,3.8231,3.8434,3.8307,3.8766,4.011,3.9988,4.099,4.3328,4.3401,4.4472,4.6629,4.6629,4.6839,4.7309,4.7309,4.707,4.6629,4.639,4.6061,4.5603,4.4945,4.4267,4.3609,4.321,4.2132,4.0588,3.926,3.929,3.9978,3.908,3.932,4.0038,3.9828,3.914,3.826,3.7422,3.7002,3.6716,3.6297,3.6447,3.6836,3.7092,3.7152,3.7392,3.8452,3.8751,3.8841,3.9302,3.9391,3.9571,4.0117,4.0095,4.0156,4.0717,4.0375,4.0331,4.1288,4.0232,3.9643,4.0746,4.0062,3.9616,4.0065,3.9938,3.9839,3.9907,4.0147,4.0261,4.0096,4.0337,4.0168,3.9423,3.958,3.9309,3.8328,3.7799,3.7427,3.719,3.6163,3.6129,3.719,0.0,0.0,0.0,0.0,0.0,0.0,0.0,0.0,0.0,0.0,0.0,0.0,0.0,0.0,0.0,0.0,0.0,0.0,0.0,0.0,0.0,0.0,0.0,2.9194,3.1432,3.3366,3.3947,3.5823,3.6891,3.6319,3.7171,3.8082,3.8732,3.93,4.0165,4.148,4.2112,4.3348,4.5229,4.5326,4.5965,4.7244,4.7287,4.7309,4.7309,4.7309,4.7309,4.7279,4.6629,4.633,4.63,4.5633,4.4945,4.4326,4.4296,4.3908,4.319,4.1923,4.1433,4.1463,4.1433,4.1433,4.1373,4.0696,3.9589,3.8482,3.8482,3.8033,3.7494,3.7524,3.7524,3.7644,3.8302,3.8499,3.8601,3.9242,3.9451,3.9451,3.9451,3.9451,3.9451,3.9451,4.0139,4.0718,4.0718,4.0241,3.9861,3.989,3.989,4.0083,4.0642,3.9578,0.0,4.0531,4.0226,3.9933,3.9963,4.0749,4.0975,4.0248,4.0832,4.0899,4.0146,4.0764,4.0527,3.9085,3.9005,3.8633,3.791,3.791,3.791,3.7944,0.0,0.0,0.0,0.0,0.0,0.0,0.0,0.0,0.0,0.0,0.0,0.0,0.0,0.0,0.0,0.0,0.0,0.0,0.0,0.0,0.0,0.0,3.2705,3.2803,3.3653,3.4776,3.6132,3.8265,3.9528,3.937,4.1197,4.2473,4.2638,4.2347,4.2337,4.2706,4.2032,4.2134,4.3192,4.4115,4.5011,4.5891,4.6866,4.7309,4.7309,4.7309,4.7309,4.7309,4.713,4.704,4.701,4.63,4.5642,4.4975,4.4496,4.3908,4.32,4.2421,4.2372,4.2711,4.2301,4.2402,4.2681,4.2062,4.1283,4.0565,4.0565,4.0127,3.9679,4.0146,3.9948,3.9709,4.0385,4.0236,3.9888,4.0098,4.0487,4.0726,4.0247,4.0487,4.0846,4.0846,4.1039,4.1193,4.1193,4.1055,4.1063,4.1342,4.1709,4.1863,4.1483,0.0,0.0,4.0492,4.0481,4.0733,4.1368,4.219,4.2422,4.1739,4.1894,4.1454,0.0,4.0269,4.0202,3.9808,3.9288,3.8633,3.791,3.843,3.87,0.0,0.0,0.0,0.0,0.0,0.0,0.0,0.0,0.0,0.0,0.0,0.0,0.0,0.0,0.0,0.0,0.0,0.0,0.0,0.0,0.0,0.0,3.3634,3.518,3.6093,3.6381,3.691,3.809,3.9803,4.09,4.09,4.2157,4.3009,4.3009,4.2606,4.2395,4.2395,4.1705,4.1739,4.2704,4.3463,4.4449,4.5723,4.6456,4.6993,4.7309,4.7309,4.7309,4.7309,4.7309,4.7309,0.0,4.6869,4.633,4.5693,4.5284,4.4596,0.0,0.0,0.0,0.0,0.0,4.2851,4.288,4.2511,4.1961,4.1403,4.1403,4.1134,4.0894,4.1283,4.1134,4.0894,4.1283,4.1134,4.0816,4.0816,4.1104,4.1313,4.0905,4.1134,4.1403,4.1403,4.1403,4.1403,4.1403,0.0,0.0,4.1761,4.2008,4.2169,4.2022,4.1766,4.1474,0.0,4.1498,4.1743,4.1949,4.2783,4.295,4.1908,4.213,0.0,0.0,0.0,4.0405,4.0113,3.9694,0.0,0.0,0.0,3.9457,0.0,0.0,0.0,0.0,3.9592,3.9457,0.0,0.0,0.0,0.0,0.0,0.0,0.0,0.0,0.0,0.0,0.0,0.0,0.0,0.0,0.0,0.0,3.5959,3.7488,3.9045,3.9321,3.9522,3.9923,4.0902,4.1528,4.1578,4.1654,4.1654,4.1603,4.1578,4.1553,4.1503,0.0,0.0,0.0,0.0,4.4138,4.5841,4.592,4.6401,4.7181,4.7203,4.7268,4.7429,4.7429,4.7429,4.7429,4.7339,4.6899,4.63,4.6211,4.5403,4.4117,4.3529,4.329,4.329,4.329,4.297,0.0,0.0,0.0,0.0,4.1583,4.1583,4.1523,4.1583,4.1583,4.1523,4.1613,4.1583,4.1523,4.1523,4.1553,4.1613,4.1523,4.1553,4.1613,4.1613,4.1613,4.1613,4.1613,4.2092,4.2301,4.1733,4.1613,4.1792,4.2321,4.1901,0.0,4.2475,4.2815,4.2829,4.235,0.0,0.0,4.1563,4.2049,4.1758,4.0214,4.0696,4.0764,4.0146,4.018,4.0202,4.0202,4.0316,4.035,4.035,4.035,4.0675,4.1305,4.0574,4.0282,0.0,0.0,0.0,0.0,0.0,0.0,0.0,0.0,0.0,0.0,0.0,0.0,0.0,0.0,0.0,3.6553,3.7804,3.9196,4.1257,4.1934,4.2085,4.1758,4.2286,4.2836,4.3288,4.3711,4.3761,4.3363,4.3338,4.3137,4.2685,4.266,0.0,4.239,4.3386,4.3884,4.3786,4.4367,4.527,4.6419,0.0,0.0,4.8087,4.8087,4.8087,4.8079,4.7549,4.6899,4.6271,4.5723,4.4685,4.3489,4.3349,4.329,4.329,4.329,4.325,4.313,4.313,4.2731,4.2271,4.2771,4.2611,4.2301,4.2771,4.2581,0.0,4.2821,4.2581,4.2201,4.2201,4.2551,4.2801,4.2301,4.2581,4.2921,4.2921,4.2921,4.2921,4.2921,4.304,4.307,4.2951,4.2921,4.2821,4.247,4.2291,4.2538,4.3427,4.3234,4.346,4.4669,4.508,4.464,4.3118,4.3118,4.232,4.0248,4.0235,4.0248,4.0113,4.0675,4.1001,4.1001,4.1589,4.186,4.186,4.186,4.1961,4.2063,4.1339,4.1305,0.0,0.0,0.0,0.0,0.0,0.0,0.0,0.0,0.0,0.0,0.0,3.3081,0.0,0.0,3.6664,3.8725,4.0132,4.1431,4.2813,4.3463,4.3589,4.3065,4.3463,4.3915,4.4163,4.4439,4.4489,4.4213,4.4217,4.4091,4.3815,4.3539,4.3291,4.3014,4.3349,4.3434,4.3204,4.387,4.4551,4.5255,4.5588,4.6276,4.7268,4.7268,4.7458,4.7788,4.7459,4.713,4.6749,4.6061,4.5403,4.4745,4.4057,4.3609,4.329,4.329,4.329,4.329,4.329,4.31,4.291,4.322,4.31,4.291,4.322,4.31,4.291,4.322,4.307,4.2851,4.2851,4.307,4.322,4.291,4.307,4.329,4.329,4.329,4.329,4.329,4.329,4.329,4.329,4.329,4.322,4.291,4.2851,4.321,4.4174,4.4159,4.4411,4.5352,4.5604,4.508,4.3524,4.3051,4.2388,4.1251,4.1183,4.1183,4.1183,4.1542,4.1745,4.1745,4.2117,4.23,4.23,4.23,4.2489,4.2848,4.2476,4.232,0.0,0.0,0.0,0.0,0.0,0.0,0.0,0.0,3.1182,3.375,3.4057,3.4385,3.6179,3.7805,3.931,4.0606,4.2233,4.3489,4.4041,4.4518,4.4618,4.4192,4.4518,4.4815,4.4916,4.4916,4.4865,4.4765,4.4765,4.4715,4.4614,4.4091,4.379,4.379,4.3291,4.3059,4.3179,4.3519,4.391,4.4256,4.4723,4.5511,4.6568,4.6453,4.6878,4.7668,4.7429,4.7249,4.7048,4.651,4.6151,4.5792,4.4715,4.3967,4.3489,4.3349,4.329,4.329,4.329,4.329,4.329,4.329,4.3379,4.3469,4.3469,4.3469,4.3499,4.3668,4.3519,4.3319,4.3439,4.3379,4.329,4.329,4.329,4.3319,4.3489,4.3469,4.3529,4.3668,4.3698,4.3698,4.3698,4.3698,4.3609,4.3319,4.329,4.3654,4.4662,4.4962,4.5215,4.5567,4.5689,4.508,4.3524,4.2726,4.23,4.23,4.23,4.23,4.23,4.2422,4.2523,4.2523,4.2672,4.274,4.274,4.274,4.3064,4.3626,4.3795,4.347,2.7823,2.8288,2.823,2.7968,2.8585,2.9818,0.0,0.0,3.4671,3.6071,3.6458,3.6923,3.8106,3.9391,4.0656,4.1835,4.3363,4.4644,4.5221,4.5347,4.5372,4.5321,4.5347,4.5573,4.6075,4.6125,4.5924,4.5422,4.5397,4.5171,4.4614,4.4091,4.379,4.379,4.3291,4.2995,4.3035,4.2633,4.2981,4.4123,4.4228,4.5592,4.7957,4.7362,4.7829,4.9007,4.7818,4.6958,4.642,4.633,4.5583,4.4506,4.4356,4.4237,4.4117,4.3499,4.329,4.329,4.329,4.329,4.329,4.329,4.3698,4.4177,4.4177,4.4177,4.4296,4.4915,4.4207,4.3459,4.4027,4.3758,4.329,4.329,4.329,4.3439,4.4057,4.4177,4.4356,4.4975,4.5065,4.5065,4.5065,4.5065,4.4676,4.3489,4.329,4.3654,4.4662,4.4962,4.5408,4.629,4.5975,4.508,4.3524,4.2726,4.23,4.23,4.23,4.23,4.23,4.2929,4.3288,4.3288,4.3992,4.4344,4.4344,4.4344,4.4412,4.4465,4.5128,4.506,2.7667,2.8036,2.8313,2.8522,2.9815,3.1517,3.3366,3.4298,3.5369,3.7409,3.771,3.8092,3.9828,4.1395,4.2685,0.0,4.4719,4.5698,4.5924,4.5698,4.5372,4.502,4.4995,4.5196,4.5773,4.5824,4.5874,4.5949,4.5974,4.5874,4.5593,4.507,4.4618,4.4292,4.374,4.3341,4.3014,4.2788,4.3327,4.4625,4.4652,4.5903,4.8158,4.7501,4.7543,4.8087,4.7549,4.716,4.6869,4.6869,4.6561,4.5992,4.5185,4.4885,4.4796,4.4117,4.3878,4.3878,4.3878,4.3878,4.3878,4.3878,4.4326,4.4885,4.4885,4.4885,4.4945,4.5214,4.4616,4.4027,4.4706,4.4386,4.3967,4.4356,4.4446,4.4556,4.4825,4.4885,4.4975,4.5244,4.5304,4.5304,4.5304,4.5304,4.5095,4.4556,4.4117,4.4227,4.5198,4.5579,4.6131,4.7191,4.6342,4.5432,4.4776,4.4045,4.3653,4.3653,4.3653,4.3653,4.3653,4.3924,4.4316,4.4742,4.506,4.5447,4.5887,4.5887,4.5887,4.5887,4.621,4.6177,2.762,2.8147,2.8957,2.9634,3.1366,3.324,3.4706,3.5318,3.6193,3.8273,3.8684,3.9169,4.08,4.2459,4.374,4.4288,4.5347,4.6075,4.6075,4.5598,4.497,4.4267,4.3862,4.394,4.4547,4.5121,4.5648,4.605,4.6225,4.6301,4.6301,4.5773,4.5296,4.4869,4.4317,4.3765,4.324,4.3212,4.3838,4.4994,4.4994,4.623,4.8466,4.7996,4.76,4.7309,4.7309,4.7309,4.7309,4.71,4.692,4.6621,4.5484,4.5035,4.4975,4.4706,4.4446,4.4296,4.4296,4.4416,4.4586,4.4586,4.5035,4.5574,4.5574,4.5574,4.5574,4.5574,4.5095,4.4706,4.5155,4.4945,4.4706,4.5185,4.5304,4.5334,4.5544,4.5574,4.5633,4.5813,4.5843,4.5843,4.5843,4.5843,4.5843,4.5843,4.5274,4.4971,4.5253,4.5843,4.6625,4.7772,4.694,4.623,4.6007,4.5514,4.521,4.521,4.521,4.521,4.521,4.521,4.5447,4.6007,4.6007,4.6278,4.68,4.68,4.68,4.68,4.6989,4.709,2.8097,2.9258,3.0763,3.1842,3.3373,3.4951,3.608,3.7136,3.809,3.8743,3.9698,4.0424,4.0499,4.1882,4.3215,4.374,4.4769,4.5522,4.5522,4.502,4.4242,4.3162,4.2055,4.1628,0.0,4.4245,4.5497,4.5522,4.5999,4.6301,4.6301,4.5773,4.5472,4.5472,4.4895,4.4313,4.379,4.379,4.4194,4.4994,4.4994,4.6448,4.9148,4.9218,4.8514,4.7309,4.7309,4.7309,4.7249,4.66,4.5942,4.5274,4.4616,4.4326,4.4416,4.5035,4.4855,4.4296,4.4296,4.4736,4.5274,4.5274,4.5723,4.6271,4.6271,4.6271,4.6271,4.6271,4.5813,4.5274,4.5274,4.5274,4.5274,4.5304,4.5304,4.5484,4.6121,4.6271,4.645,4.713,4.7249,4.7249,4.7249,4.7249,4.7249,4.7249,4.6659,4.5783,4.4487,4.5416,4.6625,4.7772,4.7853,4.7549,4.6834,4.6766,4.6733,4.6733,4.6733,4.6733,4.6733,4.6733,4.6718,4.6766,4.6766,4.68,4.68,4.68,4.68,4.6834,4.7515,4.7887,2.988,3.1235,3.2591,3.4025,3.5656,3.6844,3.6647,3.7441,3.8143,3.8,3.7295,3.7268,3.9088,3.9842,4.0734,4.2476,4.394,4.5045,4.5422,4.4995,4.3912,4.208,4.1882,0.0,0.0,0.0,0.0,4.4292,4.4869,4.5372,4.5748,4.5924,4.5874,4.5497,4.5296,4.5121,4.492,4.4543,4.5414,4.7513,4.8136,4.8273,4.799,4.7573,4.6425,4.484,4.5666,4.6054,4.6063,4.6218,4.642,4.6531,4.5394,4.5244,4.5583,4.5394,4.5454,4.5642,4.5642,4.5762,4.5942,4.5942,4.642,4.6958,4.6958,4.6958,4.6958,4.6958,4.648,4.6061,4.6531,4.6292,4.6061,4.6531,4.6621,4.6681,4.6899,4.6958,4.704,4.7249,4.7309,4.7309,4.7309,4.7309,4.7309,4.7309,4.6719,4.6043,4.5327,4.6177,4.7062,4.7652,4.7835,4.7819,4.7549,4.709,4.68,4.68,4.68,4.68,4.68,4.68,4.7022,4.7515,4.7515,4.7752,4.8274,4.8274,4.8274,4.8274,4.8511,4.8631,3.1507,3.285,3.4052,3.5523,3.6693,3.7309,3.6581,3.6843,3.699,3.6156,3.4949,3.4618,3.648,3.6915,3.781,4.0292,4.1907,4.3187,4.4195,4.3815,4.2883,4.1478,4.1304,4.0954,0.0,0.0,0.0,4.3363,4.4392,4.5095,4.5472,4.6024,4.615,4.5799,4.5773,4.5598,4.5171,4.479,4.5823,4.8229,4.9567,4.9231,4.7378,4.6697,4.5572,4.421,4.5047,4.5666,4.6085,4.624,4.654,4.6809,4.5723,4.5574,4.5912,4.5753,4.5912,4.63,4.63,4.645,4.6659,4.6659,4.6929,4.7309,4.7309,4.7309,4.7249,4.6988,4.6779,4.6689,4.6869,4.6779,4.6749,4.7219,4.7309,4.7309,4.7309,4.7309,4.7309,4.7309,4.7309,4.7309,4.7309,4.7309,4.7309,4.7309,4.6929,4.6499,4.6116,4.6391,4.6901,4.7538,4.7729,4.7936,4.8262,4.7868,4.7597,4.7597,4.7597,4.7597,4.7597,4.7597,4.78,4.8293,4.8293,4.8529,4.9018,4.9018,4.9018,4.9018,4.9018,4.9018,3.2907,3.4023,3.5121,3.6234,3.6567,3.6439,3.5898,3.5441,3.4741,3.3375,3.2707,3.2451,0.0,0.0,3.4654,3.7468,3.8969,4.0376,4.2062,4.1806,4.1428,0.0,0.0,0.0,0.0,0.0,0.0,4.2889,0.0,4.5397,4.5502,4.6024,4.6301,4.6301,4.6301,4.5773,4.464,4.4676,4.5436,4.7017,4.9082,4.9027,4.7132,4.6593,4.5942,4.5207,4.5343,4.6099,4.7163,4.6548,4.633,4.6271,4.5603,4.5364,4.5484,4.6121,4.636,4.636,4.636,4.6749,4.7309,4.7309,4.7309,4.7309,4.7309,4.7309,4.7189,4.654,4.6809,4.716,4.651,4.6809,4.7309,4.7309,4.7309,4.7309,4.7309,4.7309,4.7309,4.7309,4.7309,4.7309,4.7309,4.7309,4.7309,4.7309,4.7309,4.7163,4.6716,4.6141,4.622,4.7454,4.7589,4.7966,4.8907,4.9018,4.9018,4.9018,4.9018,4.9018,4.9018,4.9018,4.9018,4.9018,4.9018,4.9018,4.9018,4.9018,4.9018,4.9018,4.9018,4.9018,3.4342,3.5201,3.5648,3.6392,3.6618,3.6178,3.4239,3.3311,3.2405,3.0936,2.8944,2.7986,0.0,0.0,0.0,3.6277,3.9104,0.0,4.3162,4.3586,0.0,4.1503,0.0,4.2333,4.1202,4.1731,0.0,0.0,4.3614,4.4195,4.5422,4.6024,4.6301,4.6301,4.6301,4.5974,4.5271,4.5479,4.5541,4.5555,4.7185,4.6509,4.3873,4.5119,4.4542,4.2665,4.4581,4.5598,4.5907,4.6197,4.66,4.698,4.63,4.6352,4.683,4.698,4.707,4.707,4.707,4.716,4.7309,4.7309,4.7309,4.7309,4.7309,4.7309,4.7279,4.71,4.7189,4.7279,4.71,4.7189,4.7309,4.7309,4.7309,4.7309,4.7309,4.7309,4.7309,4.7309,4.7309,4.7309,4.7309,4.7309,4.7309,4.7309,4.7309,4.7066,4.6499,4.6425,4.666,4.7248,4.7481,4.7966,4.8907,4.9018,4.9018,4.9018,4.9018,4.9018,4.9018,4.9018,4.9018,4.9018,4.9018,4.9018,4.9018,4.9018,4.9018,4.9018,4.9018,4.9018,3.5027,3.5781,3.6008,3.6132,3.5567,3.4429,3.233,3.1071,2.9796,2.7803,2.6176,2.5491,2.6628,2.8478,3.0881,0.0,0.0,0.0,4.2082,4.3037,4.3087,0.0,4.2936,0.0,4.2183,4.2836,4.3664,0.0,4.4016,4.4217,4.5451,4.6024,4.6301,4.6301,4.6075,4.5573,4.4744,4.5019,4.5262,4.5495,4.6401,4.595,4.429,4.5027,4.4604,4.3361,0.0,4.5711,4.6248,4.661,4.6958,4.7279,4.6869,4.6958,4.7309,4.7309,4.7309,4.7309,4.7309,4.7309,4.7309,4.7309,4.7309,4.7309,4.7309,4.7309,4.7309,4.7309,4.7309,4.7309,4.7309,4.7309,4.7309,4.7309,4.7309,4.7309,4.7309,4.7309,4.7309,4.7309,4.7309,4.7309,4.7309,4.7309,4.7309,4.7309,4.7309,4.716,4.6779,4.6342,4.6195,4.6498,4.6834,4.7373,4.8305,4.8767,4.9018,4.9018,4.9018,4.9018,4.9018,4.9323,4.9323,4.9018,4.9323,4.9323,4.9018,4.9018,4.9018,4.9018,4.9018,4.9018,3.52,3.5717,3.5821,3.5428,3.388,3.2031,3.0391,2.8867,2.7129,2.4805,2.4215,2.41,2.3991,2.6129,2.8831,3.1731,0.0,3.7866,4.0374,4.1658,4.2311,4.2386,4.3391,4.384,4.3391,4.374,4.4443,4.5451,4.4945,4.4865,4.5573,4.605,4.6276,4.62,4.5598,4.4769,4.3689,4.4034,4.4672,4.5635,4.612,4.6235,4.601,4.5762,4.5576,4.5389,0.0,0.0,4.7309,4.7309,4.7309,4.7309,4.7309,4.7309,4.7309,4.7309,4.7309,4.7309,4.7309,4.7309,4.7309,4.7309,4.7309,4.7309,4.7309,4.7309,4.7309,4.7309,4.7309,4.7309,4.7309,4.7309,4.7309,4.7309,4.7309,4.7339,4.7429,4.7429,4.7429,4.7309,4.7309,4.7309,4.7309,4.7309,4.7309,4.7309,4.7309,4.7309,4.7309,4.6202,4.5606,4.6102,4.6257,4.6771,4.7836,4.8596,4.9018,4.9018,4.9086,4.9154,4.9154,4.9778,4.983,4.9323,4.983,4.983,4.9289,4.9289,4.9289,4.9289,4.9187,4.9154,3.5098,3.4769,3.3875,3.3796,3.2193,3.0371,2.9375,2.7031,2.484,2.4062,2.334,2.2816,2.2794,2.4988,2.7981,3.1611,3.4216,3.7238,4.1349,4.2462,4.3039,0.0,4.4518,4.5171,4.51,4.5146,0.0,0.0,0.0,0.0,4.6125,4.625,4.61,4.5648,4.4618,4.379,4.3165,4.3772,4.3754,4.3082,4.5196,4.5448,4.4068,4.6061,4.6388,4.5457,0.0,0.0,4.7309,4.7309,4.7309,4.7309,4.7309,4.7309,4.7309,4.7309,4.7309,4.7309,4.7309,4.7309,4.7309,4.7309,4.7309,4.7309,4.7309,4.7309,4.7309,4.7309,4.7309,4.7309,4.7309,4.7309,4.7309,4.7309,4.7309,4.7459,4.7997,4.8139,4.7967,4.7429,4.7309,4.7309,4.7309,4.7309,4.7309,4.7309,4.7309,4.7309,4.7309,4.66,4.6772,4.8498,4.769,4.7742,4.9515,4.9245,4.9018,4.9018,4.956,4.9898,4.9898,5.0049,5.0338,5.0795,5.0338,5.0338,5.0829,5.0829,5.0829,5.0795,5.0202,4.9898,3.4163,3.4124,3.3652,3.3203,3.1465,2.95,2.7949,2.5781,2.3789,2.2654,2.2305,2.2187,2.2187,2.4334,2.6924,2.9263,3.197,3.5041,3.8667,4.0632,4.2108,4.3237,4.4869,4.5799,0.0,4.5497,0.0,0.0,0.0,0.0,4.5367,4.5417,4.5171,4.4618,4.4781,4.4454,4.3579,4.4358,4.4627,4.4387,4.5344,4.5677,4.5531,4.6726,4.6975,4.641,0.0,0.0,4.7309,4.7309,4.7309,4.7309,4.7309,4.7309,4.7309,4.7309,4.7309,4.7309,4.7309,4.7309,4.7309,4.7309,4.7309,4.7309,4.7309,4.7309,4.7309,4.7309,4.7309,4.7309,4.7309,4.7549,4.7728,4.7399,4.7309,4.7489,4.8169,4.8027,4.7668,4.7369,4.7309,4.7309,4.7309,4.7309,4.7309,4.7309,4.7309,4.7309,4.7309,4.7492,4.7845,4.8451,4.8542,4.8796,4.9343,4.9846,4.9999,4.9593,5.027,5.0676,5.0676,5.1048,5.1217,5.1201,5.1217,5.1217,5.1201,5.1201,5.1201,5.1201,5.0845,5.0676,3.2988,3.3398,3.3508,3.2715,3.0762,2.8535,2.668,2.4609,2.2734,2.1464,2.1426,2.1703,2.2026,2.3656,2.5591,2.7521,2.9715,3.2347,3.5779,3.8082,4.0202,4.2261,4.4128,0.0,4.5292,0.0,0.0,0.0,0.0,0.0,4.4213,4.4166,4.389,4.3463,4.4652,4.4809,4.3756,4.4907,4.5649,4.6045,4.5875,4.6322,4.7309,4.7309,4.7309,4.7309,0.0,0.0,0.0,4.7309,4.7309,4.7309,4.7309,4.7309,4.7309,4.7309,4.7309,4.7309,4.7309,4.7309,4.7309,4.7309,4.7309,4.7309,4.7309,4.7309,4.7309,4.7309,4.7309,4.7309,4.7309,4.7788,4.8199,4.7818,4.7818,4.7997,4.8259,4.8087,4.7848,4.7578,4.7519,4.7519,4.7519,4.7399,4.7309,4.7309,4.7309,4.7309,4.7309,4.8377,4.8948,4.8406,4.9369,4.9867,4.9508,5.0524,5.093,5.0371,5.1048,5.1438,5.1438,5.1995,5.2131,5.1708,5.2097,5.2097,5.1674,5.1674,5.1674,5.1674,5.1505,5.1438,3.1983,3.2335,3.2257,3.1758,2.9414,2.6992,2.5991,2.3242,2.0957,2.1171,2.0937,2.1114,2.2398,2.2413,2.3846,2.8784,2.8543,2.965,3.508,3.5912,3.7215,4.0607,0.0,0.0,4.4498,0.0,0.0,0.0,0.0,0.0,0.0,4.2688,4.2386,4.2336,4.3045,4.315,4.2544,4.4936,4.5901,4.5475,4.6602,4.7201,4.7309,4.7309,4.7309,4.7309,0.0,0.0,0.0,4.7309,4.7309,4.7309,4.7309,4.7309,4.7309,4.7309,4.7309,4.7309,4.7309,4.7309,4.7309,4.7309,4.7309,4.7309,4.7309,4.7309,4.7309,4.7309,4.7309,4.7309,4.7309,4.7788,4.8438,4.8977,4.9523,4.962,4.8536,4.9164,4.9591,4.8416,4.8229,4.8229,4.8229,4.7698,4.7309,4.7309,4.7309,4.7309,4.7309,4.9024,5.0211,5.0166,5.0481,5.1034,5.1915,5.1507,5.1167,5.11,5.1776,5.2198,5.2198,5.2266,5.2604,5.3281,5.2638,5.2638,5.3281,5.3281,5.3281,5.3281,5.2536,5.2198,3.0625,3.1191,3.126,3.0527,2.8281,2.5854,2.4512,2.2326,2.0586,2.043,2.0293,2.0525,2.1609,2.2109,2.3263,2.6001,2.6652,2.8192,3.2106,3.3123,3.5112,3.9619,4.049,0.0,0.0,0.0,0.0,0.0,0.0,0.0,0.0,4.143,4.2008,4.2784,4.3902,4.4554,4.4705,4.6524,4.7147,4.655,4.7062,4.7309,4.7309,4.7309,4.7309,4.7309,0.0,0.0,0.0,4.7309,4.7309,4.7309,4.7309,4.7309,4.7309,4.7309,4.7309,4.7309,4.7309,4.7309,4.7309,4.7309,4.7309,4.7309,4.7309,4.7309,4.7309,4.7309,4.7309,4.7309,4.7309,4.7788,4.8656,5.0092,5.0032,4.9613,4.9471,4.9553,4.9374,4.8498,4.8319,4.8147,4.7758,4.7489,4.7309,4.7309,4.7309,4.7516,4.8105,4.9476,5.0627,5.1229,5.1976,5.237,5.2301,5.2469,5.2401,5.1877,5.2604,5.301,5.301,5.301,5.3179,5.3484,5.3179,5.3179,5.3518,5.3518,5.3518,5.3484,5.3179,5.301,2.8594,2.9394,2.9774,2.9031,2.6875,2.4606,2.3303,2.1446,1.9941,1.9766,1.9727,2.0129,2.146,2.2149,2.3106,2.5043,2.5831,2.7099,2.9611,3.0759,3.2866,3.6865,0.0,0.0,0.0,0.0,0.0,0.0,0.0,0.0,0.0,4.0767,4.1801,4.2704,4.406,4.5133,4.5959,4.7318,4.7758,4.7309,4.7309,4.7309,4.7309,4.7309,4.7309,0.0,0.0,0.0,0.0,4.7309,4.7309,4.7309,4.7309,4.7309,4.7309,4.7309,4.7309,4.7309,4.7309,4.7309,4.7309,4.7309,4.7309,4.7309,4.7309,4.7309,4.7309,4.7309,4.7429,4.7638,4.7848,4.8356,4.9254,5.0817,5.0511,4.9912,5.0159,5.0032,4.9666,4.8985,4.8716,4.8468,4.7967,4.7549,4.7309,4.7309,4.7309,4.7658,4.8677,4.9734,5.0779,5.1795,5.287,5.3281,5.2706,5.3179,5.3281,5.2706,5.3179,5.3518,5.3518,5.3518,5.3518,5.3518,5.3518,5.3518,5.3518,5.3518,5.3518,5.3518,5.3518,5.3518,2.564,2.6719,2.7624,2.7148,2.5074,2.3003,2.2596,2.0488,1.8734,1.9199,1.9315,2.0032,2.2435,2.2388,2.3354,2.7403,2.6678,2.627,2.8166,2.9184,3.0252,0.0,0.0,0.0,0.0,0.0,0.0,0.0,0.0,0.0,0.0,0.0,4.1593,4.1617,4.2861,4.4144,4.5417,4.666,4.7309,4.7309,4.7309,4.7309,4.7309,4.7309,0.0,0.0,0.0,0.0,0.0,4.7309,4.7309,4.7309,4.7309,4.7309,4.7309,4.7309,4.7309,4.7309,4.7309,4.7309,4.7309,4.7309,4.7309,4.7309,4.7309,4.7309,4.7309,4.7309,4.7788,4.8438,4.9097,4.9733,5.0345,5.1026,5.1176,5.0996,5.0338,5.0727,5.0966,5.0315,4.9703,4.9299,4.9299,4.8199,4.7309,4.7309,4.7309,4.7658,4.8677,4.9734,5.0779,5.1795,5.287,5.3518,5.3484,5.3518,5.3518,5.3484,5.3518,5.3518,5.3518,5.3518,5.3518,5.3518,5.3518,5.3518,5.3518,5.3518,5.3518,5.3518,5.3518,5.3518,2.3714,2.4515,2.4945,2.4515,2.3105,2.16,2.0879,1.963,1.8637,1.8791,1.883,1.9242,2.06,2.1819,2.3385,2.574,2.6799,2.7801,0.0,0.0,0.0,3.3977,0.0,0.0,0.0,0.0,0.0,0.0,0.0,0.0,0.0,0.0,4.1327,4.2188,4.3454,4.4531,4.5301,4.619,4.66,4.6629,4.71,4.7309,4.7309,4.7309,0.0,0.0,0.0,0.0,0.0,4.7309,4.7309,4.7309,4.7309,4.7309,4.7309,4.7309,4.7309,4.7309,4.7309,4.7309,4.7309,4.7309,4.7309,4.7309,4.7309,4.7309,4.7399,4.7848,4.8139,4.8536,4.962,5.0069,5.0375,5.1026,5.1206,5.1146,5.0936,5.1056,5.0996,5.0338,5.0039,4.9793,4.9366,4.8558,4.7967,4.7967,4.7578,4.7934,4.9655,5.0184,5.1075,5.2818,5.3314,5.3518,5.3518,5.3518,5.3518,5.3518,5.3518,5.3518,5.3518,5.3518,5.3518,5.3518,5.3518,5.3518,5.3518,5.3518,5.3518,5.3518,5.3518,5.3518,2.1329,2.2032,2.2344,2.2443,2.1569,2.061,2.0248,1.9484,1.8863,1.8863,1.8725,1.8984,2.0237,2.1609,2.3246,2.5344,2.6877,2.8044,0.0,0.0,0.0,3.4863,0.0,0.0,0.0,0.0,0.0,0.0,0.0,0.0,0.0,0.0,4.1455,4.2424,4.3484,4.4443,4.5304,4.5723,4.5912,4.5912,4.66,4.6899,4.6929,0.0,0.0,0.0,0.0,0.0,0.0,4.7309,4.7309,4.7309,4.7309,4.7309,4.7309,4.7309,4.7309,4.7309,4.7309,4.7309,4.7309,4.7309,4.7309,4.7309,4.7309,4.7309,4.7429,4.8087,4.8498,4.8895,4.9949,5.0398,5.0697,5.1086,5.1206,5.1206,5.1206,5.1206,5.1086,5.0667,5.0375,5.0099,4.9703,4.8895,4.8319,4.8319,4.8067,4.848,5.0165,5.0722,5.1612,5.3314,5.3518,5.3518,5.3518,5.3518,5.3518,5.3518,5.3518,5.3518,5.3518,5.3518,5.3518,5.3518,5.3518,5.3518,5.3518,5.3518,5.3518,5.3518,5.3518,5.3518,0.0,1.9375,1.9864,2.0664,2.0259,1.9806,2.0264,1.9757,0.0,1.9189,1.892,1.9205,2.1018,2.1745,2.3012,2.5963,2.6924,0.0,0.0,2.981,0.0,0.0,0.0,0.0,0.0,0.0,0.0,0.0,0.0,0.0,0.0,0.0,0.0,4.2273,4.2998,4.3974,4.5155,4.5214,4.5214,4.5244,4.5912,4.6241,4.6241,0.0,0.0,0.0,0.0,0.0,0.0,4.7309,4.7309,4.7309,4.7309,4.7309,4.7309,4.7309,4.7309,4.7309,4.7309,4.7309,4.7309,4.7309,4.7309,4.7309,4.7309,4.7309,4.7459,4.8147,4.8828,4.9456,5.0099,5.0727,5.1206,5.1206,5.1206,5.1206,5.1206,5.1206,5.1206,5.1206,5.0697,5.0255,5.0255,4.9232,4.8438,4.8438,4.8612,4.9188,5.0306,5.1243,5.2241,5.3382,5.3518,5.3518,5.3518,5.3518,5.3518,5.3518,5.3518,5.3518,5.3518,5.3518,5.3518,5.3518,5.3518,5.3518,5.3518,5.3518,5.3518,5.3518,5.3518,5.3518,1.6637,0.0,1.7506,1.7701,1.7612,1.7578,0.0,1.7989,1.7932,1.8234,1.8762,1.9518,2.071,2.1801,2.329,2.5582,0.0,0.0,2.8412,0.0,0.0,0.0,0.0,0.0,0.0,0.0,0.0,0.0,0.0,0.0,0.0,0.0,0.0,4.1044,4.2523,4.3476,4.3788,4.4267,4.4556,4.4556,4.5214,4.5544,4.5574,0.0,0.0,0.0,0.0,0.0,4.7309,4.7309,4.7309,4.7309,4.7309,4.7309,4.7309,4.7309,4.7309,4.7309,4.7309,4.7309,4.7309,4.7309,4.7309,4.7309,4.7309,4.7309,4.7549,4.8738,4.9157,4.9546,5.0667,5.1086,5.1206,5.1206,5.1206,5.1206,5.1206,5.1206,5.1206,5.1206,5.1056,5.0966,5.0966,5.0278,4.974,4.974,4.8998,4.9059,5.0922,5.091,5.1465,5.3314,5.3518,5.3518,5.3518,5.3518,5.3518,5.3518,5.3518,5.3518,5.3518,5.3518,5.3518,5.3518,5.3518,5.3518,5.3518,5.3518,5.3518,5.3518,5.3518,5.3518,1.5718,1.6094,1.6523,1.6918,1.7177,1.7477,1.8124,1.7963,1.7841,1.8455,1.8796,1.9336,2.0494,2.16,2.3062,2.5349,2.6402,0.0,0.0,0.0,0.0,0.0,0.0,0.0,0.0,0.0,0.0,0.0,0.0,0.0,0.0,0.0,0.0,0.0,4.1911,4.2711,4.329,4.3668,4.3848,4.3848,4.4506,4.4855,4.4855,4.5544,0.0,0.0,0.0,0.0,4.7309,4.7309,4.7309,4.7309,4.7309,4.7309,4.7309,4.7309,4.7309,4.7309,4.7309,4.7309,4.7309,4.7309,4.7309,4.7309,4.7309,4.7519,4.7967,4.9007,4.9277,4.9576,5.087,5.1206,5.1206,5.1206,5.1206,5.1206,5.1206,5.1206,5.1116,5.0817,5.0996,5.0996,5.0421,5.0249,5.0129,4.9853,4.9581,4.9726,5.0544,5.0799,5.1356,5.2626,5.2783,5.299,5.3484,5.3518,5.3518,5.3518,5.3518,5.3518,5.3518,5.3518,5.3518,5.3518,5.3518,5.3518,5.3518,5.3518,5.3518,5.3518,5.3518,5.3263,1.5396,1.5737,1.6261,1.693,1.7405,1.7905,1.8644,1.8244,1.7947,1.8753,1.8843,1.9152,2.0277,2.1439,0.0,0.0,0.0,0.0,0.0,0.0,0.0,0.0,0.0,0.0,0.0,0.0,0.0,0.0,0.0,0.0,0.0,0.0,0.0,0.0,4.1343,4.1923,4.301,4.301,4.301,4.304,4.3688,4.4018,4.4047,4.4796,0.0,0.0,0.0,0.0,4.716,4.716,4.7219,4.7309,4.7309,4.7309,4.7309,4.7309,4.7309,4.7309,4.7309,4.7309,4.7309,4.7309,4.7309,4.7309,4.7309,4.7698,4.8319,4.9067,4.9366,4.9726,5.0877,5.1206,5.1206,5.1206,5.1206,5.1206,5.1206,5.1206,5.1026,5.0458,5.0817,5.0817,4.9636,4.9883,5.0009,4.9396,4.9948,5.0281,4.9863,5.0499,5.1212,5.1842,5.1903,5.233,5.3399,5.3518,5.3551,5.3653,5.3551,5.3518,5.3518,5.3518,5.3518,5.3518,5.3518,5.3518,5.3518,5.3518,5.3518,5.3518,5.3518,5.2922,1.5396,1.5737,1.6046,1.5781,1.6043,1.6435,1.6574,1.6495,1.6539,1.7007,1.8496,1.9765,1.9972,2.2027,2.4088,0.0,0.0,0.0,0.0,0.0,0.0,0.0,0.0,0.0,0.0,0.0,0.0,0.0,0.0,0.0,0.0,0.0,0.0,0.0,0.0,4.1493,4.1703,4.1703,4.1703,4.1703,4.2361,4.271,4.272,4.3898,4.4506,0.0,0.0,4.5843,4.645,4.645,4.6779,4.7309,4.7309,4.7309,4.7309,4.7309,4.7309,4.7309,4.7309,4.7309,4.7309,4.7309,4.7309,4.7309,4.7309,4.7369,4.7698,4.8947,4.9673,5.0249,5.0996,5.1206,5.1206,5.1206,5.1206,5.1206,5.1206,5.1206,5.1176,5.1056,5.1116,5.0966,5.0189,5.0159,5.0009,4.9396,4.8953,4.894,4.9696,4.944,4.9888,5.1722,5.1903,5.233,5.3399,5.3518,5.3788,5.4397,5.3856,5.3518,5.3518,5.3518,5.3518,5.3518,5.3518,5.3518,5.3518,5.3518,5.3518,5.3518,5.3518,5.2922,1.5396,1.5737,1.5987,1.5527,1.5757,1.6085,1.6085,1.5894,1.6092,1.7441,1.8711,1.9871,2.0819,0.0,2.5067,2.705,0.0,0.0,0.0,0.0,0.0,0.0,0.0,0.0,0.0,0.0,0.0,0.0,0.0,0.0,0.0,0.0,0.0,0.0,0.0,3.9787,3.9787,3.9787,4.0325,4.1403,4.1703,4.1852,4.1882,4.284,4.3449,4.3818,0.0,4.5155,4.5813,4.6151,4.648,4.6779,4.716,4.7309,4.7309,4.7309,4.7309,4.7309,4.7309,4.7309,4.7309,4.7309,4.7309,4.7309,4.7309,4.7549,4.8027,4.9007,4.9516,4.9942,5.0936,5.1206,5.1206,5.1206,5.1206,5.1206,5.1206,5.1206,5.1086,5.0727,5.0936,5.0936,5.0095,5.0118,5.0065,4.9644,4.9167,4.8878,4.8988,4.8718,4.8984,5.0087,5.076,5.1521,5.2557,5.3161,5.3653,5.3991,5.4059,5.3923,5.3518,5.3518,5.3518,5.3518,5.3518,5.3196,5.2627,5.3213,5.3196,5.2645,5.3213,5.261,1.5396,1.5644,1.5816,1.5371,1.5679,1.6124,1.6222,1.6227,1.6729,1.8469,1.9512,2.0479,2.1546,2.3519,0.0,2.8304,0.0,0.0,0.0,0.0,0.0,0.0,0.0,0.0,0.0,0.0,0.0,0.0,0.0,0.0,0.0,0.0,0.0,0.0,3.817,3.8242,3.8409,3.8409,3.923,4.0935,4.1104,4.1164,4.1194,4.2021,4.2661,4.313,4.3788,4.4446,4.5095,4.5613,4.6031,4.636,4.689,4.716,4.7309,4.7309,4.7309,4.7309,4.7309,4.7309,4.7309,4.7309,4.7309,4.7309,4.7309,4.7668,4.8259,4.9067,4.9277,4.9576,5.087,5.1206,5.1206,5.1206,5.1206,5.1206,5.1206,5.1206,5.1056,5.0548,5.1049,5.1228,5.0082,5.0147,5.0221,4.9736,4.9199,4.8708,4.8349,4.8147,4.8253,4.8759,4.9693,5.0736,5.1904,5.3383,5.4091,5.3632,5.4243,5.4262,5.3551,5.3518,5.3518,5.3518,5.323,5.2715,5.1903,5.2487,5.2363,5.1561,5.2627,5.2008,1.5396,1.5415,1.5352,1.4955,1.5478,1.6202,1.6566,1.7738,1.8865,1.9337,2.1135,2.2368,2.1412,2.3591,2.6113,2.7871,0.0,0.0,0.0,0.0,0.0,0.0,0.0,0.0,0.0,0.0,0.0,0.0,0.0,0.0,0.0,0.0,0.0,0.0,0.0,3.7764,3.8392,3.8409,3.8781,3.9541,4.0187,4.0457,4.0516,4.1792,4.241,4.25,4.31,4.3758,4.4356,4.4416,4.5164,4.63,4.636,4.6749,4.7309,4.7309,4.7309,4.7309,4.7309,4.7309,4.7309,4.7309,4.7309,4.7309,4.7309,4.7339,4.7638,4.8947,4.9277,4.9576,5.087,5.1206,5.1206,5.1206,5.1206,5.1206,5.1206,5.1206,5.1176,5.1146,5.2033,5.2217,5.0456,5.0537,5.0509,4.9478,4.8273,4.7638,4.8229,4.7758,4.7739,4.8697,4.944,5.0485,5.2121,5.4914,5.5797,5.4062,5.4381,5.4262,5.3551,5.3518,5.3518,5.3518,5.254,5.1975,5.1903,5.1024,5.057,5.0531,5.1525,5.0879,1.5396,1.5396,1.5357,1.5215,1.564,1.6144,1.6285,1.7388,1.8573,1.9234,2.1246,2.3329,2.4713,0.0,2.6809,0.0,0.0,0.0,0.0,0.0,0.0,0.0,0.0,0.0,0.0,0.0,0.0,0.0,0.0,0.0,0.0,0.0,0.0,0.0,0.0,3.6956,3.7212,3.7584,3.7913,3.8165,3.9242,3.978,3.981,4.1164,4.1762,4.1822,4.2861,4.3439,4.3728,4.4117,4.4596,4.5134,4.5971,4.6719,4.7309,4.7309,4.7309,4.7309,4.7309,4.7309,4.7309,4.7309,4.7309,4.7309,4.7309,4.7309,4.7578,4.8917,4.9277,4.9576,5.087,5.1206,5.1206,5.1206,5.1206,5.1206,5.1206,5.1206,5.1206,5.1206,5.2132,5.2594,5.167,5.2115,5.2007,5.0256,4.9727,4.9078,4.7837,4.7818,4.7902,4.7858,4.9023,5.0764,5.3149,5.4816,5.5558,5.5113,5.5201,5.4972,5.4194,5.3754,5.3179,5.2522,5.2765,5.1921,4.9958,5.0892,5.1005,5.0416,5.1414,5.1155,1.5143,1.5215,1.5215,1.5215,1.5742,1.6363,1.6637,1.7959,1.9373,2.0216,2.1914,2.4032,2.6596,0.0,0.0,0.0,0.0,0.0,0.0,0.0,0.0,0.0,0.0,0.0,0.0,0.0,0.0,0.0,0.0,0.0,0.0,0.0,0.0,0.0,0.0,0.0,3.6493,3.6896,3.7225,3.7417,3.8315,3.8883,3.914,4.0457,4.1194,4.1463,4.2551,4.313,4.3319,4.3818,4.4117,4.4416,4.5523,4.639,4.6958,4.6958,4.713,4.7309,4.7309,4.7309,4.7309,4.7309,4.7309,4.7309,4.7309,4.7309,4.7549,4.8678,4.9127,4.9546,5.0607,5.1026,5.1206,5.1206,5.1206,5.1206,5.1206,5.1206,5.1206,5.1206,5.2418,5.3234,5.2597,5.3095,5.3036,5.1421,5.0756,4.9865,4.8385,4.8446,4.8438,4.7967,4.9463,5.1132,5.2862,5.4515,5.5383,5.5167,5.5742,5.5716,5.4972,5.4025,5.3125,5.2269,5.2727,5.1776,4.9316,5.0741,5.1061,5.0416,5.1414,5.1359,1.4589,1.4799,1.4799,1.4819,1.5747,1.6921,1.7796,1.9856,2.1784,2.2561,2.3408,2.4513,2.621,2.6524,0.0,0.0,0.0,0.0,0.0,0.0,0.0,0.0,0.0,0.0,0.0,0.0,0.0,0.0,0.0,0.0,0.0,0.0,0.0,0.0,0.0,0.0,3.6477,3.6477,3.6776,3.7375,3.7387,3.7764,3.8469,3.9768,4.0756,4.1433,4.2111,4.275,4.329,4.329,4.3698,4.4377,4.5035,4.5693,4.63,4.63,4.6719,4.7309,4.7309,4.7309,4.7309,4.7309,4.7309,4.7309,4.7309,4.7309,4.7429,4.8087,4.8768,4.9426,5.0039,5.0697,5.1176,5.1206,5.1206,5.1206,5.1206,5.1206,5.1206,5.1206,5.3033,5.4232,5.3099,5.3302,5.3458,5.2953,5.0847,4.9546,5.0129,4.9673,4.9299,4.9299,5.0852,5.1599,5.0896,5.4112,5.5578,5.411,5.5752,5.6461,5.5733,5.4296,5.336,5.2998,5.2284,5.1414,5.0397,5.0397,5.0397,5.0435,5.1433,5.1359,1.4617,1.4799,1.4936,1.5557,1.6211,1.6999,1.8149,1.9215,2.071,2.3278,2.4374,2.5412,2.7283,0.0,0.0,0.0,0.0,0.0,0.0,0.0,0.0,0.0,0.0,0.0,0.0,0.0,0.0,0.0,0.0,0.0,0.0,0.0,0.0,0.0,0.0,0.0,3.4721,3.5222,3.5663,3.6088,3.6969,3.7764,3.8422,3.932,4.0068,4.0756,4.1882,4.25,4.269,4.313,4.3698,4.4326,4.4506,4.5284,4.63,4.63,4.6719,4.7309,4.7309,4.7309,4.7309,4.7309,4.7309,4.7309,4.7309,4.7309,4.7429,4.8087,4.8438,4.8768,4.9396,4.9726,5.0092,5.0966,5.1206,5.1206,5.1206,5.1206,5.1206,5.1206,5.2395,5.314,5.2259,5.3354,5.366,5.1697,5.1665,5.13,4.9757,4.9007,4.8868,4.9589,5.0096,5.1121,5.2921,5.4044,5.4806,5.5152,5.5221,5.5141,5.4938,5.4499,5.3628,5.2236,5.2745,5.2152,5.0397,5.1099,5.1451,5.1451,5.1776,5.2021,1.4001,1.4394,1.4727,1.5601,1.6406,1.7308,1.8576,1.9803,2.1454,2.423,2.4932,2.5594,2.7433,0.0,0.0,0.0,0.0,0.0,0.0,0.0,0.0,0.0,0.0,0.0,0.0,0.0,0.0,0.0,0.0,0.0,0.0,0.0,0.0,0.0,0.0,0.0,3.3979,3.4387,3.4906,3.5519,3.6281,3.7015,3.7691,3.8601,3.9529,4.0457,4.1523,4.2141,4.244,4.2791,4.3309,4.3908,4.3908,4.4566,4.5493,4.5493,4.6091,4.6899,4.6899,4.71,4.7309,4.7309,4.7309,4.7309,4.7309,4.7309,4.7399,4.7788,4.8087,4.8409,4.8798,4.9097,4.9486,5.0242,5.0607,5.0817,5.0817,5.0996,5.1206,5.1206,5.2132,5.2754,5.2308,5.297,5.3101,5.184,5.1739,5.1234,4.9539,4.8947,4.8824,4.9164,4.9816,5.0858,5.2421,5.3437,5.4254,5.4801,5.4972,5.4769,5.4194,5.416,5.3595,5.2368,5.3107,5.2645,5.1005,5.2044,5.254,5.254,5.254,5.2924,1.3137,1.3841,1.4367,1.5254,1.6523,1.7907,1.9139,2.1091,2.3151,2.4977,0.0,2.5308,2.6866,0.0,0.0,0.0,0.0,0.0,0.0,0.0,0.0,0.0,0.0,0.0,0.0,0.0,0.0,0.0,0.0,0.0,0.0,0.0,0.0,0.0,0.0,0.0,3.3739,3.3739,3.4279,0.0,3.5359,3.5766,3.6553,3.7691,3.899,4.0337,4.1014,4.1703,4.241,4.241,4.278,4.329,4.329,4.3728,4.4296,4.4296,4.5134,4.63,4.63,4.6719,4.7309,4.7309,4.7309,4.7309,4.7309,4.7309,4.7309,4.7309,4.7728,4.8229,4.8229,4.8648,4.9097,4.9097,4.9643,5.0129,5.0196,5.0637,5.1026,5.1086,5.1888,5.2591,5.263,5.2096,5.1849,5.2467,5.116,4.989,4.9277,4.9187,4.8992,4.8421,4.9806,5.0683,5.0563,5.266,5.3814,5.3518,5.4683,5.4801,5.3534,5.3551,5.3428,5.306,5.3326,5.3041,5.2047,5.3008,5.3518,5.3518,5.3518,5.3923,1.3573,1.4303,1.4858,1.5733,1.7438,1.9139,2.0097,2.1275,2.2407,2.3294,2.4352,2.5324,0.0,0.0,0.0,0.0,0.0,0.0,0.0,0.0,0.0,0.0,0.0,0.0,0.0,0.0,0.0,0.0,0.0,0.0,0.0,0.0,0.0,0.0,0.0,3.0639,3.1792,3.181,3.2646,0.0,3.4312,3.5096,3.6523,3.6793,3.7913,3.966,4.0337,4.1283,4.241,4.241,4.278,4.329,4.329,4.3728,4.4296,4.4296,4.5134,4.63,4.63,4.6719,4.7309,4.7309,4.7309,4.7309,4.7309,4.7309,4.7309,4.7309,4.7399,4.7519,4.7519,4.7608,4.7728,4.7728,4.8626,4.9613,5.0099,4.9942,4.9853,5.0338,5.0208,5.0231,5.0721,5.0291,4.9921,5.0042,4.9734,4.9247,4.8588,4.8528,4.8558,4.8674,4.9792,5.0775,5.1502,5.2839,5.3567,5.3501,5.2998,5.2961,5.3484,5.4059,5.4075,5.3397,5.345,5.3382,5.3161,5.3382,5.3518,5.3518,5.3518,5.4228,1.2994,1.3846,1.4771,1.6055,1.7695,1.9141,1.9823,2.0373,2.0983,2.1984,2.3353,0.0,0.0,0.0,0.0,0.0,0.0,0.0,0.0,0.0,0.0,0.0,0.0,0.0,0.0,0.0,0.0,0.0,0.0,0.0,0.0,0.0,0.0,0.0,2.9252,2.9845,3.0816,3.1053,3.1938,3.3342,3.3342,3.4014,3.5352,3.6441,3.7674,3.8931,3.929,4.0206,4.1433,4.1433,4.2002,4.288,4.288,4.325,4.3818,4.3818,4.4476,4.5373,4.5702,4.6241,4.6869,4.7219,4.7309,4.7309,4.7309,4.7309,4.7309,4.7309,4.7309,4.7309,4.7309,4.7309,4.7309,4.7309,4.8079,4.8917,4.9224,4.9307,4.9396,4.9703,4.9516,4.9396,4.9703,4.9516,4.9067,4.8438,4.8618,4.8588,4.7908,4.7818,4.7886,4.8061,4.9024,4.9852,5.0365,5.141,5.2008,5.2008,5.1502,5.1649,5.268,5.31,5.3376,5.3501,5.3518,5.3518,5.3518,5.3518,5.3518,5.3518,5.3518,5.4279,1.2583,1.3461,1.4601,1.6215,1.7428,1.8403,1.8945,1.9121,1.9553,2.0877,0.0,0.0,0.0,0.0,0.0,0.0,0.0,0.0,0.0,0.0,0.0,0.0,0.0,0.0,0.0,0.0,0.0,0.0,0.0,0.0,0.0,0.0,2.7996,2.8097,2.853,2.9166,2.9982,3.0532,3.1293,3.2224,3.2494,3.3087,3.4041,3.5932,3.725,3.808,3.8302,3.9098,4.0247,4.0337,4.1194,4.241,4.241,4.2761,4.329,4.329,4.3818,4.4556,4.5095,4.5813,4.657,4.713,4.7309,4.7309,4.7309,4.7309,4.7309,4.7309,4.7309,4.7309,4.7309,4.7309,4.7309,4.7309,4.7728,4.8147,4.8289,4.8648,4.8977,4.9097,4.9127,4.9097,4.8977,4.9037,4.8708,4.7489,4.7758,4.7908,4.7369,4.7309,4.7309,4.7309,4.8189,4.882,4.882,4.9773,5.0397,5.0397,5.0223,5.0665,5.1867,5.174,5.2223,5.3501,5.3518,5.3518,5.3518,5.3518,5.3518,5.3518,5.3518,5.4279,1.4002,1.4579,1.4955,1.5913,1.6582,1.7155,1.7991,1.844,1.8963,0.0,0.0,0.0,0.0,0.0,0.0,0.0,0.0,0.0,0.0,0.0,0.0,0.0,0.0,0.0,0.0,0.0,0.0,0.0,0.0,0.0,0.0,2.716,2.762,2.8097,2.8172,2.8277,2.8398,2.8936,2.9711,3.0716,3.1999,3.3087,3.4024,3.4334,3.5292,3.6823,3.793,3.8841,3.9571,4.0157,4.1194,4.241,4.241,4.2761,4.329,4.329,4.4087,4.5185,4.5274,4.6112,4.7189,4.7279,4.7309,4.7309,4.7309,4.7309,4.7309,4.7309,4.7309,4.7309,4.7309,4.7309,4.7309,4.7309,4.7369,4.7578,4.8147,4.7908,4.7728,4.8319,4.8438,4.8259,4.7668,4.8027,4.8199,4.7429,4.7369,4.7399,4.7309,4.7309,4.7309,4.7309,4.8189,4.882,4.882,4.9773,5.0397,5.0397,4.9536,4.9879,5.1831,5.1061,5.1521,5.345,5.3518,5.3518,5.3518,5.3518,5.3518,5.3518,5.3518,5.4279,1.3335,1.4059,1.4557,1.521,1.5664,1.6215,1.7074,1.7601,1.8088,0.0,0.0,0.0,0.0,0.0,0.0,0.0,0.0,0.0,0.0,0.0,0.0,0.0,0.0,0.0,0.0,0.0,0.0,0.0,0.0,0.0,2.5536,2.5762,2.6163,2.6691,2.7035,2.7361,2.7645,2.848,2.9283,3.0085,3.1246,3.2307,3.3209,3.3756,3.491,3.6523,3.7092,3.7913,3.8871,3.917,4.0086,4.1313,4.1673,4.2241,4.2851,4.319,4.3668,4.4296,4.5035,4.5693,4.6292,4.707,4.7309,4.7309,4.7309,4.7309,4.7309,4.7309,4.7309,4.7309,4.7309,4.7309,4.7309,4.7309,4.7309,4.7369,4.7668,4.7519,4.7399,4.7668,4.7728,4.7638,4.7369,4.7549,4.7638,4.7339,4.7309,4.7309,4.7309,4.7309,4.7309,4.7309,4.77,4.7946,4.7946,4.8377,4.8666,4.8666,4.8738,4.9496,5.1005,5.1173,5.1972,5.345,5.3518,5.3518,5.3518,5.3518,5.3518,5.3518,5.3518,5.4279,1.2772,1.3517,1.4192,1.4531,1.4766,1.5161,1.6141,0.0,1.707,0.0,0.0,0.0,0.0,0.0,0.0,0.0,0.0,0.0,0.0,0.0,0.0,0.0,0.0,0.0,0.0,0.0,0.0,0.0,0.0,0.0,2.4591,2.4867,2.5184,2.5586,2.6197,2.6751,2.7286,2.8355,2.9208,2.9824,3.0514,3.1444,3.2611,3.3325,3.4591,3.6254,3.6434,3.7032,3.793,3.829,3.908,4.0217,4.0876,4.1643,4.244,4.291,4.328,4.3698,4.4706,4.5155,4.5484,4.6681,4.707,4.71,4.7249,4.7309,4.7309,4.7309,4.7309,4.7309,4.7309,4.7309,4.7309,4.7309,4.7309,4.7309,4.7309,4.7309,4.7309,4.7309,4.7309,4.7309,4.7309,4.7309,4.7309,4.7309,4.7309,4.7309,4.7309,4.7309,4.7309,4.7309,4.7309,4.7309,4.7309,4.7538,4.7581,4.7331,4.8501,4.9575,5.0358,5.1359,5.2383,5.3501,5.3518,5.3518,5.3518,5.3518,5.3518,5.3518,5.3518,5.4279,1.3204,1.3584,1.4114,1.4133,1.3874,1.3926,0.0,0.0,0.0,0.0,0.0,0.0,0.0,0.0,0.0,0.0,0.0,0.0,0.0,0.0,0.0,0.0,0.0,0.0,0.0,0.0,0.0,0.0,0.0,0.0,2.4029,2.5008,2.5561,2.5586,2.6197,2.6751,2.7286,2.8355,2.9208,2.9804,2.9837,3.0827,3.2593,3.2646,3.3716,3.5579,3.6207,3.6553,3.6703,3.7901,3.8811,3.9511,4.0187,4.1254,4.241,4.244,4.3229,4.4267,4.4326,4.4766,4.5424,4.6121,4.636,4.648,4.713,4.7309,4.7309,4.7309,4.7309,4.7309,4.7309,4.7309,4.7309,4.7309,4.7309,4.7309,4.7309,4.7309,4.7309,4.7309,4.7309,4.7309,4.7309,4.7309,4.7309,4.7309,4.7309,4.7309,4.7309,4.7309,4.7309,4.7309,4.7309,4.7309,4.7309,4.8168,4.8314,4.7374,4.9206,5.0339,5.0397,5.1359,5.2383,5.3501,5.3518,5.3518,5.3518,5.3518,5.3518,5.3518,5.3518,5.4279,1.1374,1.1984,1.269,1.269,1.2901,1.3304,1.4076,1.484,0.0,0.0,0.0,0.0,0.0,0.0,0.0,0.0,0.0,0.0,0.0,0.0,0.0,0.0,0.0,0.0,0.0,0.0,0.0,0.0,0.0,0.0,2.3421,2.4139,2.4732,2.5067,2.6005,2.7085,2.8304,2.8355,2.8875,2.9804,2.9804,3.0771,3.2593,3.2593,3.3665,3.5519,3.5759,3.6088,3.6583,3.7404,3.8153,3.8871,3.9978,4.0954,4.1792,4.2231,4.293,4.3728,4.4147,4.4446,4.4766,4.5454,4.5942,4.636,4.66,4.6958,4.7309,4.7309,4.7309,4.7309,4.7309,4.7309,4.7309,4.7309,4.7309,4.7309,4.7309,4.7309,4.7309,4.7309,4.7309,4.7309,4.7309,4.7309,4.7309,4.7309,4.7309,4.7309,4.7309,4.7309,4.7309,4.7309,4.7309,4.7309,4.7309,4.7645,4.7679,4.7331,4.9247,5.0397,5.0397,5.2026,5.311,5.3501,5.3518,5.3518,5.3518,5.3518,5.3754,5.4194,5.4194,5.5006,1.0549,1.1264,1.2056,1.2056,1.2491,1.2971,1.3281,0.0,0.0,0.0,0.0,0.0,0.0,0.0,0.0,0.0,0.0,0.0,0.0,0.0,0.0,0.0,0.0,0.0,0.0,0.0,0.0,0.0,0.0,0.0,2.3396,2.413,2.4782,2.536,2.6281,2.7361,2.8631,2.8455,2.9018,3.0273,3.0273,3.1249,3.3052,3.3052,3.3956,3.5519,3.5519,3.5759,3.6237,3.7075,3.7674,3.8182,3.9559,4.0606,4.1433,4.1643,4.2402,4.3319,4.3599,4.3808,4.4057,4.4766,4.5424,4.6001,4.6241,4.6749,4.7309,4.7309,4.7309,4.7309,4.7309,4.7309,4.7309,4.7309,4.7309,4.7309,4.7309,4.7309,4.7309,4.7309,4.7309,4.7309,4.7309,4.7309,4.7309,4.7309,4.7309,4.7309,4.7309,4.7309,4.7309,4.7309,4.7309,4.7309,4.7309,4.7955,4.8198,4.7828,5.0087,5.128,5.0911,5.2575,5.3518,5.3518,5.3518,5.3518,5.3518,5.3518,5.389,5.4617,5.4617,5.5378,0.0,0.0,0.0,1.2334,0.0,0.0,1.2877,0.0,0.0,0.0,0.0,0.0,0.0,0.0,0.0,0.0,0.0,0.0,0.0,0.0,0.0,0.0,0.0,0.0,0.0,0.0,0.0,0.0,0.0,2.4004,2.4004,2.5008,2.5879,2.6499,2.701,2.7562,2.8122,2.8605,2.9641,3.1148,3.1167,3.2164,3.3945,3.3979,3.4543,3.5519,3.5519,3.5519,3.5609,3.6879,3.7387,3.7507,3.8883,4.0217,4.1283,4.0666,4.1634,4.319,4.2631,4.2791,4.3409,4.4057,4.4736,4.5394,4.6061,4.6719,4.7279,4.7309,4.7309,4.7309,4.7309,4.7309,4.7309,4.7309,4.7309,4.7309,4.7309,4.7309,4.7309,4.7309,4.7309,4.7309,4.7309,4.7309,4.7309,4.7309,4.7309,4.7309,4.7309,4.7309,4.7309,4.7309,4.7309,4.7309,4.7352,4.9186,4.9911,4.8891,5.174,5.3007,5.1939,5.2922,5.3518,5.3518,5.3518,5.3518,5.3518,5.3518,5.3923,5.4651,5.4668,5.5446,1.0048,0.0,0.0,0.0,0.0,0.0,0.0,0.0,0.0,0.0,0.0,0.0,0.0,0.0,0.0,0.0,0.0,0.0,0.0,0.0,0.0,0.0,0.0,0.0,0.0,0.0,0.0,0.0,2.3204,2.4004,2.4004,2.5008,2.6038,2.7035,2.6851,2.7361,2.8681,2.8072,2.8571,3.0196,3.0466,3.1442,3.2999,3.3688,3.4543,3.5519,3.5519,3.5519,3.5609,3.6879,3.7387,3.7507,3.8883,3.99,4.0696,4.1014,4.1762,4.269,4.297,4.316,4.3319,4.3519,4.4027,4.4706,4.5364,4.6031,4.6659,4.716,4.7309,4.7309,4.7309,4.7309,4.7309,4.7309,4.7309,4.7309,4.7309,4.7309,4.7309,4.7309,4.7309,4.7309,4.7309,4.7309,4.7309,4.7309,4.7309,4.7309,4.7309,4.7309,4.7309,4.7309,4.7309,4.7602,4.8314,4.8922,4.9456,4.9931,5.1465,5.2223,5.1921,5.2922,5.3518,5.3518,5.3518,5.3518,5.3518,5.4025,5.4668,5.5428,5.6494,5.7223,0.0,0.0,0.0,0.0,0.0,0.0,1.22,1.3337,0.0,0.0,0.0,0.0,0.0,0.0,0.0,0.0,0.0,0.0,0.0,0.0,0.0,0.0,0.0,0.0,0.0,0.0,0.0,0.0,2.3016,2.4205,2.4632,2.5502,2.6281,2.6952,2.665,2.716,2.8555,2.7946,2.8568,3.04,3.1015,3.1989,3.3209,3.4177,3.4938,3.5519,3.5519,3.5519,3.5609,3.6879,3.7387,3.7507,3.8883,3.981,4.0457,4.0816,4.1583,4.244,4.2791,4.31,4.329,4.329,4.3758,4.4356,4.4766,4.5574,4.639,4.6779,4.7078,4.7309,4.7309,4.7309,4.7309,4.7309,4.7309,4.7309,4.7309,4.7309,4.7309,4.7309,4.7309,4.7309,4.7309,4.7309,4.7309,4.7309,4.7309,4.7309,4.7309,4.7309,4.7189,4.6899,4.7214,4.7586,4.7903,4.8965,4.9879,5.0533,5.181,5.2575,5.2575,5.3161,5.3518,5.3518,5.3518,5.3653,5.3957,5.4093,5.4668,5.5733,5.7205,5.79,0.0,0.0,0.0,0.0,0.0,0.0,1.201,1.3094,1.4133,0.0,0.0,0.0,0.0,0.0,0.0,0.0,0.0,0.0,0.0,0.0,0.0,0.0,0.0,0.0,0.0,0.0,1.9734,2.0667,2.2821,2.4531,2.5536,2.6155,2.6499,2.6499,2.6499,2.7027,2.8097,2.8047,2.9036,3.1063,3.2037,3.2979,3.3876,3.5001,3.5519,3.5519,3.5519,3.5519,3.5609,3.6879,3.7387,3.7507,3.8883,3.975,4.0307,4.0457,4.1283,4.2321,4.247,4.2851,4.329,4.329,4.3698,4.4207,4.4267,4.5134,4.6121,4.6271,4.6779,4.7309,4.7309,4.7309,4.7309,4.7309,4.7309,4.7309,4.7309,4.7309,4.7309,4.7309,4.7309,4.7309,4.7309,4.7309,4.7309,4.7309,4.7309,4.7309,4.7309,4.7249,4.6958,4.636,4.7058,4.7406,4.6924,4.9282,5.0869,5.0975,5.2554,5.3518,5.3518,5.3518,5.3518,5.3518,5.3518,5.3822,5.4482,5.389,5.4397,5.5834,5.7171,5.7832,0.0,0.0,0.0,0.0,0.0,0.0,1.2797,1.3993,1.5025,0.0,0.0,0.0,0.0,0.0,0.0,0.0,0.0,0.0,0.0,0.0,0.0,0.0,0.0,0.0,0.0,0.0,2.0304,2.1549,2.3503,2.4917,2.5561,2.6155,2.6499,2.6499,2.6499,2.7027,2.8097,2.767,2.8332,3.0081,3.1343,3.2281,3.2929,3.4706,3.5519,3.5519,3.5519,3.5519,3.5609,3.6879,3.7387,3.7507,3.8883,3.9481,3.972,4.0816,4.1373,4.1733,4.2771,4.322,4.329,4.329,4.3379,4.3609,4.4147,4.4476,4.4925,4.6001,4.6779,4.7309,4.7309,4.7309,4.7309,4.7309,4.7309,4.7309,4.7309,4.7309,4.7309,4.7309,4.7309,4.7309,4.7309,4.7309,4.7309,4.7309,4.7309,4.7309,4.7309,4.6809,4.645,4.63,4.6651,4.7193,4.7913,4.9715,5.1149,5.1967,5.2943,5.3518,5.3518,5.3518,5.3518,5.3518,5.3518,5.3585,5.3721,5.416,5.5141,5.6596,5.6867,5.734,0.0,0.0,0.0,1.1134,0.0,0.0,0.0,1.423,1.498,0.0,0.0,0.0,0.0,0.0,0.0,0.0,0.0,0.0,0.0,0.0,0.0,0.0,0.0,0.0,0.0,0.0,2.0627,2.2378,2.3943,2.4917,2.5184,2.603,2.6499,2.6499,2.6751,2.7286,2.8097,2.8097,2.8909,3.0507,3.1658,3.2598,3.3359,3.4822,3.5519,3.5519,3.5519,3.5519,3.5609,3.6879,3.7387,3.7507,3.8883,3.9391,3.9511,4.0516,4.1104,4.1553,4.2491,4.304,4.329,4.329,4.329,4.3349,4.3698,4.4027,4.4566,4.5912,4.654,4.6869,4.7219,4.7309,4.7309,4.7309,4.7309,4.7309,4.7309,4.7309,4.7309,4.7309,4.7309,4.7309,4.7309,4.7309,4.7309,4.7309,4.7309,4.7189,4.6839,4.651,4.6031,4.5373,4.6301,4.7182,4.7755,4.9774,5.138,5.2233,5.3078,5.3518,5.3518,5.3518,5.3518,5.3518,5.3518,5.3518,5.3518,5.3856,5.4803,5.624,5.663,5.7205,0.0,0.0,0.0,0.0,0.0,1.331,0.0,0.0,0.0,1.466,0.0,0.0,0.0,0.0,0.0,0.0,0.0,0.0,0.0,0.0,0.0,0.0,0.0,0.0,0.0,0.0,2.1234,2.298,2.4164,2.4816,2.4816,2.5879,2.6549,2.665,2.706,2.7613,2.8247,2.8681,2.9573,3.0932,3.2083,3.2982,3.3774,3.4968,3.5519,3.5519,3.5519,3.5519,3.5609,3.6746,3.7315,3.7507,3.8883,3.9391,3.9481,4.0157,4.0726,4.1313,4.1972,4.2541,4.2951,4.307,4.322,4.329,4.329,4.3758,4.4536,4.5613,4.6001,4.6241,4.695,4.713,4.716,4.7279,4.7309,4.7309,4.7309,4.7309,4.7309,4.7309,4.7309,4.7309,4.7309,4.7309,4.7249,4.713,4.713,4.689,4.6181,4.6001,4.5576,4.467,4.6153,4.7315,4.7566,4.9925,5.1691,5.2266,5.3078,5.3518,5.3518,5.3518,5.3518,5.3518,5.3518,5.3585,5.3721,5.3721,5.4397,5.5699,5.6325,5.707,0.0,0.0,0.0,0.0,1.2552,0.0,0.0,0.0,1.6031,1.6336,0.0,0.0,0.0,0.0,0.0,0.0,0.0,0.0,0.0,0.0,0.0,0.0,0.0,0.0,0.0,0.0,0.0,2.308,2.4164,2.4816,2.4816,2.5879,2.6725,2.7185,2.7261,2.7795,2.8806,2.8881,2.9265,2.9991,3.1756,3.2646,3.2806,3.4673,3.5519,3.5519,3.5519,3.5519,3.5579,3.6314,3.6926,3.7507,3.8883,3.9391,3.9481,4.0157,4.0457,4.0606,4.1283,4.1553,4.1703,4.2301,4.2851,4.329,4.329,4.3758,4.4326,4.4476,4.4975,4.5574,4.6241,4.642,4.657,4.716,4.7309,4.7309,4.7309,4.7309,4.7309,4.7309,4.7309,4.7309,4.7309,4.7309,4.71,4.651,4.642,4.6181,4.5514,4.4895,4.478,4.5476,4.6589,4.7637,4.8456,5.0777,5.2198,5.23,5.3078,5.3518,5.3518,5.3518,5.3518,5.3518,5.3518,5.3822,5.4482,5.4482,5.4905,5.5699,5.58,5.6562,0.0,0.0,0.0,0.0,0.0,0.0,0.0,0.0,1.6504,0.0,0.0,0.0,0.0,0.0,0.0,0.0,0.0,0.0,0.0,0.0,0.0,0.0,0.0,0.0,0.0,0.0,0.0,0.0,0.0,2.4465,2.4791,2.5536,2.6231,2.6826,2.7437,2.7971,2.843,2.9082,3.0093,3.1434,3.2227,3.3203,3.4308,3.5116,3.5519,3.5519,3.5519,3.5519,3.5549,3.6207,3.6866,3.7477,3.8452,3.908,3.9421,3.972,4.0068,4.0427,4.0726,4.1074,4.1523,4.2201,4.2791,4.329,4.329,4.3519,4.3818,4.4177,4.4796,4.5454,4.6121,4.66,4.6929,4.7249,4.6988,4.6719,4.6719,4.6411,4.6142,4.6142,4.6142,4.6142,4.6142,4.6471,4.6629,4.633,4.5971,4.5484,4.4825,4.4476,4.4519,4.5094,4.5559,4.6793,4.9134,5.0273,5.148,5.2909,5.3315,5.3518,5.3518,5.3518,5.3518,5.3518,5.3923,5.4296,5.4617,5.504,5.5615,5.6341,5.6341,5.69,1.2069,0.0,0.0,0.0,0.0,0.0,0.0,0.0,0.0,0.0,0.0,0.0,0.0,0.0,0.0,0.0,0.0,0.0,0.0,0.0,0.0,0.0,0.0,0.0,0.0,0.0,0.0,0.0,0.0,0.0,2.4766,2.531,2.5954,2.67,2.762,2.8172,2.8304,2.9302,3.0476,3.1829,3.2101,3.3098,3.4706,3.4984,3.5231,3.5519,3.5519,3.5519,3.5549,3.6028,3.6596,3.7195,3.7674,3.8392,3.9152,3.9331,3.972,4.0127,4.0127,4.0696,4.1463,4.1961,4.2671,4.329,4.329,4.329,4.3379,4.3878,4.4356,4.4915,4.5583,4.6091,4.6531,4.6711,4.636,4.6031,4.6031,4.5633,4.5304,4.5304,4.5304,4.5304,4.5304,4.5693,4.5942,4.5792,4.5334,4.4796,4.4117,4.4027,4.4396,4.5372,4.5416,4.675,5.0186,5.0156,5.0836,5.2906,5.3348,5.3518,5.3518,5.3518,5.3518,5.3518,5.4228,5.4719,5.4905,5.5649,5.6393,5.7103,5.69,5.7205,0.0,0.0,0.0,1.3525,0.0,0.0,0.0,0.0,1.7497,0.0,0.0,0.0,0.0,0.0,0.0,0.0,0.0,0.0,0.0,0.0,0.0,0.0,0.0,0.0,0.0,0.0,0.0,0.0,0.0,0.0,2.4766,2.531,2.6113,2.7236,2.7821,2.8355,2.8881,2.9503,2.9818,2.9895,3.0827,3.1756,3.2717,3.3636,3.4576,3.5519,3.5519,3.5519,3.5519,3.5519,3.5938,3.6523,3.6553,3.7332,3.8512,3.9152,3.9421,3.9421,3.9421,4.0307,4.1403,4.1433,4.2282,4.329,4.329,4.329,4.329,4.3319,4.3349,4.3499,4.4177,4.4386,4.4556,4.5214,4.5334,4.5334,4.5334,4.5304,4.5304,4.5304,4.5304,4.5304,4.5304,4.5304,4.5095,4.4446,4.4356,4.4087,4.3429,4.3319,4.4325,4.6934,4.7001,4.8304,5.19,5.1085,5.0841,5.1885,5.2922,5.3518,5.3518,5.3518,5.3518,5.3518,5.4228,5.4938,5.5665,5.6427,5.7137,5.7866,5.7137,5.7205,0.0,0.0,1.3004,1.3818,0.0,0.0,0.0,0.0,0.0,0.0,0.0,0.0,0.0,0.0,0.0,0.0,0.0,0.0,0.0,0.0,0.0,0.0,0.0,0.0,0.0,0.0,0.0,0.0,0.0,0.0,0.0,2.4967,2.5586,2.6725,2.7638,2.8197,2.8355,2.9327,3.0101,3.0733,3.1063,3.1701,3.2611,3.2929,3.3272,3.363,3.4228,3.4509,3.456,3.5245,3.5908,3.6493,3.6493,3.7272,3.8439,3.8661,3.9002,3.9391,3.9391,4.0277,4.1403,4.1403,4.2252,4.329,4.329,4.329,4.329,4.329,4.3638,4.3997,4.4237,4.4646,4.5035,4.5244,4.4975,4.4646,4.4646,4.4296,4.3967,4.3967,4.3967,4.3967,4.3967,4.3967,4.4057,4.4267,4.3938,4.3579,4.3319,4.329,4.4052,4.6022,4.5582,4.6838,5.098,5.2019,5.2608,5.2922,5.3314,5.3518,5.3518,5.3518,5.3518,5.3518,5.4228,5.4972,5.5699,5.6461,5.7171,5.79,5.7645,5.7645,1.326,1.3213,0.0,0.0,1.4676,0.0,1.6351,0.0,0.0,0.0,0.0,0.0,0.0,0.0,0.0,0.0,0.0,0.0,0.0,1.695,0.0,0.0,0.0,0.0,0.0,0.0,0.0,0.0,0.0,0.0,0.0,0.0,2.5234,2.6147,2.7419,2.8097,2.8097,2.9227,3.0101,3.0696,3.0696,3.1193,3.2092,3.2092,3.2272,3.2646,3.3602,3.3808,3.3602,3.4938,3.5548,3.5655,3.627,3.7135,3.8063,3.8302,3.8811,3.9391,3.9391,4.0277,4.1403,4.1403,4.2252,4.329,4.329,4.329,4.329,4.329,4.3609,4.3938,4.3938,4.4267,4.4586,4.4586,4.4267,4.3938,4.3938,4.3609,4.329,4.329,4.329,4.329,4.329,4.329,4.3439,4.3878,4.3579,4.329,4.329,4.3499,4.4297,4.5936,4.5455,4.6255,4.9292,5.1622,5.2783,5.2416,5.3093,5.3518,5.3518,5.3518,5.3518,5.3518,5.4228,5.4837,5.531,5.6325,5.7036,5.7509,5.7798,5.79]},{"header":{"parameterUnit":"m.s-1","parameterCategory":1,"la1":30.6,"la2":29.2853,"lo1":-89.7004,"lo2":-87.6739,"dy":0.0162,"dx":0.0183,"nx":112,"ny":82,"refTime":"2023-04-22T06:00:00:Z","depth":0,"parameterNumber":3,"parameterNumberName":"V-component_of_WINDS"},"data":[0.0,0.0,0.0,0.0,0.0,0.0,0.0,0.0,0.0,0.0,0.0,0.0,0.0,0.0,0.0,0.0,0.0,0.0,0.0,0.0,0.0,0.0,0.0,0.0,0.0,0.0,0.0,0.0,0.0,0.0,0.0,0.0,0.0,0.0,0.0,0.0,0.0,0.0,0.0,0.0,0.0,0.0,0.0,0.0,0.0,0.0,0.0,0.0,0.0,0.0,0.0,0.0,0.0,0.0,0.0,0.0,0.0,0.0,0.0,0.0,0.0,0.0,0.0,0.0,0.0,0.0,0.0,0.0,0.0,0.0,0.0,0.0,0.0,0.0,0.0,0.0,0.0,0.0,0.0,0.0,0.0,0.0,0.0,0.0,0.0,0.0,0.0,0.0,0.0,0.0,0.0,2.08,2.3086,2.4254,2.3906,2.2678,2.1348,2.0098,0.0,0.0,0.0,0.0,0.0,0.0,0.0,0.0,0.0,0.0,0.0,0.0,0.0,0.0,0.0,0.0,0.0,0.0,0.0,0.0,0.0,0.0,0.0,0.0,0.0,0.0,0.0,0.0,0.0,0.0,0.0,0.0,0.0,0.0,0.0,0.0,0.0,0.0,0.0,0.0,0.0,0.0,0.0,0.0,0.0,0.0,0.0,0.0,0.0,0.0,0.0,0.0,0.0,0.0,0.0,0.0,0.0,0.0,0.0,0.0,0.0,0.0,0.0,0.0,0.0,0.0,0.0,0.0,0.0,0.0,0.0,0.0,0.0,0.0,0.0,0.0,0.0,0.0,0.0,0.0,0.0,0.0,0.0,0.0,0.0,0.0,0.0,0.0,0.0,0.0,0.0,0.0,0.0,0.0,0.0,0.0,0.0,0.0,0.0,0.0,0.0,0.0,0.0,0.0,1.9549,2.294,2.3965,2.4394,2.4293,2.2832,2.1505,2.0547,0.0,0.0,0.0,0.0,0.0,0.0,0.0,0.0,0.0,0.0,0.0,0.0,0.0,0.0,0.0,0.0,0.0,0.0,0.0,0.0,0.0,0.0,0.0,0.0,0.0,0.0,0.0,0.0,0.0,0.0,0.0,0.0,0.0,0.0,0.0,0.0,0.0,0.0,0.0,0.0,0.0,0.0,0.0,0.0,0.0,0.0,0.0,0.0,0.0,0.0,0.0,0.0,0.0,0.0,0.0,0.0,0.0,0.0,0.0,0.0,0.0,0.0,0.0,0.0,0.0,0.0,0.0,0.0,0.0,0.0,0.0,0.0,0.0,0.0,0.0,0.0,0.0,0.0,0.0,0.0,0.0,0.0,0.0,0.0,0.0,0.0,0.0,0.0,0.0,0.0,0.0,0.0,0.0,0.0,0.0,0.0,0.0,0.0,0.0,0.0,0.0,0.0,0.0,1.9106,2.1034,2.3842,2.4274,2.4391,2.4391,2.2615,2.125,2.0644,1.9337,0.0,0.0,0.0,0.0,0.0,0.0,0.0,0.0,0.0,0.0,0.0,0.0,0.0,0.0,0.0,0.0,0.0,0.0,0.0,0.0,0.0,0.0,0.0,0.0,0.0,0.0,0.0,0.0,0.0,0.0,0.0,0.0,0.0,0.0,0.0,0.0,0.0,0.0,0.0,0.0,0.0,0.0,0.0,0.0,0.0,0.0,0.0,0.0,0.0,0.0,0.0,0.0,0.0,0.0,0.0,0.0,0.0,0.0,0.0,0.0,0.0,0.0,0.0,0.0,0.0,0.0,0.0,0.0,0.0,0.0,0.0,0.0,0.0,0.0,0.0,0.0,0.0,0.0,0.0,0.0,0.0,0.0,0.0,0.0,0.0,0.0,0.0,0.0,0.0,0.0,0.0,0.0,0.0,0.0,0.0,0.0,0.0,0.0,0.0,0.0,0.0,0.0,2.1191,2.2225,2.404,2.4332,2.4352,2.4277,2.2284,2.0977,2.0762,1.9298,0.0,0.0,0.0,0.0,0.0,0.0,0.0,0.0,0.0,0.0,0.0,0.0,0.0,0.0,0.0,0.0,0.0,0.0,0.0,0.0,0.0,0.0,0.0,0.0,0.0,0.0,0.0,0.0,0.0,0.0,0.0,0.0,0.0,0.0,0.0,0.0,0.0,0.0,0.0,0.0,0.0,0.0,0.0,0.0,0.0,0.0,0.0,0.0,0.0,0.0,0.0,0.0,0.0,0.0,0.0,0.0,0.0,0.0,0.0,0.0,0.0,0.0,0.0,0.0,0.0,0.0,0.0,0.0,0.0,0.0,0.0,0.0,0.0,0.0,0.0,0.0,0.0,0.0,0.0,0.0,0.0,0.0,0.0,0.0,0.0,0.0,0.0,0.0,0.0,0.0,0.0,0.0,0.0,0.0,0.0,0.0,0.0,0.0,0.0,0.0,0.0,0.0,2.1893,2.2793,2.373,2.418,2.4258,2.3867,2.1876,2.0801,2.1152,1.9201,0.0,0.0,0.0,0.0,0.0,0.0,0.0,0.0,0.0,0.0,0.0,0.0,0.0,0.0,0.0,0.0,0.0,0.0,0.0,0.0,0.0,0.0,0.0,0.0,0.0,0.0,0.0,0.0,0.0,0.0,0.0,0.0,0.0,0.0,0.0,0.0,0.0,0.0,0.0,0.0,0.0,0.0,0.0,0.0,0.0,0.0,0.0,0.0,0.0,0.0,0.0,0.0,0.0,0.0,0.0,0.0,0.0,0.0,0.0,0.0,0.0,0.0,0.0,0.0,0.0,0.0,0.0,0.0,0.0,0.0,0.0,0.0,0.0,0.0,0.0,0.0,0.0,0.0,0.0,0.0,0.0,0.0,0.0,0.0,0.0,0.0,0.0,0.0,0.0,0.0,0.0,0.0,0.0,0.0,0.0,0.0,0.0,0.0,0.0,0.0,0.0,0.0,2.2227,2.3242,0.0,2.4316,2.4238,2.3828,2.207,2.1035,2.119,0.0,0.0,0.0,0.0,0.0,0.0,0.0,0.0,0.0,0.0,0.0,0.0,0.0,0.0,0.0,0.0,0.0,0.0,0.0,0.0,0.0,0.0,0.0,0.0,0.0,0.0,0.0,0.0,0.0,0.0,0.0,0.0,0.0,0.0,0.0,0.0,0.0,0.0,0.0,0.0,0.0,0.0,0.0,0.0,0.0,0.0,0.0,0.0,0.0,0.0,0.0,0.0,0.0,0.0,0.0,0.0,0.0,0.0,0.0,0.0,0.0,0.0,0.0,0.0,0.0,0.0,0.0,0.0,0.0,0.0,0.0,0.0,0.0,0.0,0.0,0.0,0.0,0.0,0.0,0.0,0.0,0.0,0.0,0.0,0.0,0.0,0.0,0.0,0.0,0.0,0.0,0.0,0.0,0.0,0.0,0.0,0.0,0.0,0.0,0.0,0.0,0.0,2.1425,2.2519,2.3437,0.0,2.4219,2.3984,2.3437,2.1796,2.0918,2.1171,0.0,0.0,0.0,0.0,0.0,0.0,0.0,0.0,0.0,0.0,0.0,0.0,0.0,0.0,0.0,0.0,0.0,0.0,0.0,0.0,0.0,0.0,0.0,0.0,0.0,0.0,0.0,0.0,0.0,0.0,0.0,0.0,0.0,0.0,0.0,0.0,0.0,0.0,0.0,0.0,0.0,0.0,0.0,0.0,0.0,0.0,0.0,0.0,0.0,0.0,0.0,0.0,0.0,0.0,0.0,0.0,0.0,0.0,0.0,0.0,0.0,0.0,0.0,0.0,0.0,0.0,0.0,0.0,0.0,0.0,0.0,0.0,0.0,0.0,0.0,0.0,0.0,0.0,0.0,0.0,0.0,0.0,0.0,0.0,0.0,0.0,0.0,0.0,0.0,0.0,0.0,0.0,0.0,0.0,0.0,0.0,0.0,0.0,0.0,0.0,0.0,0.0,2.2285,2.2869,2.3298,2.375,2.3811,2.3437,2.2557,2.0898,2.0274,0.0,0.0,0.0,0.0,0.0,0.0,0.0,0.0,0.0,0.0,0.0,0.0,0.0,0.0,0.0,0.0,0.0,0.0,0.0,0.0,0.0,0.0,0.0,0.0,0.0,0.0,0.0,0.0,0.0,0.0,0.0,0.0,0.0,0.0,0.0,0.0,0.0,0.0,0.0,0.0,0.0,0.0,0.0,0.0,0.0,0.0,0.0,0.0,0.0,0.0,0.0,0.0,0.0,0.0,0.0,0.0,0.0,0.0,0.0,0.0,0.0,0.0,0.0,0.0,0.0,0.0,0.0,0.0,0.0,0.0,0.0,0.0,0.0,0.0,0.0,0.0,0.0,0.0,0.0,0.0,0.0,0.0,0.0,0.0,0.0,0.0,0.0,0.0,0.0,0.0,0.0,0.0,0.0,0.0,0.0,0.0,0.0,0.0,0.0,0.0,0.0,0.0,0.0,2.2324,2.3144,2.3769,2.418,2.4215,2.3769,2.2596,2.0898,2.0274,2.1132,0.0,0.0,0.0,0.0,0.0,0.0,0.0,0.0,0.0,0.0,0.0,0.0,0.0,0.0,0.0,0.0,0.0,0.0,0.0,0.0,0.0,0.0,0.0,0.0,0.0,0.0,0.0,0.0,0.0,0.0,0.0,0.0,0.0,0.0,0.0,0.0,0.0,0.0,0.0,0.0,0.0,0.0,0.0,0.0,0.0,0.0,0.0,0.0,0.0,0.0,0.0,0.0,0.0,0.0,0.0,0.0,0.0,0.0,0.0,0.0,0.0,0.0,0.0,0.0,0.0,0.0,0.0,0.0,0.0,0.0,0.0,0.0,0.0,0.0,0.0,0.0,0.0,0.0,0.0,0.0,0.0,0.0,0.0,0.0,0.0,0.0,0.0,0.0,0.0,0.0,0.0,0.0,0.0,0.0,0.0,0.0,0.0,0.0,0.0,0.0,0.0,0.0,2.2576,2.3181,2.3691,2.4121,2.3981,2.3435,2.2363,2.0977,2.0254,2.043,0.0,0.0,0.0,0.0,0.0,0.0,0.0,0.0,0.0,0.0,0.0,0.0,0.0,0.0,0.0,0.0,0.0,0.0,0.0,0.0,0.0,0.0,0.0,0.0,0.0,0.0,0.0,0.0,0.0,0.0,0.0,0.0,0.0,0.0,0.0,0.0,0.0,0.0,0.0,0.0,0.0,0.0,0.0,0.0,0.0,0.0,0.0,0.0,0.0,0.0,0.0,0.0,0.0,0.0,0.0,0.0,0.0,0.0,0.0,0.0,0.0,0.0,0.0,0.0,0.0,0.0,0.0,0.0,0.0,0.0,0.0,0.0,0.0,0.0,0.0,0.0,0.0,0.0,0.0,0.0,0.0,0.0,0.0,0.0,0.0,0.0,0.0,0.0,0.0,0.0,0.0,0.0,0.0,0.0,0.0,0.0,0.0,0.0,0.0,0.0,0.0,0.0,2.2945,2.314,2.3337,2.375,2.3415,2.283,2.1953,2.1055,2.0195,1.9413,0.0,0.0,0.0,0.0,0.0,0.0,0.0,0.0,0.0,0.0,0.0,0.0,0.0,0.0,0.0,0.0,0.0,0.0,0.0,0.0,0.0,0.0,0.0,0.0,0.0,0.0,0.0,0.0,0.0,0.0,0.0,0.0,0.0,0.0,0.0,0.0,0.0,0.0,0.0,0.0,0.0,0.0,0.0,0.0,0.0,0.0,0.0,0.0,0.0,0.0,0.0,0.0,0.0,0.0,0.0,0.0,0.0,0.0,0.0,0.0,2.4014,0.0,0.0,0.0,0.0,0.0,0.0,0.0,0.0,0.0,0.0,0.0,0.0,0.0,0.0,0.0,0.0,0.0,0.0,0.0,0.0,0.0,0.0,0.0,0.0,0.0,0.0,0.0,0.0,0.0,0.0,0.0,0.0,0.0,0.0,0.0,0.0,0.0,0.0,0.0,0.0,0.0,2.3108,2.3437,2.3691,2.3769,2.3711,2.3164,2.2013,2.0762,1.998,1.9766,0.0,0.0,0.0,0.0,0.0,0.0,0.0,0.0,0.0,0.0,0.0,0.0,0.0,0.0,0.0,0.0,0.0,0.0,0.0,0.0,0.0,0.0,0.0,0.0,0.0,0.0,0.0,0.0,0.0,0.0,0.0,0.0,0.0,0.0,0.0,0.0,0.0,0.0,0.0,0.0,0.0,0.0,0.0,0.0,0.0,0.0,0.0,0.0,0.0,0.0,0.0,0.0,0.0,0.0,0.0,0.0,0.0,0.0,0.0,0.0,0.0,2.5059,0.0,0.0,0.0,0.0,0.0,0.0,0.0,0.0,0.0,0.0,0.0,0.0,0.0,0.0,0.0,0.0,0.0,0.0,0.0,0.0,0.0,0.0,0.0,0.0,0.0,0.0,0.0,0.0,0.0,0.0,0.0,0.0,0.0,0.0,0.0,0.0,0.0,0.0,0.0,0.0,2.3105,2.334,2.3454,2.3454,2.3454,2.3125,2.2266,2.1172,2.0254,1.9648,1.8984,0.0,0.0,0.0,0.0,0.0,0.0,0.0,0.0,0.0,0.0,0.0,0.0,0.0,0.0,0.0,0.0,0.0,0.0,0.0,0.0,0.0,0.0,0.0,0.0,0.0,0.0,0.0,0.0,0.0,0.0,0.0,0.0,0.0,0.0,0.0,0.0,0.0,0.0,0.0,0.0,0.0,0.0,0.0,0.0,0.0,0.0,0.0,0.0,0.0,0.0,0.0,0.0,0.0,0.0,0.0,2.9057,2.9057,2.8605,2.7814,2.6766,2.5711,2.4833,0.0,0.0,0.0,0.0,0.0,0.0,0.0,0.0,0.0,0.0,0.0,0.0,0.0,0.0,0.0,0.0,0.0,0.0,0.0,0.0,0.0,0.0,0.0,0.0,0.0,2.493,2.3833,0.0,0.0,0.0,0.0,0.0,0.0,0.0,0.0,0.0,0.0,0.0,0.0,2.2945,2.3042,2.3101,2.3101,2.3101,2.2947,2.2518,2.1698,2.0723,1.9608,1.9393,1.9061,0.0,0.0,0.0,0.0,0.0,0.0,0.0,0.0,0.0,0.0,0.0,0.0,0.0,0.0,0.0,0.0,0.0,0.0,0.0,0.0,0.0,0.0,0.0,0.0,0.0,0.0,0.0,0.0,0.0,0.0,0.0,0.0,2.4551,2.5608,0.0,0.0,0.0,0.0,0.0,0.0,0.0,0.0,0.0,0.0,0.0,0.0,0.0,0.0,3.0628,3.0331,3.0432,3.0934,3.008,2.9679,2.9679,2.9679,2.9854,3.0111,2.9503,0.0,2.7469,2.6289,0.0,0.0,0.0,0.0,0.0,0.0,0.0,0.0,0.0,0.0,0.0,0.0,0.0,0.0,0.0,0.0,0.0,0.0,0.0,0.0,0.0,0.0,2.5704,2.6808,2.658,2.5854,0.0,2.3615,2.259,2.2521,0.0,0.0,0.0,0.0,0.0,0.0,0.0,0.0,2.2615,2.2888,2.3101,2.3101,2.3101,2.2947,2.2518,2.1698,2.0976,2.0468,1.9726,1.9589,2.0214,1.9922,0.0,0.0,0.0,0.0,0.0,0.0,0.0,0.0,0.0,0.0,0.0,0.0,0.0,0.0,0.0,0.0,0.0,0.0,0.0,0.0,0.0,0.0,0.0,0.0,0.0,0.0,0.0,0.0,0.0,2.7183,2.7344,2.7108,2.8079,2.8339,0.0,0.0,0.0,0.0,0.0,0.0,0.0,0.0,0.0,2.9051,3.0105,3.0909,3.1406,3.1788,3.2265,3.2792,3.2921,3.2692,3.2114,3.2416,3.2365,3.1989,3.1758,3.116,3.0281,2.8624,2.7971,2.7971,0.0,0.0,0.0,0.0,0.0,2.6472,2.521,0.0,0.0,0.0,0.0,0.0,0.0,0.0,0.0,0.0,0.0,0.0,0.0,0.0,0.0,2.8898,2.8734,2.8039,2.6868,2.5188,2.3629,0.0,2.2363,2.2363,2.2771,0.0,0.0,0.0,0.0,0.0,2.283,2.2984,2.3101,2.3101,2.3101,2.3023,2.2869,2.2284,2.164,2.0977,2.0371,1.998,1.9862,1.9883,2.0195,0.0,0.0,0.0,0.0,0.0,0.0,0.0,0.0,0.0,0.0,0.0,0.0,0.0,0.0,0.0,0.0,0.0,0.0,0.0,0.0,0.0,0.0,0.0,0.0,0.0,0.0,0.0,0.0,2.9824,2.9521,2.8667,2.9477,2.9529,0.0,0.0,0.0,0.0,0.0,0.0,2.89,3.0156,3.0834,3.0834,3.1888,3.2516,3.2667,3.3517,3.4296,3.4951,3.5606,3.5581,3.4951,3.5228,3.4901,3.4145,3.3822,3.3395,3.2696,3.0783,2.9352,2.8366,2.8473,2.8699,0.0,2.7905,2.7806,2.8017,2.7128,2.6824,2.6896,2.7272,0.0,2.7024,2.7228,0.0,0.0,0.0,0.0,2.6617,2.8295,0.0,2.9573,3.0558,3.029,2.955,2.8589,2.6779,2.4804,0.0,2.25,2.2459,2.2888,0.0,0.0,0.0,0.0,2.3056,2.2949,2.3306,2.343,2.3144,2.3101,2.3101,2.3101,2.2732,2.2225,2.1581,2.1172,2.0586,1.9824,2.0059,2.0235,2.0235,0.0,0.0,0.0,0.0,0.0,0.0,0.0,0.0,0.0,0.0,0.0,0.0,0.0,0.0,0.0,0.0,0.0,0.0,0.0,0.0,0.0,0.0,0.0,0.0,0.0,0.0,0.0,0.0,0.0,3.0283,3.1206,0.0,0.0,0.0,0.0,2.8856,2.9785,3.0658,3.1185,3.2792,3.3696,3.3696,3.4728,3.5581,3.6157,3.6205,3.6758,3.7789,3.7337,3.7337,3.7789,3.7287,3.7036,3.691,3.5857,3.5056,3.4377,3.1667,3.0809,3.1105,3.0105,3.0331,3.116,3.0578,3.0408,3.0358,2.9793,2.9593,2.9593,2.9626,2.891,2.7917,2.7442,2.6903,0.0,0.0,2.7956,2.8359,3.005,3.0483,3.0653,3.1235,3.0555,2.9782,2.9719,2.7873,2.5636,0.0,2.2502,2.2051,2.2459,0.0,2.2479,2.2518,2.3754,2.4154,2.2706,2.3816,2.4296,2.3212,2.3101,2.3101,2.3101,2.2732,2.2479,2.2441,2.2051,2.1621,2.1112,2.1112,2.1132,2.1132,2.0332,0.0,0.0,0.0,0.0,0.0,0.0,0.0,0.0,0.0,0.0,0.0,0.0,0.0,0.0,0.0,0.0,0.0,0.0,0.0,0.0,0.0,0.0,0.0,0.0,0.0,0.0,0.0,0.0,3.4518,3.4685,0.0,3.2654,3.1922,3.1416,3.1055,3.2529,3.3828,3.4679,3.6466,3.7367,3.7241,3.7612,3.7867,3.8014,3.8014,3.8366,3.9094,3.8894,3.8743,3.8592,3.8391,3.809,3.7663,3.6935,3.6282,3.5703,3.4327,3.3248,3.2386,3.1281,3.1507,3.2386,3.1461,3.1587,3.2164,3.1984,3.1662,3.1235,3.0557,3.005,2.9603,2.9061,2.9027,2.9221,2.9582,2.9727,3.0004,3.1309,3.1617,3.1788,3.2361,3.2212,3.1697,3.0872,2.9826,2.8606,2.7106,2.4601,2.2951,2.3613,2.3025,2.3052,2.4701,2.5159,2.5529,2.6045,2.6584,2.6347,2.4857,2.4706,2.4277,2.3208,2.2986,2.2791,2.2539,2.2363,2.209,2.168,2.1366,2.119,2.119,2.0352,2.0332,0.0,0.0,0.0,0.0,0.0,0.0,0.0,0.0,0.0,0.0,0.0,0.0,0.0,0.0,0.0,0.0,0.0,0.0,0.0,0.0,0.0,0.0,0.0,0.0,0.0,0.0,3.6663,3.7971,3.7939,3.7322,3.6143,3.4999,3.4424,3.4607,3.5957,3.7232,3.8314,3.9727,4.0325,3.9965,3.9944,3.9693,3.917,3.917,3.9346,3.9697,3.9697,3.9496,3.917,3.8969,3.8693,3.8266,3.7713,3.7185,3.6632,3.6257,3.5353,3.4095,3.2943,3.2968,3.3545,3.2792,3.2993,3.3596,3.342,3.2842,3.2068,3.1366,3.1014,3.0809,3.0457,3.0583,3.0909,3.109,3.114,3.1341,3.2265,3.2516,3.2591,3.3014,3.309,3.2874,3.2018,3.129,3.057,2.9753,2.7041,2.5019,2.555,2.4957,2.5013,2.6906,2.7086,2.7323,2.825,2.816,2.7413,2.5762,2.5239,2.4461,2.3208,2.3259,2.3162,2.2732,2.2852,2.2695,2.2129,2.1796,2.1581,2.1445,2.0879,2.0859,2.1445,0.0,0.0,0.0,0.0,0.0,0.0,0.0,0.0,0.0,0.0,0.0,0.0,0.0,0.0,0.0,0.0,0.0,0.0,0.0,0.0,0.0,0.0,0.0,3.4296,3.7417,3.972,4.0457,4.0803,4.0792,4.0204,3.9256,3.8922,3.9543,4.008,4.0872,4.1935,4.2574,4.2551,4.1764,4.1716,4.107,3.9774,3.9723,3.9697,3.9697,3.9697,3.9697,3.9672,3.917,3.8919,3.8894,3.8291,3.7713,3.7235,3.721,3.6884,3.6281,3.5177,3.4728,3.4753,3.4728,3.4728,3.4678,3.4148,3.3219,3.229,3.229,3.1913,3.1461,3.1486,3.1486,3.1587,3.2139,3.2269,3.239,3.2964,3.314,3.314,3.314,3.314,3.314,3.314,3.2179,3.1315,3.1315,2.9675,2.8269,2.8159,2.8159,2.8361,2.8923,2.9521,0.0,2.9145,2.8429,2.7413,2.5891,2.4636,2.3717,2.3179,2.3574,2.3613,2.312,2.3535,2.3398,2.2537,2.2519,2.2305,2.1915,2.1915,2.1915,2.1935,0.0,0.0,0.0,0.0,0.0,0.0,0.0,0.0,0.0,0.0,0.0,0.0,0.0,0.0,0.0,0.0,0.0,0.0,0.0,0.0,0.0,0.0,3.5888,3.6955,3.9272,4.1444,4.306,4.3441,4.3517,4.3343,4.3082,4.2986,4.3152,4.4576,4.555,4.5847,4.6887,4.6743,4.5119,4.4163,4.2854,4.1094,4.016,3.9697,3.9697,3.9697,3.9697,3.9697,3.9546,3.9471,3.9446,3.8894,3.8341,3.7739,3.7337,3.6884,3.6329,3.5556,3.5554,3.5879,3.5456,3.5579,3.5854,3.5255,3.4603,3.4,3.4,3.3671,3.3294,3.3649,3.352,3.3319,3.385,3.3724,3.347,3.3646,3.3972,3.4173,3.3771,3.3972,3.4274,3.4274,3.3981,3.3731,3.3731,3.3283,3.2082,2.9489,2.9443,3.0102,3.1083,0.0,0.0,3.2426,3.1238,2.9798,2.8498,2.7268,2.5869,2.4189,2.4157,2.3903,0.0,2.322,2.3181,2.2925,2.2654,2.2305,2.1915,2.2187,2.2344,0.0,0.0,0.0,0.0,0.0,0.0,0.0,0.0,0.0,0.0,0.0,0.0,0.0,0.0,0.0,0.0,0.0,0.0,0.0,0.0,0.0,0.0,3.6785,3.9546,4.1293,4.2644,4.3988,4.5394,4.6142,4.6586,4.6586,4.6564,4.6578,4.6578,4.7579,4.8183,4.8183,4.8885,4.8547,4.6859,4.6102,4.4546,4.2035,4.1282,4.0491,3.9697,3.9697,3.9697,3.9697,3.9697,3.9697,0.0,3.9371,3.8919,3.8341,3.8039,3.7462,0.0,0.0,0.0,0.0,0.0,3.5956,3.5981,3.5631,3.5132,3.4703,3.4703,3.4477,3.4276,3.4603,3.4477,3.4276,3.4603,3.4477,3.4248,3.4248,3.4452,3.4628,3.4324,3.4477,3.4703,3.4703,3.4703,3.4703,3.4703,0.0,0.0,3.2008,3.1943,3.2504,3.3389,3.3334,3.351,0.0,3.2349,3.0468,2.9578,2.7717,2.5903,2.4287,2.4293,0.0,0.0,0.0,2.3298,2.3101,2.2888,0.0,0.0,0.0,2.2752,0.0,0.0,0.0,0.0,2.283,2.2752,0.0,0.0,0.0,0.0,0.0,0.0,0.0,0.0,0.0,0.0,0.0,0.0,0.0,0.0,0.0,0.0,4.0422,4.3031,4.6275,4.6809,4.7048,4.7578,4.8745,4.9546,4.9606,4.9696,4.9696,4.9636,4.9606,4.9576,4.9516,0.0,0.0,0.0,0.0,4.6107,4.317,4.2915,4.1871,4.003,4.0005,3.9927,3.9798,3.9798,3.9798,3.9798,3.9722,3.9396,3.8894,3.8818,3.814,3.706,3.6606,3.6405,3.6405,3.6405,3.6056,0.0,0.0,0.0,0.0,3.4853,3.4853,3.4803,3.4853,3.4853,3.4803,3.4879,3.4853,3.4803,3.4803,3.4828,3.4879,3.4803,3.4828,3.4879,3.4879,3.4879,3.4879,3.4879,3.528,3.5456,3.4979,3.4879,3.5029,3.5433,3.5082,0.0,3.5248,3.23,3.0024,2.9551,0.0,0.0,2.4027,2.4277,2.4079,2.3159,2.3496,2.3535,2.312,2.314,2.3181,2.3181,2.3218,2.3237,2.3237,2.3237,2.3454,2.3848,2.3396,2.3198,0.0,0.0,0.0,0.0,0.0,0.0,0.0,0.0,0.0,0.0,0.0,0.0,0.0,0.0,0.0,4.073,4.3584,4.6301,4.906,4.992,5.0099,4.971,5.0338,5.105,5.1588,5.2151,5.2211,5.1678,5.1648,5.1409,5.087,5.084,0.0,4.9687,4.8663,4.7578,4.6495,4.4903,4.3431,4.2026,0.0,0.0,4.035,4.035,4.035,4.0299,3.9898,3.9396,3.8869,3.8366,3.7537,3.6532,3.6455,3.6405,3.6405,3.6405,3.6331,3.623,3.623,3.5855,3.5431,3.5929,3.5755,3.5456,3.5929,3.573,0.0,3.5931,3.573,3.5332,3.5332,3.5705,3.5954,3.5456,3.573,3.6055,3.6055,3.6055,3.6055,3.6055,3.6155,3.618,3.608,3.6055,3.5931,3.5558,3.5408,3.4988,3.4005,3.1737,2.9869,2.9043,2.7288,2.5806,2.4926,2.4926,2.4434,2.3179,2.3201,2.3179,2.3101,2.3454,2.3672,2.3672,2.3981,2.4137,2.4137,2.4137,2.4196,2.4254,2.3867,2.3848,0.0,0.0,0.0,0.0,0.0,0.0,0.0,0.0,0.0,0.0,0.0,3.2545,0.0,0.0,4.1259,4.4647,4.7197,4.9321,5.0966,5.1798,5.1947,5.1265,5.1798,5.2336,5.269,5.3019,5.3079,5.2749,5.2695,5.2546,5.2217,5.1887,5.1535,5.1206,5.0254,4.8986,4.7407,4.6737,4.5435,4.3559,4.3832,4.3106,4.1544,4.1544,4.1028,4.0099,3.9823,3.9546,3.9271,3.8693,3.814,3.7587,3.7009,3.6632,3.6405,3.6405,3.6405,3.6405,3.6405,3.6205,3.6006,3.6306,3.6205,3.6006,3.6306,3.6205,3.6006,3.6306,3.618,3.5956,3.5956,3.618,3.6306,3.6006,3.618,3.6405,3.6405,3.6405,3.6405,3.6405,3.6405,3.6405,3.6405,3.6405,3.6306,3.6006,3.5956,3.5462,3.4126,3.2194,3.0416,2.9067,2.7402,2.606,2.516,2.4887,2.4473,2.3786,2.3747,2.3747,2.3747,2.3984,2.4102,2.4102,2.4316,2.4391,2.4391,2.4391,2.4531,2.4769,2.4554,2.4434,0.0,0.0,0.0,0.0,0.0,0.0,0.0,0.0,3.2823,3.2699,3.4057,3.6353,3.9962,4.2544,4.5122,4.8178,5.0331,5.1828,5.2486,5.3054,5.3174,5.2665,5.3054,5.3468,5.3588,5.3588,5.3528,5.3408,5.3408,5.3348,5.3228,5.2546,5.2187,5.2187,5.1535,5.0194,4.8166,4.8492,4.7501,4.5232,4.5759,4.4919,4.2906,4.28,4.1748,3.9998,3.9798,3.9647,3.9522,3.907,3.8768,3.8467,3.7562,3.6934,3.6532,3.6455,3.6405,3.6405,3.6405,3.6405,3.6405,3.6405,3.648,3.6556,3.6556,3.6556,3.6581,3.6683,3.6557,3.643,3.6531,3.648,3.6405,3.6405,3.6405,3.643,3.6532,3.6556,3.6606,3.6683,3.6708,3.6708,3.6708,3.6708,3.6632,3.643,3.6405,3.5906,3.4581,3.2817,3.1039,2.931,2.7487,2.606,2.516,2.4668,2.4391,2.4391,2.4391,2.4391,2.4391,2.4492,2.4551,2.4551,2.4606,2.4645,2.4645,2.4645,2.4863,2.5219,2.5317,2.5098,3.1138,3.1245,3.156,3.2928,3.281,3.2863,0.0,0.0,3.5591,3.6626,3.8587,4.0605,4.2275,4.5414,4.8238,4.9747,5.1678,5.3204,5.3892,5.4042,5.4072,5.4012,5.4042,5.4311,5.491,5.497,5.473,5.4132,5.4102,5.3832,5.3228,5.2546,5.2187,5.2187,5.1535,5.1069,5.0779,5.0249,4.9281,4.7889,4.7898,4.6547,4.3992,4.3542,4.2502,4.1076,4.0124,3.9446,3.8994,3.8919,3.8291,3.7386,3.7261,3.716,3.706,3.6581,3.6405,3.6405,3.6405,3.6405,3.6405,3.6405,3.6708,3.711,3.711,3.711,3.721,3.7688,3.7135,3.6507,3.6984,3.6758,3.6405,3.6405,3.6405,3.6531,3.7009,3.711,3.7261,3.7739,3.7814,3.7814,3.7814,3.7814,3.7487,3.6532,3.6405,3.5906,3.4581,3.2817,3.1172,2.9775,2.7693,2.606,2.516,2.4668,2.4391,2.4391,2.4391,2.4391,2.4391,2.4785,2.5024,2.5024,2.5367,2.5538,2.5538,2.5538,2.5577,2.564,2.6055,2.6016,3.2003,3.2252,3.2787,3.3841,3.4947,3.6058,3.6976,3.8134,3.9325,4.0425,4.2158,4.411,4.6223,4.879,5.087,0.0,5.3294,5.4461,5.473,5.4461,5.4072,5.3653,5.3623,5.3862,5.4551,5.461,5.467,5.476,5.479,5.467,5.4396,5.3713,5.3174,5.2785,5.2127,5.1594,5.1206,5.0936,5.0118,4.8807,4.8782,4.7172,4.4177,4.3622,4.2294,4.035,3.9898,3.9572,3.9371,3.9371,3.9069,3.8592,3.7914,3.7663,3.7588,3.706,3.6859,3.6859,3.6859,3.6859,3.6859,3.6859,3.7235,3.7663,3.7663,3.7663,3.7713,3.7939,3.7437,3.6984,3.7513,3.7286,3.6934,3.7261,3.7336,3.7387,3.7613,3.7663,3.7739,3.7965,3.8015,3.8015,3.8015,3.8015,3.7839,3.7387,3.706,3.6377,3.5036,3.3229,3.1152,2.8777,2.723,2.623,2.5884,2.543,2.5171,2.5171,2.5171,2.5171,2.5171,2.5328,2.5586,2.5864,2.6016,2.6206,2.6459,2.6459,2.6459,2.6459,2.668,2.666,3.2916,3.3544,3.4548,3.5356,3.7422,3.9265,3.9444,4.1034,4.2753,4.3642,4.5044,4.6732,4.8678,5.0601,5.2127,5.2839,5.4042,5.491,5.491,5.4341,5.3593,5.2755,5.233,5.2366,5.303,5.3773,5.4401,5.488,5.5089,5.5179,5.5179,5.4551,5.3982,5.3473,5.2815,5.2157,5.1475,5.1498,5.0709,4.921,4.921,4.7508,4.4362,4.3311,4.1698,3.9697,3.9697,3.9697,3.9697,3.9521,3.9371,3.912,3.8165,3.7789,3.7739,3.7513,3.7336,3.721,3.721,3.7311,3.7412,3.7412,3.7789,3.8241,3.8241,3.8241,3.8241,3.8241,3.7839,3.7513,3.7889,3.7713,3.7513,3.7914,3.8015,3.804,3.8216,3.8241,3.8291,3.8442,3.8467,3.8467,3.8467,3.8467,3.8467,3.8467,3.799,3.7195,3.5915,3.3729,3.1117,2.8035,2.7135,2.6724,2.6562,2.6245,2.6069,2.6069,2.6069,2.6069,2.6069,2.6069,2.6206,2.6562,2.6562,2.6719,2.6986,2.6986,2.6986,2.6986,2.7129,2.7187,3.3484,3.4907,3.6703,3.799,3.9817,4.1654,4.2951,4.4257,4.5394,4.607,4.7258,4.8229,4.8319,4.9912,5.1445,5.2127,5.3354,5.4251,5.4251,5.3653,5.2725,5.1439,5.0175,4.9666,0.0,5.2671,5.4221,5.4251,5.482,5.5179,5.5179,5.4551,5.4192,5.4192,5.3503,5.2869,5.2187,5.2187,5.1176,4.921,4.921,4.7732,4.4889,4.2456,4.0753,3.9697,3.9697,3.9697,3.9647,3.9145,3.8592,3.799,3.7437,3.7235,3.7311,3.7789,3.7638,3.721,3.721,3.7538,3.799,3.799,3.8366,3.8869,3.8869,3.8869,3.8869,3.8869,3.8442,3.799,3.799,3.799,3.799,3.8015,3.8015,3.8165,3.8743,3.8869,3.9019,3.9546,3.9647,3.9647,3.9647,3.9647,3.9647,3.9647,3.9195,3.8417,3.7287,3.4301,3.1117,2.8035,2.7663,2.7487,2.7006,2.6967,2.6947,2.6947,2.6947,2.6947,2.6947,2.6947,2.6973,2.6967,2.6967,2.6986,2.6986,2.6986,2.6986,2.7006,2.7467,2.7682,3.5609,3.7225,3.8841,4.0595,4.2541,4.4399,4.5969,4.7334,4.8222,4.7987,4.8439,4.8459,4.7207,4.871,5.0302,5.079,5.2366,5.3683,5.4132,5.3623,5.239,5.0205,4.9912,0.0,0.0,0.0,0.0,5.2785,5.3473,5.4072,5.4521,5.473,5.467,5.4221,5.3982,5.3773,5.3533,5.3084,5.1615,4.9094,4.6029,4.4283,4.3782,4.2554,4.2077,4.2181,4.1344,4.097,4.0843,3.9474,3.8994,3.9044,3.809,3.7965,3.8291,3.809,3.814,3.8341,3.8341,3.8441,3.8592,3.8592,3.8994,3.9446,3.9446,3.9446,3.9446,3.9446,3.9044,3.8693,3.9044,3.8843,3.8693,3.9044,3.912,3.917,3.9396,3.9446,3.9471,3.9647,3.9697,3.9697,3.9697,3.9697,3.9697,3.9697,3.9245,3.8166,3.6136,3.4131,3.2006,2.9668,2.8388,2.7643,2.7487,2.7187,2.6986,2.6986,2.6986,2.6986,2.6986,2.6986,2.7148,2.7467,2.7467,2.7604,2.7871,2.7871,2.7871,2.7871,2.8008,2.8112,3.7507,3.9895,4.2192,4.3966,4.6182,4.8131,4.8932,4.9564,4.9649,4.8419,4.8048,4.7322,4.5302,4.6305,4.764,4.8339,4.9942,5.1468,5.2611,5.2217,5.1163,4.9486,4.9224,4.8753,0.0,0.0,0.0,5.1678,5.2905,5.3743,5.4192,5.485,5.4999,5.4581,5.4551,5.4341,5.3832,5.3438,5.1566,4.8335,4.4192,4.2561,4.3177,4.2649,4.2543,4.2786,4.1961,4.1344,4.0818,3.9449,3.9095,3.9321,3.8366,3.8241,3.8567,3.8391,3.8567,3.8894,3.8894,3.9019,3.9195,3.9195,3.9421,3.9697,3.9697,3.9697,3.9647,3.9472,3.9296,3.922,3.9371,3.9296,3.9271,3.9622,3.9697,3.9697,3.9697,3.9697,3.9697,3.9697,3.9697,3.9697,3.9697,3.9697,3.9697,3.9697,3.9421,3.8288,3.5828,3.4563,3.2993,3.0578,2.932,2.8448,2.797,2.7637,2.748,2.748,2.748,2.748,2.748,2.748,2.7598,2.7917,2.7917,2.8054,2.8301,2.8301,2.8301,2.8301,2.8301,2.8301,3.9391,4.2965,4.6608,4.7921,5.0445,5.2404,5.1686,5.091,4.9731,4.7444,4.6386,4.513,0.0,0.0,4.391,4.515,4.6493,4.8065,5.0016,4.9823,4.9426,0.0,0.0,0.0,0.0,0.0,0.0,5.1056,0.0,5.4102,5.4167,5.485,5.5179,5.5179,5.5179,5.4551,5.3258,5.3125,5.1074,4.7171,4.3855,4.2618,4.3331,4.2648,4.2144,4.1789,4.164,4.092,3.975,3.9145,3.8919,3.8869,3.8266,3.8065,3.8165,3.8743,3.8944,3.8944,3.8944,3.9271,3.9697,3.9697,3.9697,3.9697,3.9697,3.9697,3.9597,3.9095,3.9321,3.9572,3.907,3.9321,3.9697,3.9697,3.9697,3.9697,3.9697,3.9697,3.9697,3.9697,3.9697,3.9697,3.9697,3.9697,3.9697,3.9697,3.9697,3.8835,3.6457,3.5605,3.4007,3.078,3.0354,2.9755,2.8415,2.8301,2.8301,2.8301,2.8301,2.8301,2.8301,2.8301,2.8301,2.8301,2.8301,2.8301,2.8301,2.8301,2.8301,2.8301,2.8301,2.8301,4.4303,4.7572,5.0383,5.1196,5.1993,5.2395,5.1913,5.0747,4.9192,4.7073,4.5708,4.4141,0.0,0.0,0.0,4.5914,4.7649,0.0,5.1439,5.2001,0.0,4.9516,0.0,5.0451,4.9157,4.9733,0.0,0.0,5.1977,5.2611,5.4132,5.485,5.5179,5.5179,5.5179,5.479,5.3952,5.1973,5.0192,4.8638,4.4875,4.3942,4.5332,4.291,4.2779,4.4326,4.2398,4.1419,4.1018,3.9499,3.9145,3.9421,3.8894,3.8894,3.9295,3.9421,3.9496,3.9496,3.9496,3.9572,3.9697,3.9697,3.9697,3.9697,3.9697,3.9697,3.9672,3.9521,3.9597,3.9672,3.9521,3.9597,3.9697,3.9697,3.9697,3.9697,3.9697,3.9697,3.9697,3.9697,3.9697,3.9697,3.9697,3.9697,3.9697,3.9697,3.9697,3.9318,3.8288,3.6763,3.4922,3.2701,3.1167,2.9755,2.8415,2.8301,2.8301,2.8301,2.8301,2.8301,2.8301,2.8301,2.8301,2.8301,2.8301,2.8301,2.8301,2.8301,2.8301,2.8301,2.8301,2.8301,4.8377,5.1577,5.4209,5.4267,5.4313,5.3978,5.2436,5.0642,4.8445,4.5315,4.4107,4.2741,3.9946,4.086,4.2553,0.0,0.0,0.0,5.0152,5.1289,5.1349,0.0,5.1169,0.0,5.0272,5.105,5.2037,0.0,5.2456,5.2695,5.4107,5.485,5.5179,5.5179,5.491,5.4311,5.3324,5.0661,4.8858,4.7889,4.4565,4.351,4.4484,4.2496,4.2374,4.3646,0.0,4.1294,4.0692,3.9677,3.9446,3.9672,3.9371,3.9446,3.9697,3.9697,3.9697,3.9697,3.9697,3.9697,3.9697,3.9697,3.9697,3.9697,3.9697,3.9697,3.9697,3.9697,3.9697,3.9697,3.9697,3.9697,3.9697,3.9697,3.9697,3.9697,3.9697,3.9697,3.9697,3.9697,3.9697,3.9697,3.9697,3.9697,3.9697,3.9697,3.9697,3.9572,3.9296,3.7863,3.6172,3.4289,3.2339,3.0618,2.9276,2.8654,2.8301,2.8301,2.8301,2.8301,2.8301,2.8476,2.8476,2.8301,2.8476,2.8476,2.8301,2.8301,2.8301,2.8301,2.8301,2.8301,5.1881,5.4868,5.7395,5.6766,5.6385,5.548,5.2638,4.9999,4.6989,4.2963,4.1995,4.1068,3.844,3.9058,4.0419,4.1776,0.0,4.5428,4.8169,4.9591,5.0368,5.0458,5.1654,5.2247,5.1654,5.2127,5.2965,5.4107,5.3563,5.3528,5.4311,5.488,5.5149,5.5059,5.4341,5.3354,5.2067,4.9498,4.7592,4.6287,4.3671,4.2459,4.2531,4.1704,4.1444,4.1591,0.0,0.0,3.9697,3.9697,3.9697,3.9697,3.9697,3.9697,3.9697,3.9697,3.9697,3.9697,3.9697,3.9697,3.9697,3.9697,3.9697,3.9697,3.9697,3.9697,3.9697,3.9697,3.9697,3.9697,3.9697,3.9697,3.9697,3.9697,3.9697,3.9722,3.9798,3.9798,3.9798,3.9697,3.9697,3.9697,3.9697,3.9697,3.9697,3.9697,3.9697,3.9697,3.9697,3.8768,3.7345,3.5335,3.3492,3.1808,3.0256,2.9019,2.8301,2.8301,2.834,2.8379,2.8379,2.8703,2.8769,2.8476,2.8769,2.8769,2.8457,2.8457,2.8457,2.8457,2.8398,2.8379,5.4895,5.6668,5.7796,5.7662,5.5341,5.2604,5.0879,4.6819,4.3078,4.1677,4.0426,3.942,3.889,3.9844,4.1484,4.3809,4.4794,4.6346,4.9442,5.0548,5.1236,0.0,5.3054,5.3832,5.3688,5.3803,0.0,0.0,0.0,0.0,5.497,5.5119,5.494,5.4401,5.3174,5.2187,5.1385,4.9313,4.7645,4.6351,4.3789,4.2847,4.3211,4.1021,4.0592,4.1517,0.0,0.0,3.9697,3.9697,3.9697,3.9697,3.9697,3.9697,3.9697,3.9697,3.9697,3.9697,3.9697,3.9697,3.9697,3.9697,3.9697,3.9697,3.9697,3.9697,3.9697,3.9697,3.9697,3.9697,3.9697,3.9697,3.9697,3.9697,3.9697,3.9823,4.0275,4.0349,4.0249,3.9798,3.9697,3.9697,3.9697,3.9697,3.9697,3.9697,3.9697,3.9697,3.9697,3.9145,3.7706,3.4994,3.3704,3.1976,2.9385,2.8611,2.8301,2.8301,2.8613,2.8809,2.8809,2.8859,2.9062,2.9364,2.9062,2.9062,2.9383,2.9383,2.9383,2.9364,2.8984,2.8809,5.6716,5.7786,5.8287,5.7509,5.4499,5.1032,4.8409,4.4654,4.1204,3.9288,3.8633,3.843,3.843,3.9468,4.0968,4.2928,4.3354,4.4599,4.7803,4.9072,5.0182,5.1528,5.3473,5.4581,0.0,5.4221,0.0,0.0,0.0,0.0,5.4127,5.4186,5.3832,5.3174,5.1856,5.069,4.9692,4.7725,4.5961,4.4387,4.2843,4.1855,4.1493,4.0262,4.0032,4.0567,0.0,0.0,3.9697,3.9697,3.9697,3.9697,3.9697,3.9697,3.9697,3.9697,3.9697,3.9697,3.9697,3.9697,3.9697,3.9697,3.9697,3.9697,3.9697,3.9697,3.9697,3.9697,3.9697,3.9697,3.9697,3.9898,4.0049,3.9772,3.9697,3.9848,4.0374,4.03,3.9998,3.9747,3.9697,3.9697,3.9697,3.9697,3.9697,3.9697,3.9697,3.9697,3.9697,3.8803,3.7549,3.5852,3.3714,3.1726,3.0126,2.9362,2.8867,2.8633,2.9023,2.9258,2.9258,2.9473,2.957,2.9598,2.957,2.957,2.9598,2.9598,2.9598,2.9598,2.9355,2.9258,5.7137,5.7848,5.7965,5.6664,5.3281,4.9424,4.621,4.2625,3.9377,3.7224,3.711,3.7401,3.7439,3.8509,3.9785,4.0994,4.1468,4.2829,4.6105,4.7822,4.9425,5.1324,5.3531,0.0,5.4037,0.0,0.0,0.0,0.0,0.0,5.2749,5.2636,5.2306,5.1798,5.0359,4.9062,4.7908,4.5797,4.3938,4.2378,4.1579,4.0668,3.9697,3.9697,3.9697,3.9697,0.0,0.0,0.0,3.9697,3.9697,3.9697,3.9697,3.9697,3.9697,3.9697,3.9697,3.9697,3.9697,3.9697,3.9697,3.9697,3.9697,3.9697,3.9697,3.9697,3.9697,3.9697,3.9697,3.9697,3.9697,4.0099,4.0399,4.0124,4.0124,4.0275,4.0449,4.035,4.0149,3.9923,3.9873,3.9873,3.9873,3.9772,3.9697,3.9697,3.9697,3.9697,3.9697,3.8137,3.6885,3.6435,3.3614,3.1502,3.0899,3.0058,2.9442,2.9082,2.9473,2.9735,2.9735,3.0019,3.0098,2.9891,3.0078,3.0078,2.9872,2.9872,2.9872,2.9872,2.9774,2.9735,5.5327,5.5936,5.58,5.5006,5.0947,4.6752,4.5074,4.0257,3.6253,3.6716,3.6265,3.5845,3.5889,3.7072,3.8254,3.8811,4.0575,4.3041,4.6394,4.8698,5.0697,5.2445,0.0,0.0,5.3326,0.0,0.0,0.0,0.0,0.0,0.0,5.0817,5.0458,5.0398,4.86,4.7297,4.6581,4.4111,4.2477,4.167,4.0466,3.9826,3.9697,3.9697,3.9697,3.9697,0.0,0.0,0.0,3.9697,3.9697,3.9697,3.9697,3.9697,3.9697,3.9697,3.9697,3.9697,3.9697,3.9697,3.9697,3.9697,3.9697,3.9697,3.9697,3.9697,3.9697,3.9697,3.9697,3.9697,3.9697,4.0099,4.06,4.1051,4.1555,4.1683,4.0727,4.1254,4.1658,4.0626,4.0424,4.0424,4.0424,4.0023,3.9697,3.9697,3.9697,3.9697,3.9697,3.7237,3.5485,3.5413,3.3571,3.1774,3.039,2.985,2.9579,2.954,2.9931,3.0137,3.0137,3.0176,3.0371,3.0762,3.0391,3.0391,3.0762,3.0762,3.0762,3.0762,3.0332,3.0137,5.3044,5.4025,5.4076,5.2875,4.8984,4.4838,4.2455,3.8621,3.5566,3.543,3.5148,3.5239,3.6187,3.6479,3.6914,3.7965,3.7799,3.8714,4.2031,4.4005,4.6174,4.9144,5.1247,0.0,0.0,0.0,0.0,0.0,0.0,0.0,0.0,4.9374,4.9294,4.8518,4.6976,4.5487,4.4123,4.2259,4.1029,4.0465,3.9929,3.9697,3.9697,3.9697,3.9697,3.9697,0.0,0.0,0.0,3.9697,3.9697,3.9697,3.9697,3.9697,3.9697,3.9697,3.9697,3.9697,3.9697,3.9697,3.9697,3.9697,3.9697,3.9697,3.9697,3.9697,3.9697,3.9697,3.9697,3.9697,3.9697,4.0099,4.0827,4.2032,4.1982,4.163,4.1557,4.158,4.143,4.065,4.0499,4.04,4.0074,3.9848,3.9697,3.9697,3.9697,3.9388,3.8479,3.6568,3.4958,3.4069,3.2478,3.1157,3.0272,3.0293,3.0254,2.9989,3.0371,3.0605,3.0605,3.0605,3.0703,3.0879,3.0703,3.0703,3.0898,3.0898,3.0898,3.0879,3.0703,3.0605,4.9526,5.0913,5.1505,5.022,4.6549,4.2672,4.0312,3.7099,3.4539,3.4235,3.4167,3.443,3.5365,3.5446,3.5623,3.6396,3.5841,3.6414,3.9608,4.1286,4.3318,4.6294,0.0,0.0,0.0,0.0,0.0,0.0,0.0,0.0,0.0,4.7837,4.7718,4.6859,4.5477,4.3966,4.2298,4.0952,4.0074,3.9697,3.9697,3.9697,3.9697,3.9697,3.9697,0.0,0.0,0.0,0.0,3.9697,3.9697,3.9697,3.9697,3.9697,3.9697,3.9697,3.9697,3.9697,3.9697,3.9697,3.9697,3.9697,3.9697,3.9697,3.9697,3.9697,3.9697,3.9697,3.9798,3.9973,4.0149,4.0576,4.1329,4.2688,4.2384,4.1882,4.2135,4.1982,4.1628,4.1103,4.0877,4.0625,4.0249,3.9898,3.9697,3.9697,3.9697,3.9155,3.769,3.6217,3.4736,3.3275,3.1767,3.0762,3.043,3.0703,3.0762,3.043,3.0703,3.0898,3.0898,3.0898,3.0898,3.0898,3.0898,3.0898,3.0898,3.0898,3.0898,3.0898,3.0898,3.0898,4.4465,4.6278,4.7785,4.7022,4.3484,3.9943,3.9186,3.5532,3.253,3.3254,3.3413,3.3216,3.2643,3.3665,3.4381,3.3652,3.5362,3.778,4.0696,4.2414,4.3812,0.0,0.0,0.0,0.0,0.0,0.0,0.0,0.0,0.0,0.0,0.0,4.544,4.5417,4.4191,4.2909,4.1617,4.0338,3.9697,3.9697,3.9697,3.9697,3.9697,3.9697,0.0,0.0,0.0,0.0,0.0,3.9697,3.9697,3.9697,3.9697,3.9697,3.9697,3.9697,3.9697,3.9697,3.9697,3.9697,3.9697,3.9697,3.9697,3.9697,3.9697,3.9697,3.9697,3.9697,4.0099,4.06,4.1152,4.1731,4.2338,4.2864,4.2989,4.2838,4.2286,4.2612,4.2813,4.2313,4.1706,4.1275,4.1275,4.0399,3.9697,3.9697,3.9697,3.9155,3.769,3.6217,3.4736,3.3275,3.1767,3.0898,3.0879,3.0898,3.0898,3.0879,3.0898,3.0898,3.0898,3.0898,3.0898,3.0898,3.0898,3.0898,3.0898,3.0898,3.0898,3.0898,3.0898,3.0898,4.1022,4.2408,4.3152,4.2408,4.002,3.7506,3.6208,3.4043,3.2361,3.2588,3.2655,3.2913,3.374,3.3478,3.3553,3.4746,3.4729,3.5186,0.0,0.0,0.0,4.3051,0.0,0.0,0.0,0.0,0.0,0.0,0.0,0.0,0.0,0.0,4.4463,4.3592,4.2331,4.085,3.9163,3.9146,3.9145,3.917,3.9521,3.9697,3.9697,3.9697,0.0,0.0,0.0,0.0,0.0,3.9697,3.9697,3.9697,3.9697,3.9697,3.9697,3.9697,3.9697,3.9697,3.9697,3.9697,3.9697,3.9697,3.9697,3.9697,3.9697,3.9697,3.9772,4.0149,4.0349,4.0727,4.1683,4.206,4.2363,4.2864,4.3014,4.2964,4.2788,4.2889,4.2838,4.2286,4.2034,4.1781,4.1378,4.07,4.0249,4.0249,3.9923,3.8816,3.6325,3.559,3.437,3.1854,3.117,3.0898,3.0898,3.0898,3.0898,3.0898,3.0898,3.0898,3.0898,3.0898,3.0898,3.0898,3.0898,3.0898,3.0898,3.0898,3.0898,3.0898,3.0898,3.0898,3.6896,3.8113,3.87,3.8824,3.6801,3.46,3.3907,3.2588,3.1549,3.1549,3.1948,3.243,3.2862,3.2494,3.2552,3.3824,3.3525,3.3682,0.0,0.0,0.0,4.1779,0.0,0.0,0.0,0.0,0.0,0.0,0.0,0.0,0.0,0.0,4.2834,4.1373,4.0772,3.9667,3.8015,3.8366,3.8567,3.8567,3.9145,3.9396,3.9421,0.0,0.0,0.0,0.0,0.0,0.0,3.9697,3.9697,3.9697,3.9697,3.9697,3.9697,3.9697,3.9697,3.9697,3.9697,3.9697,3.9697,3.9697,3.9697,3.9697,3.9697,3.9697,3.9798,4.035,4.065,4.1028,4.1959,4.2336,4.2587,4.2914,4.3014,4.3014,4.3014,4.3014,4.2914,4.2562,4.2363,4.2085,4.1706,4.1028,4.0499,4.0499,3.958,3.8005,3.5617,3.482,3.3557,3.117,3.0898,3.0898,3.0898,3.0898,3.0898,3.0898,3.0898,3.0898,3.0898,3.0898,3.0898,3.0898,3.0898,3.0898,3.0898,3.0898,3.0898,3.0898,3.0898,3.0898,0.0,3.3558,3.4449,3.5881,3.3717,3.1428,3.2155,3.1274,0.0,3.0339,3.1332,3.1844,3.0725,3.0982,3.142,3.1601,3.2123,0.0,0.0,3.673,0.0,0.0,0.0,0.0,0.0,0.0,0.0,0.0,0.0,0.0,0.0,0.0,0.0,3.9034,3.9401,3.9077,3.7889,3.7939,3.7939,3.7965,3.8567,3.8843,3.8843,0.0,0.0,0.0,0.0,0.0,0.0,3.9697,3.9697,3.9697,3.9697,3.9697,3.9697,3.9697,3.9697,3.9697,3.9697,3.9697,3.9697,3.9697,3.9697,3.9697,3.9697,3.9697,3.9823,4.04,4.0926,4.1453,4.2085,4.2612,4.3014,4.3014,4.3014,4.3014,4.3014,4.3014,4.3014,4.3014,4.2587,4.2263,4.2263,4.1356,4.06,4.06,3.8971,3.715,3.5553,3.4118,3.2644,3.1054,3.0898,3.0898,3.0898,3.0898,3.0898,3.0898,3.0898,3.0898,3.0898,3.0898,3.0898,3.0898,3.0898,3.0898,3.0898,3.0898,3.0898,3.0898,3.0898,3.0898,2.8779,0.0,3.0398,3.0736,3.02,2.9768,0.0,3.0387,3.033,3.0878,3.088,3.1009,3.1777,3.0847,3.0627,3.2707,0.0,0.0,3.4543,0.0,0.0,0.0,0.0,0.0,0.0,0.0,0.0,0.0,0.0,0.0,0.0,0.0,0.0,3.7775,3.7415,3.7091,3.6783,3.7185,3.7387,3.7387,3.7939,3.8216,3.8241,0.0,0.0,0.0,0.0,0.0,3.9697,3.9697,3.9697,3.9697,3.9697,3.9697,3.9697,3.9697,3.9697,3.9697,3.9697,3.9697,3.9697,3.9697,3.9697,3.9697,3.9697,3.9697,3.9898,4.0851,4.1202,4.1528,4.2562,4.2914,4.3014,4.3014,4.3014,4.3014,4.3014,4.3014,4.3014,4.3014,4.2889,4.2813,4.2813,4.2235,4.1783,4.1783,4.0661,3.8849,3.6238,3.5235,3.3782,3.117,3.0898,3.0898,3.0898,3.0898,3.0898,3.0898,3.0898,3.0898,3.0898,3.0898,3.0898,3.0898,3.0898,3.0898,3.0898,3.0898,3.0898,3.0898,3.0898,3.0898,2.719,2.7875,2.8619,2.9339,2.9052,2.8872,2.9942,2.9674,2.9474,3.0563,3.0263,3.0061,3.089,2.9935,2.9718,3.1796,3.2099,0.0,0.0,0.0,0.0,0.0,0.0,0.0,0.0,0.0,0.0,0.0,0.0,0.0,0.0,0.0,0.0,0.0,3.5796,3.5879,3.6405,3.6683,3.6833,3.6833,3.7386,3.7638,3.7638,3.8216,0.0,0.0,0.0,0.0,3.9697,3.9697,3.9697,3.9697,3.9697,3.9697,3.9697,3.9697,3.9697,3.9697,3.9697,3.9697,3.9697,3.9697,3.9697,3.9697,3.9697,3.9873,4.0249,4.1076,4.1302,4.1553,4.2685,4.3014,4.3014,4.3014,4.3014,4.3014,4.3014,4.3014,4.2939,4.2688,4.2838,4.2838,4.2308,4.221,4.211,4.1831,4.069,3.9201,3.7358,3.6276,3.4722,3.217,3.1911,3.1643,3.0957,3.0898,3.0898,3.0898,3.0898,3.0898,3.0898,3.0898,3.0898,3.0898,3.0898,3.0898,3.0898,3.0898,3.0898,3.0898,3.0898,3.1257,2.67,2.7224,2.8094,2.9287,2.8824,2.8378,2.9621,2.895,2.8444,2.9829,2.9541,2.9108,2.9196,2.8842,0.0,0.0,0.0,0.0,0.0,0.0,0.0,0.0,0.0,0.0,0.0,0.0,0.0,0.0,0.0,0.0,0.0,0.0,0.0,0.0,3.4653,3.5177,3.613,3.613,3.613,3.6155,3.6659,3.6935,3.696,3.7588,0.0,0.0,0.0,0.0,3.9572,3.9572,3.9622,3.9697,3.9697,3.9697,3.9697,3.9697,3.9697,3.9697,3.9697,3.9697,3.9697,3.9697,3.9697,3.9697,3.9697,4.0023,4.0499,4.1127,4.1378,4.1679,4.2738,4.3014,4.3014,4.3014,4.3014,4.3014,4.3014,4.3014,4.2864,4.2386,4.2688,4.2688,4.1603,4.1856,4.2009,4.1403,4.0177,3.9063,3.8391,3.7155,3.5485,3.3346,3.3106,3.2501,3.1025,3.0898,3.0918,3.0976,3.0918,3.0898,3.0898,3.0898,3.0898,3.0898,3.0898,3.0898,3.0898,3.0898,3.0898,3.0898,3.0898,3.1681,2.67,2.7224,2.7722,2.7334,2.7543,2.7902,2.8138,2.8003,2.8113,2.9016,2.8789,2.8458,2.8456,2.8544,2.8995,0.0,0.0,0.0,0.0,0.0,0.0,0.0,0.0,0.0,0.0,0.0,0.0,0.0,0.0,0.0,0.0,0.0,0.0,0.0,0.0,3.4778,3.4954,3.4954,3.4954,3.4954,3.5506,3.5759,3.5807,3.6835,3.7386,0.0,0.0,3.8467,3.9019,3.9019,3.9296,3.9697,3.9697,3.9697,3.9697,3.9697,3.9697,3.9697,3.9697,3.9697,3.9697,3.9697,3.9697,3.9697,3.9697,3.9747,4.0023,4.1026,4.1681,4.221,4.2838,4.3014,4.3014,4.3014,4.3014,4.3014,4.3014,4.3014,4.2989,4.2889,4.2939,4.2813,4.216,4.2135,4.2009,4.1403,4.0714,3.9808,3.8479,3.7723,3.6204,3.3388,3.3106,3.2501,3.1025,3.0898,3.1055,3.1406,3.1094,3.0898,3.0898,3.0898,3.0898,3.0898,3.0898,3.0898,3.0898,3.0898,3.0898,3.0898,3.0898,3.1681,2.67,2.7224,2.7621,2.6894,2.7258,2.779,2.779,2.7494,2.756,2.8848,2.837,2.7858,2.8329,0.0,2.9907,3.2272,0.0,0.0,0.0,0.0,0.0,0.0,0.0,0.0,0.0,0.0,0.0,0.0,0.0,0.0,0.0,0.0,0.0,0.0,0.0,3.3348,3.3348,3.3348,3.38,3.4703,3.4954,3.5079,3.5104,3.5907,3.6458,3.6808,0.0,3.7889,3.8442,3.8768,3.9044,3.9296,3.9572,3.9697,3.9697,3.9697,3.9697,3.9697,3.9697,3.9697,3.9697,3.9697,3.9697,3.9697,3.9697,3.9898,4.03,4.1076,4.1503,4.1907,4.2788,4.3014,4.3014,4.3014,4.3014,4.3014,4.3014,4.3014,4.2914,4.2612,4.2788,4.2363,4.043,4.1268,4.1638,3.9932,4.0395,4.0561,3.9625,3.9275,3.8185,3.5727,3.4764,3.3698,3.2207,3.1354,3.0976,3.1172,3.1211,3.1133,3.0898,3.0898,3.0898,3.0898,3.0898,3.1296,3.2092,3.1267,3.1296,3.2064,3.1267,3.2121,2.67,2.7097,2.7359,2.6623,2.7122,2.7858,2.8027,2.7617,2.7636,2.9131,2.849,2.7803,2.8174,2.9108,0.0,3.3769,0.0,0.0,0.0,0.0,0.0,0.0,0.0,0.0,0.0,0.0,0.0,0.0,0.0,0.0,0.0,0.0,0.0,0.0,3.1993,3.2089,3.2194,3.2194,3.2918,3.4349,3.4452,3.4502,3.4527,3.5182,3.5757,3.623,3.6783,3.7336,3.7839,3.8316,3.8668,3.8944,3.9346,3.9572,3.9697,3.9697,3.9697,3.9697,3.9697,3.9697,3.9697,3.9697,3.9697,3.9697,3.9697,3.9998,4.0449,4.1127,4.1302,4.1553,4.2685,4.3014,4.3014,4.3014,4.3014,4.3014,4.3014,4.3014,4.2889,4.2462,4.241,4.1762,3.957,4.0428,4.0895,3.9252,4.0108,4.0826,4.0524,4.04,3.96,3.7711,3.6603,3.5485,3.4111,3.2354,3.1466,3.171,3.1594,3.1328,3.0918,3.0898,3.0898,3.0898,3.1238,3.1949,3.3106,3.2322,3.2522,3.3564,3.2092,3.3013,2.67,2.6733,2.659,2.5871,2.6742,2.7993,2.873,2.8805,2.9016,2.992,2.9596,2.8823,2.7686,2.91,3.112,3.3215,0.0,0.0,0.0,0.0,0.0,0.0,0.0,0.0,0.0,0.0,0.0,0.0,0.0,0.0,0.0,0.0,0.0,0.0,0.0,3.1687,3.2215,3.2194,3.2541,3.3215,3.3721,3.3947,3.3997,3.5029,3.5508,3.5583,3.6205,3.6758,3.7261,3.7311,3.7939,3.8894,3.8944,3.9271,3.9697,3.9697,3.9697,3.9697,3.9697,3.9697,3.9697,3.9697,3.9697,3.9697,3.9697,3.9722,3.9973,4.1026,4.1302,4.1553,4.2685,4.3014,4.3014,4.3014,4.3014,4.3014,4.3014,4.3014,4.2989,4.2964,4.1761,4.1026,4.1778,4.0379,3.9596,4.0877,4.0371,3.9973,4.0424,4.0074,3.9179,3.7663,3.7851,3.7699,3.6708,3.4189,3.3113,3.4152,3.2514,3.1328,3.0918,3.0898,3.0898,3.0898,3.2236,3.2992,3.3106,3.4376,3.5041,3.5096,3.362,3.452,2.67,2.67,2.6632,2.6353,2.7055,2.7891,2.8171,2.9336,3.0309,3.0264,3.0806,3.1136,3.0654,0.0,3.1914,0.0,0.0,0.0,0.0,0.0,0.0,0.0,0.0,0.0,0.0,0.0,0.0,0.0,0.0,0.0,0.0,0.0,0.0,0.0,0.0,3.1009,3.119,3.1537,3.1813,3.206,3.2964,3.3416,3.3442,3.4502,3.5004,3.5054,3.6004,3.6531,3.6733,3.706,3.7462,3.7914,3.8617,3.9245,3.9697,3.9697,3.9697,3.9697,3.9697,3.9697,3.9697,3.9697,3.9697,3.9697,3.9697,3.9697,3.9923,4.1001,4.1302,4.1553,4.2685,4.3014,4.3014,4.3014,4.3014,4.3014,4.3014,4.3014,4.3014,4.3014,4.17,4.0221,3.9113,3.8387,3.7872,3.7614,3.8503,3.9389,3.9918,4.0124,3.984,3.8971,3.8516,3.752,3.5555,3.4712,3.3963,3.3115,3.2354,3.1738,3.1289,3.1035,3.1325,3.2264,3.194,3.3077,3.584,3.457,3.4403,3.5261,3.3789,3.4181,2.6394,2.6353,2.6353,2.6353,2.7266,2.8306,2.8779,3.045,3.1926,3.2001,3.2147,3.222,3.2192,0.0,0.0,0.0,0.0,0.0,0.0,0.0,0.0,0.0,0.0,0.0,0.0,0.0,0.0,0.0,0.0,0.0,0.0,0.0,0.0,0.0,0.0,0.0,3.0588,3.0959,3.1235,3.1432,3.2185,3.2663,3.2842,3.3947,3.4527,3.4753,3.5705,3.623,3.643,3.6808,3.706,3.7311,3.824,3.8969,3.9446,3.9446,3.9546,3.9697,3.9697,3.9697,3.9697,3.9697,3.9697,3.9697,3.9697,3.9697,3.9898,4.08,4.1177,4.1528,4.2512,4.2864,4.3014,4.3014,4.3014,4.3014,4.3014,4.3014,4.3014,4.3014,4.1276,3.9436,3.8258,3.7698,3.7309,3.7018,3.8508,3.9843,4.042,4.0651,4.06,4.0249,3.9345,3.8008,3.6119,3.5614,3.4691,3.3025,3.259,3.2168,3.1738,3.1191,3.1645,3.3259,3.2153,3.3304,3.6784,3.4792,3.432,3.5261,3.3789,3.3873,2.5721,2.5601,2.5601,2.5634,2.7309,2.9382,3.0862,3.2363,3.3827,3.5371,3.3585,3.1658,3.1549,3.154,0.0,0.0,0.0,0.0,0.0,0.0,0.0,0.0,0.0,0.0,0.0,0.0,0.0,0.0,0.0,0.0,0.0,0.0,0.0,0.0,0.0,0.0,3.0608,3.0608,3.0859,3.1361,3.1406,3.1687,3.2244,3.337,3.4198,3.4728,3.5257,3.5832,3.6405,3.6405,3.6708,3.7236,3.7789,3.8341,3.8894,3.8894,3.9245,3.9697,3.9697,3.9697,3.9697,3.9697,3.9697,3.9697,3.9697,3.9697,3.9798,4.035,4.0876,4.1428,4.2034,4.2587,4.2989,4.3014,4.3014,4.3014,4.3014,4.3014,4.3014,4.3014,4.0419,3.8728,4.0332,3.8815,3.8131,4.0266,4.0992,4.1528,4.211,4.1681,4.1275,4.1275,4.0359,3.9593,3.9098,3.706,3.5407,3.4513,3.3417,3.2598,3.2218,3.1348,3.1785,3.3641,3.3308,3.3789,3.5288,3.5288,3.5288,3.5233,3.3761,3.3873,2.5705,2.5601,2.5837,2.6877,2.8078,2.9517,3.1515,3.2702,3.3672,3.4715,3.3472,3.2344,3.2841,0.0,0.0,0.0,0.0,0.0,0.0,0.0,0.0,0.0,0.0,0.0,0.0,0.0,0.0,0.0,0.0,0.0,0.0,0.0,0.0,0.0,0.0,0.0,3.1024,3.1402,3.1138,3.0281,3.1055,3.1687,3.224,3.2993,3.3621,3.4198,3.5104,3.5583,3.5782,3.623,3.6708,3.7235,3.7386,3.8039,3.8894,3.8894,3.9245,3.9697,3.9697,3.9697,3.9697,3.9697,3.9697,3.9697,3.9697,3.9697,3.9798,4.035,4.06,4.0876,4.1403,4.1679,4.2032,4.2813,4.3014,4.3014,4.3014,4.3014,4.3014,4.3014,4.1305,3.9953,4.0145,3.8942,3.8319,3.94,4.0274,4.0989,4.152,4.1076,4.0328,3.9312,3.8919,3.7957,3.6033,3.5264,3.4288,3.2975,3.2244,3.1836,3.1719,3.1465,3.1945,3.3238,3.2125,3.2786,3.5288,3.4264,3.3733,3.3733,3.3304,3.3501,2.4842,2.4932,2.5507,2.6987,2.8416,3.0016,3.2215,3.3535,3.4544,3.5296,3.3887,3.2648,3.3021,0.0,0.0,0.0,0.0,0.0,0.0,0.0,0.0,0.0,0.0,0.0,0.0,0.0,0.0,0.0,0.0,0.0,0.0,0.0,0.0,0.0,0.0,0.0,3.1204,3.151,3.1052,2.9804,3.0477,3.106,3.1591,3.239,3.3169,3.3947,3.4803,3.5282,3.5533,3.5906,3.6381,3.6884,3.6884,3.7436,3.8215,3.8215,3.8718,3.9396,3.9396,3.9521,3.9697,3.9697,3.9697,3.9697,3.9697,3.9697,3.9772,4.0099,4.035,4.0575,4.0901,4.1152,4.1478,4.2158,4.2512,4.2688,4.2688,4.2838,4.3014,4.3014,4.17,4.0526,4.0273,3.9464,3.9024,3.9599,4.056,4.1258,4.1293,4.1026,4.0381,3.9282,3.8833,3.759,3.5027,3.462,3.3697,3.1799,3.1738,3.1621,3.1289,3.1269,3.1925,3.3322,3.1752,3.2064,3.4403,3.2957,3.2236,3.2236,3.2236,3.2432,2.3669,2.4034,2.4948,2.642,2.8619,3.0978,3.3108,3.4629,3.5734,3.6299,0.0,3.287,3.2628,0.0,0.0,0.0,0.0,0.0,0.0,0.0,0.0,0.0,0.0,0.0,0.0,0.0,0.0,0.0,0.0,0.0,0.0,0.0,0.0,0.0,0.0,0.0,3.1462,3.1462,3.0932,0.0,2.9934,3.0178,3.0638,3.1591,3.2717,3.3847,3.4377,3.4954,3.5508,3.5508,3.5857,3.6405,3.6405,3.6733,3.721,3.721,3.7914,3.8894,3.8894,3.9245,3.9697,3.9697,3.9697,3.9697,3.9697,3.9697,3.9697,3.9697,4.0049,4.0424,4.0424,4.0775,4.1152,4.1152,4.1656,4.211,4.2213,4.2537,4.2864,4.2914,4.1691,4.0674,4.0751,4.0292,4.0101,4.0579,4.1474,4.1909,4.1302,4.1227,4.0973,4.0316,3.9352,3.7761,3.5323,3.4525,3.322,3.1054,3.177,3.1879,3.0947,3.0918,3.1747,3.3397,3.1765,3.1556,3.2879,3.1536,3.0898,3.0898,3.0898,3.1133,2.4455,2.4804,2.5702,2.7181,3.0166,3.3108,3.4765,3.4975,3.4587,3.3617,3.4258,3.4616,0.0,0.0,0.0,0.0,0.0,0.0,0.0,0.0,0.0,0.0,0.0,0.0,0.0,0.0,0.0,0.0,0.0,0.0,0.0,0.0,0.0,0.0,0.0,3.4593,3.3429,3.3411,3.254,0.0,3.0895,3.0778,3.0613,3.0839,3.1813,3.3316,3.3847,3.4603,3.5508,3.5508,3.5857,3.6405,3.6405,3.6733,3.721,3.721,3.7914,3.8894,3.8894,3.9245,3.9697,3.9697,3.9697,3.9697,3.9697,3.9697,3.9697,3.9697,3.9772,3.9873,3.9873,3.9948,4.0049,4.0049,4.0802,4.163,4.2085,4.1907,4.1831,4.2286,4.1711,4.1315,4.1765,4.1365,4.1015,4.1114,4.1364,4.1277,4.0725,4.0675,4.0028,3.8328,3.6929,3.5429,3.3726,3.242,3.1435,3.0928,3.216,3.2296,3.0957,3.1211,3.1417,3.1492,3.1093,3.1054,3.1354,3.1054,3.0898,3.0898,3.0898,3.1309,2.4502,2.466,2.5617,2.7807,3.0649,3.3152,3.4292,3.4287,3.3825,3.3136,3.386,0.0,0.0,0.0,0.0,0.0,0.0,0.0,0.0,0.0,0.0,0.0,0.0,0.0,0.0,0.0,0.0,0.0,0.0,0.0,0.0,0.0,0.0,0.0,3.4861,3.4561,3.3593,3.3852,3.329,3.1883,3.1883,3.1511,3.09,3.0952,3.1612,3.2667,3.2968,3.3699,3.4728,3.4728,3.5205,3.5981,3.5981,3.6331,3.6808,3.6808,3.7361,3.8115,3.8391,3.8843,3.9371,3.9622,3.9697,3.9697,3.9697,3.9697,3.9697,3.9697,3.9697,3.9697,3.9697,3.9697,3.9697,3.9697,4.0299,4.1001,4.1304,4.1327,4.1403,4.1706,4.1503,4.1403,4.1706,4.1503,4.1127,4.06,4.075,4.0725,4.0199,4.0124,3.9738,3.8659,3.7237,3.6054,3.5266,3.3866,3.3013,3.3013,3.3726,3.3501,3.2006,3.2142,3.1834,3.0928,3.0898,3.0898,3.0898,3.0898,3.0898,3.0898,3.0898,3.1377,2.4496,2.4472,2.5354,2.8121,3.0262,3.1955,3.2814,3.3119,3.3319,3.3615,0.0,0.0,0.0,0.0,0.0,0.0,0.0,0.0,0.0,0.0,0.0,0.0,0.0,0.0,0.0,0.0,0.0,0.0,0.0,0.0,0.0,0.0,3.3365,3.3484,3.4039,3.3961,3.3189,3.3798,3.3631,3.2684,3.2636,3.2092,3.1193,3.1304,3.1569,3.1918,3.2139,3.2771,3.3771,3.3847,3.4527,3.5508,3.5508,3.5881,3.6405,3.6405,3.6808,3.7387,3.7839,3.8442,3.912,3.9546,3.9697,3.9697,3.9697,3.9697,3.9697,3.9697,3.9697,3.9697,3.9697,3.9697,3.9697,3.9697,4.0049,4.04,4.0474,4.0775,4.1051,4.1152,4.1177,4.1152,4.1051,4.1102,4.0826,3.9848,4.0074,4.0199,3.9747,3.9697,3.9697,3.9697,3.8374,3.7503,3.7503,3.6162,3.5288,3.5288,3.5535,3.4902,3.3162,3.336,3.2672,3.0928,3.0898,3.0898,3.0898,3.0898,3.0898,3.0898,3.0898,3.1377,2.5423,2.5412,2.5871,2.7528,2.8721,2.9788,3.12,3.1979,3.2804,0.0,0.0,0.0,0.0,0.0,0.0,0.0,0.0,0.0,0.0,0.0,0.0,0.0,0.0,0.0,0.0,0.0,0.0,0.0,0.0,0.0,0.0,3.2333,3.2916,3.3484,3.3574,3.3588,3.3434,3.4105,3.3953,3.3047,3.2741,3.2092,3.1212,3.1221,3.1087,3.0864,3.1792,3.2591,3.3241,3.3696,3.4527,3.5508,3.5508,3.5881,3.6405,3.6405,3.7034,3.7914,3.799,3.8693,3.9597,3.9672,3.9697,3.9697,3.9697,3.9697,3.9697,3.9697,3.9697,3.9697,3.9697,3.9697,3.9697,3.9697,3.9747,3.9923,4.04,4.0199,4.0049,4.0499,4.06,4.0449,3.9998,4.03,4.0399,3.9798,3.9747,3.9772,3.9697,3.9697,3.9697,3.9697,3.8374,3.7503,3.7503,3.6162,3.5288,3.5288,3.6487,3.5949,3.3219,3.432,3.3698,3.0937,3.0898,3.0898,3.0898,3.0898,3.0898,3.0898,3.0898,3.1377,2.5514,2.5168,2.5244,2.6311,2.7131,2.8121,2.961,3.0523,3.1369,0.0,0.0,0.0,0.0,0.0,0.0,0.0,0.0,0.0,0.0,0.0,0.0,0.0,0.0,0.0,0.0,0.0,0.0,0.0,0.0,0.0,3.0432,3.0702,3.118,3.1809,3.2183,3.2572,3.2946,3.3979,3.4476,3.4456,3.3727,3.2876,3.1965,3.1444,3.0988,3.0613,3.109,3.1813,3.2616,3.2867,3.3599,3.4628,3.4929,3.5406,3.5956,3.6281,3.6683,3.721,3.7789,3.8341,3.8843,3.9496,3.9697,3.9697,3.9697,3.9697,3.9697,3.9697,3.9697,3.9697,3.9697,3.9697,3.9697,3.9697,3.9697,3.9747,3.9998,3.9873,3.9772,3.9998,4.0049,3.9973,3.9747,3.9898,3.9973,3.9722,3.9697,3.9697,3.9697,3.9697,3.9697,3.9697,3.9103,3.8739,3.8739,3.8137,3.7767,3.7767,3.761,3.6541,3.4403,3.4153,3.307,3.0937,3.0898,3.0898,3.0898,3.0898,3.0898,3.0898,3.0898,3.1377,2.5408,2.4798,2.4643,2.5169,2.5575,2.6293,2.8028,0.0,2.9567,0.0,0.0,0.0,0.0,0.0,0.0,0.0,0.0,0.0,0.0,0.0,0.0,0.0,0.0,0.0,0.0,0.0,0.0,0.0,0.0,0.0,2.9338,2.9668,3.0013,3.0492,3.1152,3.1809,3.2482,3.3829,3.4847,3.5503,3.4756,3.3756,3.2575,3.1901,3.1111,3.0387,3.0538,3.1039,3.1792,3.2093,3.2792,3.3746,3.4299,3.4904,3.5533,3.6006,3.6356,3.6708,3.7513,3.7889,3.8165,3.917,3.9496,3.9521,3.9647,3.9697,3.9697,3.9697,3.9697,3.9697,3.9697,3.9697,3.9697,3.9697,3.9697,3.9697,3.9697,3.9697,3.9697,3.9697,3.9697,3.9697,3.9697,3.9697,3.9697,3.9697,3.9697,3.9697,3.9697,3.9697,3.9697,3.9697,3.9697,3.9697,3.9697,3.9362,3.931,3.9671,3.7979,3.6433,3.5343,3.3873,3.2416,3.0928,3.0898,3.0898,3.0898,3.0898,3.0898,3.0898,3.0898,3.1377,2.523,2.4761,2.4508,2.4541,2.406,2.412,0.0,0.0,0.0,0.0,0.0,0.0,0.0,0.0,0.0,0.0,0.0,0.0,0.0,0.0,0.0,0.0,0.0,0.0,0.0,0.0,0.0,0.0,0.0,0.0,2.8637,2.9804,3.0462,3.0492,3.1152,3.1809,3.2482,3.3829,3.4847,3.5519,3.5441,3.4426,3.2593,3.254,3.1544,2.9854,3.0382,3.0638,3.0763,3.1767,3.2566,3.319,3.3721,3.4577,3.5508,3.5533,3.6234,3.7185,3.7235,3.7563,3.8115,3.8743,3.8944,3.9044,3.9546,3.9697,3.9697,3.9697,3.9697,3.9697,3.9697,3.9697,3.9697,3.9697,3.9697,3.9697,3.9697,3.9697,3.9697,3.9697,3.9697,3.9697,3.9697,3.9697,3.9697,3.9697,3.9697,3.9697,3.9697,3.9697,3.9697,3.9697,3.9697,3.9697,3.9697,3.84,3.8216,3.962,3.6996,3.5371,3.5288,3.3873,3.2416,3.0928,3.0898,3.0898,3.0898,3.0898,3.0898,3.0898,3.0898,3.1377,2.4995,2.5055,2.5143,2.5143,2.4816,2.4824,2.6094,2.6566,0.0,0.0,0.0,0.0,0.0,0.0,0.0,0.0,0.0,0.0,0.0,0.0,0.0,0.0,0.0,0.0,0.0,0.0,0.0,0.0,0.0,0.0,2.7974,2.88,2.9475,2.9907,3.0957,3.2243,3.3769,3.3829,3.4412,3.5519,3.5519,3.4476,3.2593,3.2593,3.1599,2.9804,3.0005,3.0281,3.0663,3.1386,3.2014,3.2616,3.3545,3.4327,3.5029,3.5357,3.5983,3.6733,3.7085,3.7336,3.7563,3.814,3.8592,3.8944,3.9145,3.9446,3.9697,3.9697,3.9697,3.9697,3.9697,3.9697,3.9697,3.9697,3.9697,3.9697,3.9697,3.9697,3.9697,3.9697,3.9697,3.9697,3.9697,3.9697,3.9697,3.9697,3.9697,3.9697,3.9697,3.9697,3.9697,3.9697,3.9697,3.9697,3.9697,3.9232,3.9129,3.9671,3.6942,3.5288,3.5288,3.2985,3.1441,3.0928,3.0898,3.0898,3.0898,3.0898,3.1035,3.1289,3.1289,3.1758,2.5311,2.56,2.5928,2.5928,2.5504,2.5219,2.5718,0.0,0.0,0.0,0.0,0.0,0.0,0.0,0.0,0.0,0.0,0.0,0.0,0.0,0.0,0.0,0.0,0.0,0.0,0.0,0.0,0.0,0.0,0.0,2.7944,2.8757,2.9535,3.0223,3.1286,3.2572,3.4158,3.3949,3.424,3.5017,3.5017,3.399,3.2128,3.2128,3.1286,2.9804,2.9804,3.0005,3.0407,3.111,3.1612,3.2039,3.3194,3.4073,3.4728,3.4904,3.5579,3.643,3.6584,3.6759,3.7009,3.7563,3.8115,3.8642,3.8843,3.9271,3.9697,3.9697,3.9697,3.9697,3.9697,3.9697,3.9697,3.9697,3.9697,3.9697,3.9697,3.9697,3.9697,3.9697,3.9697,3.9697,3.9697,3.9697,3.9697,3.9697,3.9697,3.9697,3.9697,3.9697,3.9697,3.9697,3.9697,3.9697,3.9697,3.879,3.8425,3.8947,3.5727,3.4062,3.4542,3.2178,3.0898,3.0898,3.0898,3.0898,3.0898,3.0898,3.1113,3.1494,3.1494,3.1973,0.0,0.0,0.0,2.6832,0.0,0.0,2.5136,0.0,0.0,0.0,0.0,0.0,0.0,0.0,0.0,0.0,0.0,0.0,0.0,0.0,0.0,0.0,0.0,0.0,0.0,0.0,0.0,0.0,0.0,2.8607,2.8607,2.9804,3.0807,3.1511,3.2153,3.2811,3.3514,3.4128,3.4324,3.403,3.4013,3.3017,3.1241,3.1204,3.0696,2.9804,2.9804,2.9804,2.988,3.0979,3.1406,3.1507,3.2663,3.3746,3.4603,3.4123,3.4974,3.6281,3.5732,3.5906,3.6505,3.7009,3.7538,3.809,3.8693,3.9245,3.9672,3.9697,3.9697,3.9697,3.9697,3.9697,3.9697,3.9697,3.9697,3.9697,3.9697,3.9697,3.9697,3.9697,3.9697,3.9697,3.9697,3.9697,3.9697,3.9697,3.9697,3.9697,3.9697,3.9697,3.9697,3.9697,3.9697,3.9697,3.9645,3.7022,3.5972,3.7346,3.336,3.1614,3.3049,3.1681,3.0898,3.0898,3.0898,3.0898,3.0898,3.0898,3.1133,3.1513,3.1562,3.2012,2.6478,0.0,0.0,0.0,0.0,0.0,0.0,0.0,0.0,0.0,0.0,0.0,0.0,0.0,0.0,0.0,0.0,0.0,0.0,0.0,0.0,0.0,0.0,0.0,0.0,0.0,0.0,0.0,2.8559,2.8607,2.8607,2.9804,3.1031,3.2183,3.1929,3.2572,3.4218,3.3455,3.3749,3.5083,3.391,3.2953,3.2182,3.1518,3.0696,2.9804,2.9804,2.9804,2.988,3.0979,3.1406,3.1507,3.2663,3.3517,3.4148,3.4377,3.5004,3.5782,3.6056,3.6256,3.643,3.6557,3.6984,3.7513,3.8065,3.8668,3.9195,3.9572,3.9697,3.9697,3.9697,3.9697,3.9697,3.9697,3.9697,3.9697,3.9697,3.9697,3.9697,3.9697,3.9697,3.9697,3.9697,3.9697,3.9697,3.9697,3.9697,3.9697,3.9697,3.9697,3.9697,3.9697,3.9697,3.9284,3.8216,3.737,3.6595,3.5945,3.3782,3.2672,3.3077,3.1681,3.0898,3.0898,3.0898,3.0898,3.0898,3.1191,3.1562,3.2042,3.2617,3.2996,0.0,0.0,0.0,0.0,0.0,0.0,2.6464,2.5689,0.0,0.0,0.0,0.0,0.0,0.0,0.0,0.0,0.0,0.0,0.0,0.0,0.0,0.0,0.0,0.0,0.0,0.0,0.0,0.0,2.871,2.8846,2.9355,3.0358,3.1286,3.2049,3.169,3.2333,3.4069,3.3305,3.3597,3.4856,3.3515,3.2587,3.1965,3.1044,3.0305,2.9804,2.9804,2.9804,2.988,3.0979,3.1406,3.1507,3.2663,3.3442,3.3947,3.4248,3.4853,3.5533,3.5906,3.6205,3.6405,3.6405,3.6758,3.7261,3.7563,3.8241,3.8969,3.9296,3.9547,3.9697,3.9697,3.9697,3.9697,3.9697,3.9697,3.9697,3.9697,3.9697,3.9697,3.9697,3.9697,3.9697,3.9697,3.9697,3.9697,3.9697,3.9697,3.9697,3.9697,3.9697,3.9597,3.9396,3.8834,3.8064,3.6966,3.5944,3.5007,3.4125,3.2888,3.2178,3.2178,3.1354,3.0898,3.0898,3.0898,3.0976,3.1152,3.123,3.1562,3.2218,3.3027,3.3386,0.0,0.0,0.0,0.0,0.0,0.0,2.6164,2.5288,2.4541,0.0,0.0,0.0,0.0,0.0,0.0,0.0,0.0,0.0,0.0,0.0,0.0,0.0,0.0,0.0,0.0,0.0,2.7859,2.9209,2.8915,2.9235,3.0432,3.1136,3.1511,3.1511,3.1511,3.2138,3.3484,3.3425,3.366,3.416,3.3031,3.2091,3.1315,3.0292,2.9804,2.9804,2.9804,2.9804,2.988,3.0979,3.1406,3.1507,3.2663,3.3391,3.3822,3.3947,3.4603,3.5433,3.5558,3.5956,3.6405,3.6405,3.6708,3.7135,3.7185,3.7914,3.8743,3.8869,3.9296,3.9697,3.9697,3.9697,3.9697,3.9697,3.9697,3.9697,3.9697,3.9697,3.9697,3.9697,3.9697,3.9697,3.9697,3.9697,3.9697,3.9697,3.9697,3.9697,3.9697,3.9647,3.9446,3.8944,3.7599,3.6458,3.5803,3.3673,3.2329,3.2163,3.1383,3.0898,3.0898,3.0898,3.0898,3.0898,3.0898,3.1074,3.1416,3.1113,3.1406,3.2276,3.3008,3.3347,0.0,0.0,0.0,0.0,0.0,0.0,2.7522,2.6845,2.6057,0.0,0.0,0.0,0.0,0.0,0.0,0.0,0.0,0.0,0.0,0.0,0.0,0.0,0.0,0.0,0.0,0.0,2.8269,2.8662,2.9121,2.9728,3.0462,3.1136,3.1511,3.1511,3.1511,3.2138,3.3484,3.2976,3.3542,3.5182,3.2885,3.1965,3.2254,3.057,2.9804,2.9804,2.9804,2.9804,2.988,3.0979,3.1406,3.1507,3.2663,3.3165,3.3366,3.4248,3.4678,3.4979,3.5929,3.6306,3.6405,3.6405,3.648,3.6632,3.7085,3.7361,3.7738,3.8642,3.9296,3.9697,3.9697,3.9697,3.9697,3.9697,3.9697,3.9697,3.9697,3.9697,3.9697,3.9697,3.9697,3.9697,3.9697,3.9697,3.9697,3.9697,3.9697,3.9697,3.9697,3.9321,3.9019,3.8894,3.7233,3.5643,3.4334,3.3101,3.1884,3.0687,3.0798,3.0898,3.0898,3.0898,3.0898,3.0898,3.0898,3.0937,3.1016,3.1269,3.1836,3.2676,3.2832,3.3105,0.0,0.0,0.0,2.8864,0.0,0.0,0.0,2.6588,2.5947,0.0,0.0,0.0,0.0,0.0,0.0,0.0,0.0,0.0,0.0,0.0,0.0,0.0,0.0,0.0,0.0,0.0,2.8228,2.807,2.9013,2.9728,3.0013,3.0987,3.1511,3.1511,3.1809,3.2482,3.3484,3.3484,3.3923,3.471,3.2962,3.2034,3.1865,3.0438,2.9804,2.9804,2.9804,2.9804,2.988,3.0979,3.1406,3.1507,3.2663,3.309,3.319,3.3997,3.4452,3.4828,3.5655,3.6155,3.6405,3.6405,3.6405,3.6455,3.6708,3.6984,3.7436,3.8567,3.9095,3.9371,3.9622,3.9697,3.9697,3.9697,3.9697,3.9697,3.9697,3.9697,3.9697,3.9697,3.9697,3.9697,3.9697,3.9697,3.9697,3.9697,3.9697,3.9597,3.9346,3.907,3.8668,3.8115,3.5972,3.428,3.3477,3.1939,3.0758,3.0233,3.0644,3.0898,3.0898,3.0898,3.0898,3.0898,3.0898,3.0898,3.0898,3.1094,3.1641,3.2511,3.2695,3.3027,0.0,0.0,0.0,0.0,0.0,2.8101,0.0,0.0,0.0,2.5455,0.0,0.0,0.0,0.0,0.0,0.0,0.0,0.0,0.0,0.0,0.0,0.0,0.0,0.0,0.0,0.0,2.8019,2.763,2.883,2.9608,2.9608,3.0807,3.157,3.169,3.2213,3.2871,3.3664,3.4218,3.4435,3.4279,3.315,3.22,3.1426,3.033,2.9804,2.9804,2.9804,2.9804,2.988,3.0834,3.1311,3.1507,3.2663,3.309,3.3165,3.3696,3.4173,3.4628,3.518,3.5656,3.608,3.618,3.6306,3.6405,3.6405,3.6758,3.7411,3.8316,3.8642,3.8843,3.9396,3.9546,3.9572,3.9672,3.9697,3.9697,3.9697,3.9697,3.9697,3.9697,3.9697,3.9697,3.9697,3.9697,3.9647,3.9546,3.9546,3.9346,3.8793,3.8642,3.8116,3.6946,3.4621,3.3015,3.2653,3.0819,2.9844,3.0176,3.0644,3.0898,3.0898,3.0898,3.0898,3.0898,3.0898,3.0937,3.1016,3.1016,3.1406,3.2198,3.2519,3.2949,0.0,0.0,0.0,0.0,2.9978,0.0,0.0,0.0,2.7731,2.8367,0.0,0.0,0.0,0.0,0.0,0.0,0.0,0.0,0.0,0.0,0.0,0.0,0.0,0.0,0.0,0.0,0.0,2.7597,2.883,2.9608,2.9608,3.0807,3.178,3.2362,3.2452,3.3125,3.4368,3.4458,3.4799,3.531,3.3463,3.254,3.2379,3.0608,2.9804,2.9804,2.9804,2.9804,2.9854,3.0437,3.0984,3.1507,3.2663,3.309,3.3165,3.3696,3.3947,3.4073,3.4603,3.4828,3.4954,3.5456,3.5956,3.6405,3.6405,3.6758,3.7235,3.7361,3.7739,3.8241,3.8843,3.8994,3.912,3.9572,3.9697,3.9697,3.9697,3.9697,3.9697,3.9697,3.9697,3.9697,3.9697,3.9697,3.9521,3.907,3.8994,3.8793,3.8191,3.7713,3.6873,3.557,3.3966,3.2549,3.1317,3.0548,3.0137,3.0195,3.0644,3.0898,3.0898,3.0898,3.0898,3.0898,3.0898,3.1074,3.1416,3.1416,3.1699,3.2198,3.2257,3.2656,0.0,0.0,0.0,0.0,0.0,0.0,0.0,0.0,2.8586,0.0,0.0,0.0,0.0,0.0,0.0,0.0,0.0,0.0,0.0,0.0,0.0,0.0,0.0,0.0,0.0,0.0,0.0,0.0,0.0,2.9189,2.9578,3.0432,3.1226,3.1899,3.2662,3.3335,3.3919,3.4697,3.4656,3.3819,3.301,3.2028,3.0959,3.0158,2.9804,2.9804,2.9804,2.9804,2.9829,3.0382,3.0934,3.1482,3.2265,3.2792,3.3115,3.3366,3.3621,3.3922,3.4173,3.4427,3.4803,3.5332,3.5906,3.6405,3.6405,3.6557,3.6808,3.711,3.7588,3.814,3.8743,3.9145,3.9421,3.9647,3.9472,3.9245,3.9245,3.8944,3.8718,3.8718,3.8718,3.8718,3.8718,3.8994,3.917,3.8919,3.8617,3.8165,3.7613,3.7361,3.6576,3.4915,3.4176,3.3147,3.1491,3.1148,3.0894,3.0624,3.0781,3.0898,3.0898,3.0898,3.0898,3.0898,3.1133,3.1348,3.1494,3.1777,3.2109,3.257,3.257,3.2851,3.3103,0.0,0.0,0.0,0.0,0.0,0.0,0.0,0.0,0.0,0.0,0.0,0.0,0.0,0.0,0.0,0.0,0.0,0.0,0.0,0.0,0.0,0.0,0.0,0.0,0.0,0.0,0.0,0.0,0.0,2.9548,3.0163,3.0897,3.175,3.2916,3.3574,3.3769,3.4921,3.4789,3.3394,3.3133,3.2137,3.057,3.0311,3.0024,2.9804,2.9804,2.9804,2.9829,3.0231,3.0708,3.121,3.1612,3.2215,3.2889,3.304,3.3366,3.3671,3.3671,3.4148,3.4753,3.5132,3.5805,3.6405,3.6405,3.6405,3.648,3.6859,3.7261,3.7688,3.8291,3.8718,3.9044,3.9195,3.8944,3.8668,3.8668,3.8291,3.8015,3.8015,3.8015,3.8015,3.8015,3.8341,3.8592,3.8467,3.804,3.7588,3.706,3.6984,3.6233,3.4229,3.4496,3.381,3.1436,3.2068,3.2308,3.1554,3.1112,3.0898,3.0898,3.0898,3.0898,3.0898,3.1309,3.1552,3.1699,3.2129,3.2559,3.2969,3.2851,3.3027,0.0,0.0,0.0,3.3422,0.0,0.0,0.0,0.0,3.0267,0.0,0.0,0.0,0.0,0.0,0.0,0.0,0.0,0.0,0.0,0.0,0.0,0.0,0.0,0.0,0.0,0.0,0.0,0.0,0.0,0.0,2.9548,3.0163,3.112,3.2422,3.3155,3.3829,3.4458,3.516,3.5457,3.5392,3.4426,3.3463,3.2468,3.1573,3.0658,2.9804,2.9804,2.9804,2.9804,2.9804,3.0156,3.0613,3.0638,3.129,3.2315,3.2889,3.3115,3.3115,3.3115,3.3822,3.4703,3.4728,3.5479,3.6405,3.6405,3.6405,3.6405,3.643,3.6455,3.6581,3.711,3.7286,3.7387,3.7939,3.804,3.804,3.804,3.8015,3.8015,3.8015,3.8015,3.8015,3.8015,3.8015,3.7839,3.7336,3.7261,3.7034,3.6482,3.643,3.5575,3.3285,3.466,3.4257,3.0571,3.3294,3.4576,3.3134,3.1681,3.0898,3.0898,3.0898,3.0898,3.0898,3.1309,3.1719,3.2179,3.2578,3.2988,3.3367,3.2988,3.3027,0.0,0.0,3.484,3.4146,0.0,0.0,0.0,0.0,0.0,0.0,0.0,0.0,0.0,0.0,0.0,0.0,0.0,0.0,0.0,0.0,0.0,0.0,0.0,0.0,0.0,0.0,0.0,0.0,0.0,0.0,0.0,2.9788,3.0492,3.178,3.2901,3.3604,3.3829,3.4951,3.5166,3.4509,3.416,3.3515,3.2575,3.2254,3.1956,3.1636,3.0988,3.0733,3.0677,3.0068,3.0131,3.0588,3.0588,3.124,3.2219,3.2441,3.2763,3.309,3.309,3.3796,3.4703,3.4703,3.5454,3.6405,3.6405,3.6405,3.6405,3.6405,3.6658,3.6959,3.716,3.7462,3.7789,3.7965,3.7739,3.7462,3.7462,3.721,3.6934,3.6934,3.6934,3.6934,3.6934,3.6934,3.7009,3.7185,3.6909,3.6607,3.643,3.6405,3.5912,3.4601,3.5813,3.5335,3.1934,3.2112,3.2199,3.1681,3.117,3.0898,3.0898,3.0898,3.0898,3.0898,3.1309,3.1738,3.2198,3.2598,3.3008,3.3386,3.3281,3.3281,3.6494,3.6303,0.0,0.0,3.4211,0.0,3.209,0.0,0.0,0.0,0.0,0.0,0.0,0.0,0.0,0.0,0.0,0.0,0.0,2.9321,0.0,0.0,0.0,0.0,0.0,0.0,0.0,0.0,0.0,0.0,0.0,0.0,3.0073,3.1092,3.2677,3.3484,3.3484,3.4831,3.5166,3.4543,3.4543,3.4041,3.3087,3.3087,3.2912,3.254,3.1609,3.1389,3.1609,3.0305,3.0194,3.079,3.0671,3.116,3.1938,3.2139,3.2566,3.309,3.309,3.3796,3.4703,3.4703,3.5454,3.6405,3.6405,3.6405,3.6405,3.6405,3.6632,3.6909,3.6909,3.7185,3.7412,3.7412,3.7185,3.6909,3.6909,3.6632,3.6405,3.6405,3.6405,3.6405,3.6405,3.6405,3.6531,3.6859,3.6607,3.6405,3.6405,3.6581,3.6354,3.5487,3.685,3.704,3.516,3.2966,3.1911,3.2436,3.1469,3.0898,3.0898,3.0898,3.0898,3.0898,3.1309,3.166,3.1934,3.2519,3.293,3.3203,3.3328,3.3386]}]]